Wetterdaten: Dienstag, 16.05.2017
Datum Zeit Temp. A. Pool Temp. Feuchte A. Luftdruck Regen Wind Richtung Richtung Sonnenschein ET UV Solar Taupunkt Windchill Windben Empfang
16.05.2017 00:00 12,7 C 20,0 C 92 % 1028,8 hPa 0,0 l/m 4,2 km/h (1 Bft) S-SW 209 0 min 0,000 mm 0,0 UV-I 0 W/m 11,4 C 12,7 C 6,4 km/h (2 Bft) 96,00 %
16.05.2017 00:02 12,7 C 20,0 C 92 % 1028,8 hPa 0,0 l/m 4,4 km/h (1 Bft) S-SW 209 0 min 0,000 mm 0,0 UV-I 0 W/m 11,4 C 12,7 C 6,4 km/h (2 Bft) 100,00 %
16.05.2017 00:04 12,7 C 20,0 C 92 % 1028,8 hPa 0,0 l/m 4,2 km/h (1 Bft) S-SW 209 0 min 0,000 mm 0,0 UV-I 0 W/m 11,4 C 12,7 C 8,0 km/h (2 Bft) 94,92 %
16.05.2017 00:06 12,6 C 20,0 C 92 % 1028,8 hPa 0,0 l/m 4,4 km/h (1 Bft) S-SW 209 0 min 0,000 mm 0,0 UV-I 0 W/m 11,3 C 12,6 C 8,0 km/h (2 Bft) 95,74 %
16.05.2017 00:08 12,6 C 20,0 C 92 % 1028,8 hPa 0,0 l/m 4,7 km/h (1 Bft) S-SW 207 0 min 0,000 mm 0,0 UV-I 0 W/m 11,3 C 12,6 C 8,0 km/h (2 Bft) 97,87 %
16.05.2017 00:10 12,5 C 20,0 C 92 % 1028,8 hPa 0,0 l/m 6,3 km/h (2 Bft) S-SW 209 0 min 0,000 mm 0,0 UV-I 0 W/m 11,2 C 12,5 C 8,0 km/h (2 Bft) 95,45 %
16.05.2017 00:12 12,4 C 20,0 C 92 % 1028,7 hPa 0,0 l/m 6,6 km/h (2 Bft) S-SW 208 0 min 0,000 mm 0,0 UV-I 0 W/m 11,1 C 12,3 C 9,7 km/h (2 Bft) 98,00 %
16.05.2017 00:14 12,4 C 20,0 C 92 % 1028,7 hPa 0,0 l/m 4,9 km/h (1 Bft) S-SW 208 0 min 0,000 mm 0,0 UV-I 0 W/m 11,1 C 12,4 C 6,4 km/h (2 Bft) 97,44 %
16.05.2017 00:16 12,4 C 20,0 C 92 % 1028,7 hPa 0,0 l/m 6,1 km/h (2 Bft) S-SW 206 0 min 0,000 mm 0,0 UV-I 0 W/m 11,1 C 12,4 C 8,0 km/h (2 Bft) 97,56 %
16.05.2017 00:18 12,4 C 20,0 C 92 % 1028,7 hPa 0,0 l/m 5,2 km/h (1 Bft) S-SW 207 0 min 0,000 mm 0,0 UV-I 0 W/m 11,1 C 12,4 C 9,7 km/h (2 Bft) 98,15 %
16.05.2017 00:20 12,4 C 20,0 C 92 % 1028,8 hPa 0,0 l/m 6,8 km/h (2 Bft) S-SW 205 0 min 0,000 mm 0,0 UV-I 0 W/m 11,1 C 12,1 C 8,0 km/h (2 Bft) 98,00 %
16.05.2017 00:22 12,4 C 20,0 C 92 % 1028,8 hPa 0,0 l/m 6,4 km/h (2 Bft) S-SW 205 0 min 0,000 mm 0,0 UV-I 0 W/m 11,1 C 12,4 C 8,0 km/h (2 Bft) 96,23 %
16.05.2017 00:24 12,4 C 20,0 C 92 % 1028,8 hPa 0,0 l/m 5,2 km/h (1 Bft) S-SW 205 0 min 0,000 mm 0,0 UV-I 0 W/m 11,1 C 12,4 C 6,4 km/h (2 Bft) 97,37 %
16.05.2017 00:26 12,3 C 20,0 C 92 % 1028,8 hPa 0,0 l/m 4,9 km/h (1 Bft) S-SW 205 0 min 0,000 mm 0,0 UV-I 0 W/m 11,0 C 12,3 C 6,4 km/h (2 Bft) 93,62 %
16.05.2017 00:28 12,3 C 20,0 C 92 % 1028,8 hPa 0,0 l/m 4,1 km/h (1 Bft) S-SW 205 0 min 0,000 mm 0,0 UV-I 0 W/m 11,0 C 12,3 C 8,0 km/h (2 Bft) 94,29 %
16.05.2017 00:30 12,3 C 20,0 C 92 % 1028,8 hPa 0,0 l/m 4,0 km/h (1 Bft) S-SW 198 0 min 0,000 mm 0,0 UV-I 0 W/m 11,0 C 12,3 C 6,4 km/h (2 Bft) 93,22 %
16.05.2017 00:32 12,2 C 20,0 C 92 % 1028,8 hPa 0,0 l/m 3,7 km/h (1 Bft) S-SW 198 0 min 0,000 mm 0,0 UV-I 0 W/m 10,9 C 12,2 C 4,8 km/h (1 Bft) 94,34 %
16.05.2017 00:34 12,2 C 20,0 C 93 % 1028,9 hPa 0,0 l/m 3,5 km/h (1 Bft) S-SW 198 0 min 0,000 mm 0,0 UV-I 0 W/m 11,1 C 12,2 C 4,8 km/h (1 Bft) 95,74 %
16.05.2017 00:36 12,1 C 20,0 C 93 % 1028,8 hPa 0,0 l/m 2,0 km/h (1 Bft) S-SW 198 0 min 0,000 mm 0,0 UV-I 0 W/m 11,0 C 12,1 C 4,8 km/h (1 Bft) 92,11 %
16.05.2017 00:38 12,1 C 20,0 C 93 % 1028,8 hPa 0,0 l/m 1,4 km/h (1 Bft) S-SW 198 0 min 0,000 mm 0,0 UV-I 0 W/m 11,0 C 12,1 C 4,8 km/h (1 Bft) 92,45 %
16.05.2017 00:40 12,1 C 20,0 C 93 % 1028,8 hPa 0,0 l/m 1,3 km/h (1 Bft) S-SW 198 0 min 0,000 mm 0,0 UV-I 0 W/m 11,0 C 12,1 C 4,8 km/h (1 Bft) 96,00 %
16.05.2017 00:42 12,0 C 20,0 C 93 % 1028,8 hPa 0,0 l/m 1,0 km/h (0 Bft) S-SW 198 0 min 0,000 mm 0,0 UV-I 0 W/m 10,9 C 12,0 C 3,2 km/h (1 Bft) 92,11 %
16.05.2017 00:44 12,0 C 20,0 C 93 % 1028,8 hPa 0,0 l/m 0,7 km/h (0 Bft) S-SW 198 0 min 0,000 mm 0,0 UV-I 0 W/m 10,9 C 12,0 C 3,2 km/h (1 Bft) 94,34 %
16.05.2017 00:46 12,0 C 20,0 C 93 % 1028,8 hPa 0,0 l/m 1,4 km/h (1 Bft) S-SW 198 0 min 0,000 mm 0,0 UV-I 0 W/m 10,9 C 12,0 C 3,2 km/h (1 Bft) 95,74 %
16.05.2017 00:48 12,0 C 20,0 C 93 % 1028,8 hPa 0,0 l/m 2,2 km/h (1 Bft) S-SW 198 0 min 0,000 mm 0,0 UV-I 0 W/m 10,9 C 12,0 C 3,2 km/h (1 Bft) 98,00 %
16.05.2017 00:50 11,9 C 20,0 C 93 % 1028,8 hPa 0,0 l/m 2,2 km/h (1 Bft) S-SW 198 0 min 0,000 mm 0,0 UV-I 0 W/m 10,8 C 11,9 C 4,8 km/h (1 Bft) 92,11 %
16.05.2017 00:52 11,9 C 20,0 C 93 % 1028,8 hPa 0,0 l/m 2,1 km/h (1 Bft) S-SW 197 0 min 0,000 mm 0,0 UV-I 0 W/m 10,8 C 11,9 C 3,2 km/h (1 Bft) 95,74 %
16.05.2017 00:54 11,9 C 20,0 C 93 % 1028,8 hPa 0,0 l/m 2,1 km/h (1 Bft) S-SW 197 0 min 0,000 mm 0,0 UV-I 0 W/m 10,8 C 11,9 C 3,2 km/h (1 Bft) 92,45 %
16.05.2017 00:56 11,9 C 20,0 C 93 % 1028,8 hPa 0,0 l/m 2,4 km/h (1 Bft) S-SW 195 0 min 0,000 mm 0,0 UV-I 0 W/m 10,8 C 11,9 C 3,2 km/h (1 Bft) 100,00 %
16.05.2017 00:58 11,9 C 20,0 C 93 % 1028,8 hPa 0,0 l/m 3,0 km/h (1 Bft) S-SW 193 0 min 0,000 mm 0,0 UV-I 0 W/m 10,8 C 11,9 C 6,4 km/h (2 Bft) 95,12 %
16.05.2017 01:00 11,9 C 20,0 C 93 % 1028,8 hPa 0,0 l/m 3,3 km/h (1 Bft) S-SW 193 0 min 0,000 mm 0,0 UV-I 0 W/m 10,8 C 11,9 C 6,4 km/h (2 Bft) 98,11 %
16.05.2017 01:02 11,9 C 20,0 C 93 % 1028,8 hPa 0,0 l/m 2,8 km/h (1 Bft) S-SW 193 0 min 0,000 mm 0,0 UV-I 0 W/m 10,8 C 11,9 C 4,8 km/h (1 Bft) 96,23 %
16.05.2017 01:04 11,9 C 20,0 C 93 % 1028,8 hPa 0,0 l/m 3,8 km/h (1 Bft) S-SW 193 0 min 0,000 mm 0,0 UV-I 0 W/m 10,8 C 11,9 C 6,4 km/h (2 Bft) 97,87 %
16.05.2017 01:06 11,9 C 20,0 C 93 % 1028,8 hPa 0,0 l/m 3,8 km/h (1 Bft) S-SW 193 0 min 0,000 mm 0,0 UV-I 0 W/m 10,8 C 11,9 C 6,4 km/h (2 Bft) 98,00 %
16.05.2017 01:08 11,9 C 20,0 C 92 % 1028,7 hPa 0,0 l/m 3,1 km/h (1 Bft) S-SW 193 0 min 0,000 mm 0,0 UV-I 0 W/m 10,6 C 11,9 C 6,4 km/h (2 Bft) 97,56 %
16.05.2017 01:10 11,9 C 20,0 C 92 % 1028,8 hPa 0,0 l/m 1,6 km/h (1 Bft) S-SW 193 0 min 0,000 mm 0,0 UV-I 0 W/m 10,6 C 11,9 C 3,2 km/h (1 Bft) 98,11 %
16.05.2017 01:12 11,9 C 20,0 C 92 % 1028,8 hPa 0,0 l/m 1,8 km/h (1 Bft) S-SW 193 0 min 0,000 mm 0,0 UV-I 0 W/m 10,6 C 11,9 C 3,2 km/h (1 Bft) 97,56 %
16.05.2017 01:14 11,9 C 20,0 C 92 % 1028,7 hPa 0,0 l/m 0,9 km/h (0 Bft) S-SW 193 0 min 0,000 mm 0,0 UV-I 0 W/m 10,6 C 11,9 C 3,2 km/h (1 Bft) 95,12 %
16.05.2017 01:16 11,8 C 20,0 C 92 % 1028,7 hPa 0,0 l/m 1,1 km/h (1 Bft) S-SW 193 0 min 0,000 mm 0,0 UV-I 0 W/m 10,5 C 11,8 C 3,2 km/h (1 Bft) 96,43 %
16.05.2017 01:18 11,8 C 20,0 C 93 % 1028,7 hPa 0,0 l/m 1,9 km/h (1 Bft) S-SW 193 0 min 0,000 mm 0,0 UV-I 0 W/m 10,7 C 11,8 C 3,2 km/h (1 Bft) 100,00 %
16.05.2017 01:20 11,8 C 20,0 C 93 % 1028,7 hPa 0,0 l/m 3,2 km/h (1 Bft) S-SW 193 0 min 0,000 mm 0,0 UV-I 0 W/m 10,7 C 11,8 C 4,8 km/h (1 Bft) 98,00 %
16.05.2017 01:22 11,8 C 20,0 C 93 % 1028,8 hPa 0,0 l/m 3,4 km/h (1 Bft) S-SW 193 0 min 0,000 mm 0,0 UV-I 0 W/m 10,7 C 11,8 C 4,8 km/h (1 Bft) 98,11 %
16.05.2017 01:24 11,8 C 20,0 C 92 % 1028,7 hPa 0,0 l/m 2,3 km/h (1 Bft) S-SW 193 0 min 0,000 mm 0,0 UV-I 0 W/m 10,5 C 11,8 C 4,8 km/h (1 Bft) 100,00 %
16.05.2017 01:26 11,8 C 20,0 C 92 % 1028,8 hPa 0,0 l/m 0,9 km/h (0 Bft) S-SW 193 0 min 0,000 mm 0,0 UV-I 0 W/m 10,5 C 11,8 C 3,2 km/h (1 Bft) 100,00 %
16.05.2017 01:28 11,7 C 20,0 C 93 % 1028,8 hPa 0,0 l/m 1,5 km/h (1 Bft) S-SW 193 0 min 0,000 mm 0,0 UV-I 0 W/m 10,6 C 11,7 C 3,2 km/h (1 Bft) 100,00 %
16.05.2017 01:30 11,7 C 20,0 C 93 % 1028,8 hPa 0,0 l/m 3,3 km/h (1 Bft) S-SW 193 0 min 0,000 mm 0,0 UV-I 0 W/m 10,6 C 11,7 C 4,8 km/h (1 Bft) 100,00 %
16.05.2017 01:32 11,7 C 20,0 C 93 % 1028,8 hPa 0,0 l/m 3,9 km/h (1 Bft) S-SW 193 0 min 0,000 mm 0,0 UV-I 0 W/m 10,6 C 11,7 C 4,8 km/h (1 Bft) 95,74 %
16.05.2017 01:34 11,7 C 20,0 C 93 % 1028,7 hPa 0,0 l/m 4,5 km/h (1 Bft) S-SW 200 0 min 0,000 mm 0,0 UV-I 0 W/m 10,6 C 11,7 C 8,0 km/h (2 Bft) 97,87 %
16.05.2017 01:36 11,6 C 20,0 C 93 % 1028,8 hPa 0,0 l/m 4,2 km/h (1 Bft) S-SW 200 0 min 0,000 mm 0,0 UV-I 0 W/m 10,5 C 11,6 C 6,4 km/h (2 Bft) 97,87 %
16.05.2017 01:38 11,6 C 20,0 C 93 % 1028,7 hPa 0,0 l/m 4,4 km/h (1 Bft) S-SW 200 0 min 0,000 mm 0,0 UV-I 0 W/m 10,5 C 11,6 C 6,4 km/h (2 Bft) 97,87 %
16.05.2017 01:40 11,6 C 20,0 C 93 % 1028,8 hPa 0,0 l/m 4,0 km/h (1 Bft) S-SW 200 0 min 0,000 mm 0,0 UV-I 0 W/m 10,5 C 11,6 C 6,4 km/h (2 Bft) 97,44 %
16.05.2017 01:42 11,6 C 20,0 C 93 % 1028,8 hPa 0,0 l/m 3,2 km/h (1 Bft) S-SW 200 0 min 0,000 mm 0,0 UV-I 0 W/m 10,5 C 11,6 C 4,8 km/h (1 Bft) 100,00 %
16.05.2017 01:44 11,6 C 20,0 C 93 % 1028,8 hPa 0,0 l/m 3,6 km/h (1 Bft) S-SW 200 0 min 0,000 mm 0,0 UV-I 0 W/m 10,5 C 11,6 C 4,8 km/h (1 Bft) 100,00 %
16.05.2017 01:46 11,5 C 20,0 C 93 % 1028,8 hPa 0,0 l/m 4,4 km/h (1 Bft) S-SW 200 0 min 0,000 mm 0,0 UV-I 0 W/m 10,4 C 11,5 C 6,4 km/h (2 Bft) 100,00 %
16.05.2017 01:48 11,5 C 20,0 C 93 % 1028,8 hPa 0,0 l/m 4,2 km/h (1 Bft) S-SW 200 0 min 0,000 mm 0,0 UV-I 0 W/m 10,4 C 11,5 C 6,4 km/h (2 Bft) 94,00 %
16.05.2017 01:50 11,4 C 20,0 C 93 % 1028,7 hPa 0,0 l/m 4,4 km/h (1 Bft) S-SW 200 0 min 0,000 mm 0,0 UV-I 0 W/m 10,3 C 11,4 C 6,4 km/h (2 Bft) 100,00 %
16.05.2017 01:52 11,4 C 20,0 C 93 % 1028,8 hPa 0,0 l/m 3,5 km/h (1 Bft) S-SW 200 0 min 0,000 mm 0,0 UV-I 0 W/m 10,3 C 11,4 C 4,8 km/h (1 Bft) 98,04 %
16.05.2017 01:54 11,4 C 20,0 C 93 % 1028,7 hPa 0,0 l/m 3,9 km/h (1 Bft) S-SW 200 0 min 0,000 mm 0,0 UV-I 0 W/m 10,3 C 11,4 C 6,4 km/h (2 Bft) 100,00 %
16.05.2017 01:56 11,5 C 20,0 C 93 % 1028,7 hPa 0,0 l/m 3,7 km/h (1 Bft) S-SW 200 0 min 0,000 mm 0,0 UV-I 0 W/m 10,4 C 11,5 C 6,4 km/h (2 Bft) 97,87 %
16.05.2017 01:58 11,5 C 20,0 C 93 % 1028,7 hPa 0,0 l/m 4,4 km/h (1 Bft) S-SW 200 0 min 0,000 mm 0,0 UV-I 0 W/m 10,4 C 11,5 C 6,4 km/h (2 Bft) 98,21 %
16.05.2017 02:00 11,5 C 20,0 C 93 % 1028,7 hPa 0,0 l/m 5,1 km/h (1 Bft) S-SW 200 0 min 0,000 mm 0,0 UV-I 0 W/m 10,4 C 11,5 C 6,4 km/h (2 Bft) 100,00 %
16.05.2017 02:02 11,6 C 20,0 C 93 % 1028,7 hPa 0,0 l/m 4,1 km/h (1 Bft) S-SW 200 0 min 0,000 mm 0,0 UV-I 0 W/m 10,5 C 11,6 C 6,4 km/h (2 Bft) 97,87 %
16.05.2017 02:04 11,6 C 20,0 C 93 % 1028,7 hPa 0,0 l/m 4,2 km/h (1 Bft) S-SW 200 0 min 0,000 mm 0,0 UV-I 0 W/m 10,5 C 11,6 C 6,4 km/h (2 Bft) 100,00 %
16.05.2017 02:06 11,6 C 20,0 C 93 % 1028,7 hPa 0,0 l/m 3,2 km/h (1 Bft) S-SW 200 0 min 0,000 mm 0,0 UV-I 0 W/m 10,5 C 11,6 C 4,8 km/h (1 Bft) 100,00 %
16.05.2017 02:08 11,6 C 20,0 C 92 % 1028,7 hPa 0,0 l/m 2,6 km/h (1 Bft) S-SW 200 0 min 0,000 mm 0,0 UV-I 0 W/m 10,3 C 11,6 C 4,8 km/h (1 Bft) 100,00 %
16.05.2017 02:10 11,7 C 20,0 C 92 % 1028,7 hPa 0,0 l/m 1,0 km/h (0 Bft) S-SW 200 0 min 0,000 mm 0,0 UV-I 0 W/m 10,4 C 11,7 C 3,2 km/h (1 Bft) 100,00 %
16.05.2017 02:12 11,7 C 20,0 C 92 % 1028,7 hPa 0,0 l/m 2,5 km/h (1 Bft) S-SW 200 0 min 0,000 mm 0,0 UV-I 0 W/m 10,4 C 11,7 C 4,8 km/h (1 Bft) 100,00 %
16.05.2017 02:14 11,7 C 20,0 C 92 % 1028,7 hPa 0,0 l/m 0,5 km/h (0 Bft) S-SW 200 0 min 0,000 mm 0,0 UV-I 0 W/m 10,4 C 11,7 C 3,2 km/h (1 Bft) 97,87 %
16.05.2017 02:16 11,7 C 20,0 C 92 % 1028,8 hPa 0,0 l/m 0,2 km/h (0 Bft) S-SW 200 0 min 0,000 mm 0,0 UV-I 0 W/m 10,4 C 11,7 C 1,6 km/h (1 Bft) 100,00 %
16.05.2017 02:18 11,7 C 20,0 C 92 % 1028,8 hPa 0,0 l/m 1,2 km/h (1 Bft) S-SW 200 0 min 0,000 mm 0,0 UV-I 0 W/m 10,4 C 11,7 C 3,2 km/h (1 Bft) 98,00 %
16.05.2017 02:20 11,7 C 20,0 C 92 % 1028,8 hPa 0,0 l/m 0,8 km/h (0 Bft) S-SW 200 0 min 0,000 mm 0,0 UV-I 0 W/m 10,4 C 11,7 C 3,2 km/h (1 Bft) 97,87 %
16.05.2017 02:22 11,7 C 20,0 C 92 % 1028,7 hPa 0,0 l/m 2,1 km/h (1 Bft) S-SW 200 0 min 0,000 mm 0,0 UV-I 0 W/m 10,4 C 11,7 C 4,8 km/h (1 Bft) 98,00 %
16.05.2017 02:24 11,7 C 20,0 C 92 % 1028,8 hPa 0,0 l/m 1,6 km/h (1 Bft) S-SW 200 0 min 0,000 mm 0,0 UV-I 0 W/m 10,4 C 11,7 C 4,8 km/h (1 Bft) 100,00 %
16.05.2017 02:26 11,7 C 20,0 C 92 % 1028,8 hPa 0,0 l/m 2,3 km/h (1 Bft) S-SW 200 0 min 0,000 mm 0,0 UV-I 0 W/m 10,4 C 11,7 C 3,2 km/h (1 Bft) 96,00 %
16.05.2017 02:28 11,7 C 20,0 C 92 % 1028,8 hPa 0,0 l/m 2,8 km/h (1 Bft) S-SW 200 0 min 0,000 mm 0,0 UV-I 0 W/m 10,4 C 11,7 C 4,8 km/h (1 Bft) 98,11 %
16.05.2017 02:30 11,6 C 20,0 C 92 % 1028,8 hPa 0,0 l/m 2,7 km/h (1 Bft) S-SW 200 0 min 0,000 mm 0,0 UV-I 0 W/m 10,3 C 11,6 C 4,8 km/h (1 Bft) 98,00 %
16.05.2017 02:32 11,6 C 20,0 C 92 % 1028,8 hPa 0,0 l/m 2,3 km/h (1 Bft) S-SW 200 0 min 0,000 mm 0,0 UV-I 0 W/m 10,3 C 11,6 C 3,2 km/h (1 Bft) 95,74 %
16.05.2017 02:34 11,6 C 20,0 C 92 % 1028,6 hPa 0,0 l/m 1,9 km/h (1 Bft) S-SW 200 0 min 0,000 mm 0,0 UV-I 0 W/m 10,3 C 11,6 C 3,2 km/h (1 Bft) 97,37 %
16.05.2017 02:36 11,6 C 20,0 C 93 % 1028,7 hPa 0,0 l/m 2,1 km/h (1 Bft) S-SW 200 0 min 0,000 mm 0,0 UV-I 0 W/m 10,5 C 11,6 C 4,8 km/h (1 Bft) 96,00 %
16.05.2017 02:38 11,6 C 20,0 C 93 % 1028,7 hPa 0,0 l/m 2,6 km/h (1 Bft) S-SW 200 0 min 0,000 mm 0,0 UV-I 0 W/m 10,5 C 11,6 C 6,4 km/h (2 Bft) 94,00 %
16.05.2017 02:40 11,6 C 20,0 C 93 % 1028,6 hPa 0,0 l/m 2,6 km/h (1 Bft) S-SW 199 0 min 0,000 mm 0,0 UV-I 0 W/m 10,5 C 11,6 C 4,8 km/h (1 Bft) 97,37 %
16.05.2017 02:42 11,7 C 20,0 C 93 % 1028,7 hPa 0,0 l/m 3,5 km/h (1 Bft) S-SW 198 0 min 0,000 mm 0,0 UV-I 0 W/m 10,6 C 11,7 C 4,8 km/h (1 Bft) 94,34 %
16.05.2017 02:44 11,7 C 20,0 C 93 % 1028,6 hPa 0,0 l/m 3,3 km/h (1 Bft) S-SW 194 0 min 0,000 mm 0,0 UV-I 0 W/m 10,6 C 11,7 C 8,0 km/h (2 Bft) 97,56 %
16.05.2017 02:46 11,7 C 20,0 C 92 % 1028,6 hPa 0,0 l/m 3,5 km/h (1 Bft) S-SW 194 0 min 0,000 mm 0,0 UV-I 0 W/m 10,4 C 11,7 C 8,0 km/h (2 Bft) 95,74 %
16.05.2017 02:48 11,7 C 20,0 C 93 % 1028,6 hPa 0,0 l/m 2,6 km/h (1 Bft) S 190 0 min 0,000 mm 0,0 UV-I 0 W/m 10,6 C 11,7 C 9,7 km/h (2 Bft) 92,00 %
16.05.2017 02:50 11,7 C 20,0 C 92 % 1028,6 hPa 0,0 l/m 3,3 km/h (1 Bft) S 178 0 min 0,000 mm 0,0 UV-I 0 W/m 10,4 C 11,7 C 6,4 km/h (2 Bft) 97,78 %
16.05.2017 02:52 11,7 C 20,0 C 92 % 1028,7 hPa 0,0 l/m 2,5 km/h (1 Bft) S 177 0 min 0,000 mm 0,0 UV-I 0 W/m 10,4 C 11,7 C 4,8 km/h (1 Bft) 97,96 %
16.05.2017 02:54 11,7 C 20,0 C 92 % 1028,6 hPa 0,0 l/m 3,9 km/h (1 Bft) S 178 0 min 0,000 mm 0,0 UV-I 0 W/m 10,4 C 11,7 C 6,4 km/h (2 Bft) 96,23 %
16.05.2017 02:56 11,7 C 20,0 C 92 % 1028,7 hPa 0,0 l/m 4,1 km/h (1 Bft) S 178 0 min 0,000 mm 0,0 UV-I 0 W/m 10,4 C 11,7 C 4,8 km/h (1 Bft) 97,62 %
16.05.2017 02:58 11,7 C 20,0 C 92 % 1028,7 hPa 0,0 l/m 3,0 km/h (1 Bft) S 180 0 min 0,000 mm 0,0 UV-I 0 W/m 10,4 C 11,7 C 6,4 km/h (2 Bft) 96,00 %
16.05.2017 03:00 11,7 C 20,0 C 92 % 1028,7 hPa 0,0 l/m 4,4 km/h (1 Bft) S-SW 201 0 min 0,000 mm 0,0 UV-I 0 W/m 10,4 C 11,7 C 6,4 km/h (2 Bft) 96,00 %
16.05.2017 03:02 11,6 C 20,0 C 92 % 1028,7 hPa 0,0 l/m 5,0 km/h (1 Bft) S-SW 201 0 min 0,000 mm 0,0 UV-I 0 W/m 10,3 C 11,6 C 6,4 km/h (2 Bft) 95,74 %
16.05.2017 03:04 11,6 C 20,0 C 92 % 1028,7 hPa 0,0 l/m 4,9 km/h (1 Bft) S-SW 201 0 min 0,000 mm 0,0 UV-I 0 W/m 10,3 C 11,6 C 6,4 km/h (2 Bft) 97,14 %
16.05.2017 03:06 11,6 C 20,0 C 93 % 1028,7 hPa 0,0 l/m 4,7 km/h (1 Bft) S-SW 202 0 min 0,000 mm 0,0 UV-I 0 W/m 10,5 C 11,6 C 6,4 km/h (2 Bft) 100,00 %
16.05.2017 03:08 11,6 C 20,0 C 93 % 1028,7 hPa 0,0 l/m 4,8 km/h (1 Bft) S-SW 202 0 min 0,000 mm 0,0 UV-I 0 W/m 10,5 C 11,6 C 6,4 km/h (2 Bft) 97,87 %
16.05.2017 03:10 11,6 C 20,0 C 93 % 1028,7 hPa 0,0 l/m 6,7 km/h (2 Bft) S-SW 212 0 min 0,000 mm 0,0 UV-I 0 W/m 10,5 C 11,4 C 9,7 km/h (2 Bft) 100,00 %
16.05.2017 03:12 11,6 C 20,0 C 93 % 1028,7 hPa 0,0 l/m 7,1 km/h (2 Bft) S-SW 205 0 min 0,000 mm 0,0 UV-I 0 W/m 10,5 C 11,1 C 11,3 km/h (2 Bft) 96,23 %
16.05.2017 03:14 11,6 C 20,0 C 93 % 1028,8 hPa 0,0 l/m 8,1 km/h (2 Bft) S-SW 211 0 min 0,000 mm 0,0 UV-I 0 W/m 10,5 C 10,5 C 11,3 km/h (2 Bft) 96,00 %
16.05.2017 03:16 11,6 C 20,0 C 93 % 1028,8 hPa 0,0 l/m 8,6 km/h (2 Bft) S-SW 211 0 min 0,000 mm 0,0 UV-I 0 W/m 10,5 C 10,2 C 11,3 km/h (2 Bft) 100,00 %
16.05.2017 03:18 11,7 C 20,0 C 93 % 1028,8 hPa 0,0 l/m 7,9 km/h (2 Bft) S 179 0 min 0,000 mm 0,0 UV-I 0 W/m 10,6 C 10,7 C 11,3 km/h (2 Bft) 98,00 %
16.05.2017 03:20 11,7 C 20,0 C 93 % 1028,8 hPa 0,0 l/m 6,7 km/h (2 Bft) S-SW 213 0 min 0,000 mm 0,0 UV-I 0 W/m 10,6 C 11,5 C 9,7 km/h (2 Bft) 96,00 %
16.05.2017 03:22 11,7 C 20,0 C 93 % 1028,8 hPa 0,0 l/m 6,1 km/h (2 Bft) S-SW 207 0 min 0,000 mm 0,0 UV-I 0 W/m 10,6 C 11,7 C 9,7 km/h (2 Bft) 97,56 %
16.05.2017 03:24 11,7 C 20,0 C 93 % 1028,8 hPa 0,0 l/m 4,6 km/h (1 Bft) S-SW 199 0 min 0,000 mm 0,0 UV-I 0 W/m 10,6 C 11,7 C 6,4 km/h (2 Bft) 95,12 %
16.05.2017 03:26 11,7 C 20,0 C 93 % 1028,7 hPa 0,0 l/m 4,2 km/h (1 Bft) S-SW 193 0 min 0,000 mm 0,0 UV-I 0 W/m 10,6 C 11,7 C 6,4 km/h (2 Bft) 98,21 %
16.05.2017 03:28 11,7 C 20,0 C 93 % 1028,7 hPa 0,0 l/m 5,1 km/h (1 Bft) S-SW 213 0 min 0,000 mm 0,0 UV-I 0 W/m 10,6 C 11,7 C 6,4 km/h (2 Bft) 92,86 %
16.05.2017 03:30 11,7 C 20,0 C 93 % 1028,7 hPa 0,0 l/m 4,0 km/h (1 Bft) S-SW 192 0 min 0,000 mm 0,0 UV-I 0 W/m 10,6 C 11,7 C 6,4 km/h (2 Bft) 96,55 %
16.05.2017 03:32 11,7 C 20,0 C 93 % 1028,6 hPa 0,0 l/m 5,3 km/h (1 Bft) S-SW 201 0 min 0,000 mm 0,0 UV-I 0 W/m 10,6 C 11,7 C 8,0 km/h (2 Bft) 97,22 %
16.05.2017 03:34 11,7 C 20,0 C 93 % 1028,7 hPa 0,0 l/m 5,7 km/h (1 Bft) S-SW 205 0 min 0,000 mm 0,0 UV-I 0 W/m 10,6 C 11,7 C 9,7 km/h (2 Bft) 91,49 %
16.05.2017 03:36 11,7 C 20,0 C 93 % 1028,6 hPa 0,0 l/m 6,8 km/h (2 Bft) S-SW 213 0 min 0,000 mm 0,0 UV-I 0 W/m 10,6 C 11,4 C 11,3 km/h (2 Bft) 96,43 %
16.05.2017 03:38 11,7 C 20,0 C 93 % 1028,7 hPa 0,0 l/m 5,0 km/h (1 Bft) S 191 0 min 0,000 mm 0,0 UV-I 0 W/m 10,6 C 11,7 C 9,7 km/h (2 Bft) 95,12 %
16.05.2017 03:40 11,7 C 20,0 C 93 % 1028,6 hPa 0,0 l/m 4,6 km/h (1 Bft) S-SW 197 0 min 0,000 mm 0,0 UV-I 0 W/m 10,6 C 11,7 C 8,0 km/h (2 Bft) 97,87 %
16.05.2017 03:42 11,7 C 20,0 C 92 % 1028,6 hPa 0,0 l/m 5,9 km/h (2 Bft) S-SW 207 0 min 0,000 mm 0,0 UV-I 0 W/m 10,4 C 11,7 C 9,7 km/h (2 Bft) 96,00 %
16.05.2017 03:44 11,7 C 20,0 C 92 % 1028,6 hPa 0,0 l/m 5,5 km/h (1 Bft) SW 219 0 min 0,000 mm 0,0 UV-I 0 W/m 10,4 C 11,7 C 9,7 km/h (2 Bft) 97,87 %
16.05.2017 03:46 11,7 C 20,0 C 92 % 1028,6 hPa 0,0 l/m 6,7 km/h (2 Bft) S-SW 206 0 min 0,000 mm 0,0 UV-I 0 W/m 10,4 C 11,5 C 8,0 km/h (2 Bft) 95,74 %
16.05.2017 03:48 11,7 C 20,0 C 92 % 1028,7 hPa 0,0 l/m 6,4 km/h (2 Bft) S-SW 198 0 min 0,000 mm 0,0 UV-I 0 W/m 10,4 C 11,7 C 9,7 km/h (2 Bft) 97,56 %
16.05.2017 03:50 11,7 C 20,0 C 92 % 1028,6 hPa 0,0 l/m 7,9 km/h (2 Bft) S-SW 213 0 min 0,000 mm 0,0 UV-I 0 W/m 10,4 C 10,7 C 11,3 km/h (2 Bft) 96,23 %
16.05.2017 03:52 11,7 C 20,0 C 92 % 1028,7 hPa 0,0 l/m 6,6 km/h (2 Bft) S-SW 211 0 min 0,000 mm 0,0 UV-I 0 W/m 10,4 C 11,6 C 9,7 km/h (2 Bft) 95,12 %
16.05.2017 03:54 11,7 C 20,0 C 92 % 1028,7 hPa 0,0 l/m 6,6 km/h (2 Bft) S-SW 211 0 min 0,000 mm 0,0 UV-I 0 W/m 10,4 C 11,6 C 9,7 km/h (2 Bft) 96,00 %
16.05.2017 03:56 11,7 C 20,0 C 92 % 1028,7 hPa 0,0 l/m 5,7 km/h (1 Bft) SW 215 0 min 0,000 mm 0,0 UV-I 0 W/m 10,4 C 11,7 C 8,0 km/h (2 Bft) 94,74 %
16.05.2017 03:58 11,6 C 20,0 C 92 % 1028,7 hPa 0,0 l/m 5,7 km/h (1 Bft) S-SO 164 0 min 0,000 mm 0,0 UV-I 0 W/m 10,3 C 11,6 C 8,0 km/h (2 Bft) 98,00 %
16.05.2017 04:00 11,6 C 20,0 C 92 % 1028,8 hPa 0,0 l/m 6,1 km/h (2 Bft) S-SW 202 0 min 0,000 mm 0,0 UV-I 0 W/m 10,3 C 11,6 C 9,7 km/h (2 Bft) 96,00 %
16.05.2017 04:02 11,6 C 20,0 C 92 % 1028,8 hPa 0,0 l/m 4,7 km/h (1 Bft) S 178 0 min 0,000 mm 0,0 UV-I 0 W/m 10,3 C 11,6 C 6,4 km/h (2 Bft) 95,83 %
16.05.2017 04:04 11,6 C 20,0 C 92 % 1028,7 hPa 0,0 l/m 3,7 km/h (1 Bft) S 173 0 min 0,000 mm 0,0 UV-I 0 W/m 10,3 C 11,6 C 8,0 km/h (2 Bft) 93,62 %
16.05.2017 04:06 11,6 C 20,0 C 92 % 1028,7 hPa 0,0 l/m 3,5 km/h (1 Bft) S 189 0 min 0,000 mm 0,0 UV-I 0 W/m 10,3 C 11,6 C 6,4 km/h (2 Bft) 97,87 %
16.05.2017 04:08 11,6 C 20,0 C 92 % 1028,7 hPa 0,0 l/m 3,6 km/h (1 Bft) S-SW 195 0 min 0,000 mm 0,0 UV-I 0 W/m 10,3 C 11,6 C 6,4 km/h (2 Bft) 98,00 %
16.05.2017 04:10 11,6 C 20,0 C 92 % 1028,7 hPa 0,0 l/m 4,4 km/h (1 Bft) S-SW 192 0 min 0,000 mm 0,0 UV-I 0 W/m 10,3 C 11,6 C 6,4 km/h (2 Bft) 98,00 %
16.05.2017 04:12 11,6 C 20,0 C 92 % 1028,7 hPa 0,0 l/m 4,9 km/h (1 Bft) S 191 0 min 0,000 mm 0,0 UV-I 0 W/m 10,3 C 11,6 C 8,0 km/h (2 Bft) 94,87 %
16.05.2017 04:14 11,6 C 20,0 C 92 % 1028,7 hPa 0,0 l/m 5,1 km/h (1 Bft) S-SW 192 0 min 0,000 mm 0,0 UV-I 0 W/m 10,3 C 11,6 C 8,0 km/h (2 Bft) 95,74 %
16.05.2017 04:16 11,6 C 20,0 C 92 % 1028,6 hPa 0,0 l/m 4,0 km/h (1 Bft) S 184 0 min 0,000 mm 0,0 UV-I 0 W/m 10,3 C 11,6 C 6,4 km/h (2 Bft) 95,74 %
16.05.2017 04:18 11,6 C 20,0 C 92 % 1028,6 hPa 0,0 l/m 4,3 km/h (1 Bft) S 175 0 min 0,000 mm 0,0 UV-I 0 W/m 10,3 C 11,6 C 8,0 km/h (2 Bft) 94,34 %
16.05.2017 04:20 11,6 C 20,0 C 92 % 1028,6 hPa 0,0 l/m 3,8 km/h (1 Bft) S 185 0 min 0,000 mm 0,0 UV-I 0 W/m 10,3 C 11,6 C 6,4 km/h (2 Bft) 94,00 %
16.05.2017 04:22 11,6 C 20,0 C 91 % 1028,6 hPa 0,0 l/m 3,8 km/h (1 Bft) S-SW 194 0 min 0,000 mm 0,0 UV-I 0 W/m 10,2 C 11,6 C 6,4 km/h (2 Bft) 100,00 %
16.05.2017 04:24 11,7 C 20,0 C 91 % 1028,6 hPa 0,0 l/m 3,7 km/h (1 Bft) S-SW 192 0 min 0,000 mm 0,0 UV-I 0 W/m 10,3 C 11,7 C 4,8 km/h (1 Bft) 100,00 %
16.05.2017 04:26 11,6 C 20,0 C 91 % 1028,6 hPa 0,0 l/m 4,3 km/h (1 Bft) S-SW 192 0 min 0,000 mm 0,0 UV-I 0 W/m 10,2 C 11,6 C 6,4 km/h (2 Bft) 94,74 %
16.05.2017 04:28 11,6 C 20,0 C 91 % 1028,6 hPa 0,0 l/m 4,1 km/h (1 Bft) S-SW 192 0 min 0,000 mm 0,0 UV-I 0 W/m 10,2 C 11,6 C 6,4 km/h (2 Bft) 98,00 %
16.05.2017 04:30 11,6 C 19,4 C 91 % 1028,5 hPa 0,0 l/m 3,3 km/h (1 Bft) S 183 0 min 0,000 mm 0,0 UV-I 0 W/m 10,2 C 11,6 C 4,8 km/h (1 Bft) 97,87 %
16.05.2017 04:32 11,6 C 19,4 C 91 % 1028,5 hPa 0,0 l/m 3,8 km/h (1 Bft) S 174 0 min 0,000 mm 0,0 UV-I 0 W/m 10,2 C 11,6 C 6,4 km/h (2 Bft) 94,34 %
16.05.2017 04:34 11,6 C 19,4 C 91 % 1028,5 hPa 0,0 l/m 4,4 km/h (1 Bft) S 181 0 min 0,000 mm 0,0 UV-I 0 W/m 10,2 C 11,6 C 8,0 km/h (2 Bft) 94,74 %
16.05.2017 04:36 11,6 C 20,0 C 91 % 1028,5 hPa 0,0 l/m 4,7 km/h (1 Bft) S-SW 192 0 min 0,000 mm 0,0 UV-I 0 W/m 10,2 C 11,6 C 8,0 km/h (2 Bft) 95,45 %
16.05.2017 04:38 11,6 C 20,0 C 91 % 1028,5 hPa 0,0 l/m 4,7 km/h (1 Bft) S 190 0 min 0,000 mm 0,0 UV-I 0 W/m 10,2 C 11,6 C 8,0 km/h (2 Bft) 96,43 %
16.05.2017 04:40 11,6 C 19,4 C 91 % 1028,5 hPa 0,0 l/m 3,0 km/h (1 Bft) S 190 0 min 0,000 mm 0,0 UV-I 0 W/m 10,2 C 11,6 C 6,4 km/h (2 Bft) 93,62 %
16.05.2017 04:42 11,6 C 19,4 C 91 % 1028,5 hPa 0,0 l/m 4,1 km/h (1 Bft) S 189 0 min 0,000 mm 0,0 UV-I 0 W/m 10,2 C 11,6 C 6,4 km/h (2 Bft) 100,00 %
16.05.2017 04:44 11,6 C 19,4 C 92 % 1028,5 hPa 0,0 l/m 4,4 km/h (1 Bft) S-SW 211 0 min 0,000 mm 0,0 UV-I 0 W/m 10,3 C 11,6 C 6,4 km/h (2 Bft) 94,34 %
16.05.2017 04:46 11,6 C 19,4 C 91 % 1028,5 hPa 0,0 l/m 4,9 km/h (1 Bft) S-SW 211 0 min 0,000 mm 0,0 UV-I 0 W/m 10,2 C 11,6 C 8,0 km/h (2 Bft) 98,00 %
16.05.2017 04:48 11,5 C 19,4 C 91 % 1028,5 hPa 0,0 l/m 4,6 km/h (1 Bft) S-SW 211 0 min 0,000 mm 0,0 UV-I 0 W/m 10,1 C 11,5 C 6,4 km/h (2 Bft) 94,87 %
16.05.2017 04:50 11,5 C 19,4 C 91 % 1028,5 hPa 0,0 l/m 4,0 km/h (1 Bft) S-SW 211 0 min 0,000 mm 0,0 UV-I 0 W/m 10,1 C 11,5 C 4,8 km/h (1 Bft) 96,36 %
16.05.2017 04:52 11,5 C 19,4 C 92 % 1028,5 hPa 0,0 l/m 3,6 km/h (1 Bft) S-SW 211 0 min 0,000 mm 0,0 UV-I 0 W/m 10,2 C 11,5 C 4,8 km/h (1 Bft) 95,24 %
16.05.2017 04:54 11,4 C 19,4 C 92 % 1028,5 hPa 0,0 l/m 2,1 km/h (1 Bft) S-SW 211 0 min 0,000 mm 0,0 UV-I 0 W/m 10,1 C 11,4 C 4,8 km/h (1 Bft) 96,00 %
16.05.2017 04:56 11,4 C 19,4 C 92 % 1028,5 hPa 0,0 l/m 1,1 km/h (1 Bft) S-SW 211 0 min 0,000 mm 0,0 UV-I 0 W/m 10,1 C 11,4 C 3,2 km/h (1 Bft) 97,56 %
16.05.2017 04:58 11,4 C 19,4 C 92 % 1028,5 hPa 0,0 l/m 2,0 km/h (1 Bft) S-SW 211 0 min 0,000 mm 0,0 UV-I 0 W/m 10,1 C 11,4 C 4,8 km/h (1 Bft) 95,74 %
16.05.2017 05:00 11,4 C 19,4 C 92 % 1028,5 hPa 0,0 l/m 3,4 km/h (1 Bft) S-SW 211 0 min 0,000 mm 0,0 UV-I 0 W/m 10,1 C 11,4 C 4,8 km/h (1 Bft) 91,49 %
16.05.2017 05:02 11,4 C 19,4 C 92 % 1028,6 hPa 0,0 l/m 3,8 km/h (1 Bft) S-SW 211 0 min 0,000 mm 0,0 UV-I 0 W/m 10,1 C 11,4 C 4,8 km/h (1 Bft) 98,21 %
16.05.2017 05:04 11,4 C 19,4 C 92 % 1028,6 hPa 0,0 l/m 3,3 km/h (1 Bft) S-SW 211 0 min 0,000 mm 0,0 UV-I 0 W/m 10,1 C 11,4 C 4,8 km/h (1 Bft) 95,45 %
16.05.2017 05:06 11,4 C 19,4 C 92 % 1028,6 hPa 0,0 l/m 3,7 km/h (1 Bft) S-SW 211 0 min 0,000 mm 0,0 UV-I 0 W/m 10,1 C 11,4 C 6,4 km/h (2 Bft) 100,00 %
16.05.2017 05:08 11,3 C 19,4 C 92 % 1028,6 hPa 0,0 l/m 2,9 km/h (1 Bft) S-SW 211 0 min 0,000 mm 0,0 UV-I 0 W/m 10,0 C 11,3 C 4,8 km/h (1 Bft) 98,00 %
16.05.2017 05:10 11,3 C 19,4 C 92 % 1028,6 hPa 0,0 l/m 2,2 km/h (1 Bft) S-SW 211 0 min 0,000 mm 0,0 UV-I 0 W/m 10,0 C 11,3 C 4,8 km/h (1 Bft) 100,00 %
16.05.2017 05:12 11,3 C 19,4 C 92 % 1028,6 hPa 0,0 l/m 3,8 km/h (1 Bft) S-SW 211 0 min 0,000 mm 0,0 UV-I 5 W/m 10,0 C 11,3 C 6,4 km/h (2 Bft) 100,00 %
16.05.2017 05:14 11,3 C 19,4 C 92 % 1028,6 hPa 0,0 l/m 3,0 km/h (1 Bft) S-SW 211 0 min 0,000 mm 0,0 UV-I 5 W/m 10,0 C 11,3 C 4,8 km/h (1 Bft) 97,37 %
16.05.2017 05:16 11,3 C 19,4 C 92 % 1028,7 hPa 0,0 l/m 2,8 km/h (1 Bft) S-SW 211 0 min 0,000 mm 0,0 UV-I 5 W/m 10,0 C 11,3 C 4,8 km/h (1 Bft) 98,00 %
16.05.2017 05:18 11,3 C 19,4 C 92 % 1028,6 hPa 0,0 l/m 3,4 km/h (1 Bft) S-SW 211 0 min 0,000 mm 0,0 UV-I 5 W/m 10,0 C 11,3 C 6,4 km/h (2 Bft) 100,00 %
16.05.2017 05:20 11,2 C 19,4 C 92 % 1028,6 hPa 0,0 l/m 2,5 km/h (1 Bft) S-SW 211 0 min 0,000 mm 0,0 UV-I 6 W/m 9,9 C 11,2 C 4,8 km/h (1 Bft) 96,00 %
16.05.2017 05:22 11,2 C 19,4 C 92 % 1028,6 hPa 0,0 l/m 2,4 km/h (1 Bft) S-SW 211 0 min 0,000 mm 0,0 UV-I 7 W/m 9,9 C 11,2 C 6,4 km/h (2 Bft) 100,00 %
16.05.2017 05:24 11,2 C 19,4 C 92 % 1028,6 hPa 0,0 l/m 3,5 km/h (1 Bft) S-SW 204 0 min 0,000 mm 0,0 UV-I 7 W/m 9,9 C 11,2 C 4,8 km/h (1 Bft) 98,11 %
16.05.2017 05:26 11,2 C 19,4 C 92 % 1028,6 hPa 0,0 l/m 3,3 km/h (1 Bft) S-SW 196 0 min 0,000 mm 0,0 UV-I 9 W/m 9,9 C 11,2 C 6,4 km/h (2 Bft) 97,44 %
16.05.2017 05:28 11,2 C 19,4 C 92 % 1028,6 hPa 0,0 l/m 4,3 km/h (1 Bft) S 188 0 min 0,000 mm 0,0 UV-I 9 W/m 9,9 C 11,2 C 8,0 km/h (2 Bft) 98,00 %
16.05.2017 05:30 11,2 C 19,4 C 92 % 1028,6 hPa 0,0 l/m 4,5 km/h (1 Bft) S 188 0 min 0,000 mm 0,0 UV-I 10 W/m 9,9 C 11,2 C 6,4 km/h (2 Bft) 98,00 %
16.05.2017 05:32 11,2 C 19,4 C 92 % 1028,6 hPa 0,0 l/m 4,3 km/h (1 Bft) S 188 0 min 0,000 mm 0,0 UV-I 11 W/m 9,9 C 11,2 C 6,4 km/h (2 Bft) 98,08 %
16.05.2017 05:34 11,2 C 19,4 C 92 % 1028,6 hPa 0,0 l/m 4,2 km/h (1 Bft) S 188 0 min 0,000 mm 0,0 UV-I 13 W/m 9,9 C 11,2 C 6,4 km/h (2 Bft) 97,22 %
16.05.2017 05:36 11,1 C 19,4 C 92 % 1028,5 hPa 0,0 l/m 3,8 km/h (1 Bft) S 188 2 min 0,000 mm 0,0 UV-I 15 W/m 9,8 C 11,1 C 4,8 km/h (1 Bft) 98,21 %
16.05.2017 05:38 11,1 C 19,4 C 92 % 1028,6 hPa 0,0 l/m 4,0 km/h (1 Bft) S 191 2 min 0,000 mm 0,0 UV-I 18 W/m 9,8 C 11,1 C 8,0 km/h (2 Bft) 95,45 %
16.05.2017 05:40 11,1 C 19,4 C 92 % 1028,6 hPa 0,0 l/m 4,4 km/h (1 Bft) S 191 2 min 0,000 mm 0,0 UV-I 19 W/m 9,8 C 11,1 C 6,4 km/h (2 Bft) 97,87 %
16.05.2017 05:42 11,0 C 19,4 C 92 % 1028,6 hPa 0,0 l/m 4,4 km/h (1 Bft) S-SW 202 2 min 0,000 mm 0,0 UV-I 22 W/m 9,8 C 11,0 C 6,4 km/h (2 Bft) 100,00 %
16.05.2017 05:44 10,9 C 19,4 C 92 % 1028,5 hPa 0,0 l/m 3,4 km/h (1 Bft) S-SW 202 2 min 0,000 mm 0,0 UV-I 23 W/m 9,7 C 10,9 C 6,4 km/h (2 Bft) 95,74 %
16.05.2017 05:46 10,9 C 19,4 C 92 % 1028,5 hPa 0,0 l/m 3,8 km/h (1 Bft) S-SW 202 0 min 0,000 mm 0,0 UV-I 23 W/m 9,7 C 10,9 C 6,4 km/h (2 Bft) 97,87 %
16.05.2017 05:48 10,9 C 19,4 C 93 % 1028,6 hPa 0,0 l/m 3,5 km/h (1 Bft) S-SW 202 0 min 0,000 mm 0,0 UV-I 26 W/m 9,8 C 10,9 C 4,8 km/h (1 Bft) 100,00 %
16.05.2017 05:50 10,9 C 19,4 C 92 % 1028,6 hPa 0,0 l/m 3,2 km/h (1 Bft) S-SW 202 0 min 0,000 mm 0,0 UV-I 27 W/m 9,7 C 10,9 C 4,8 km/h (1 Bft) 98,00 %
16.05.2017 05:52 10,9 C 19,4 C 92 % 1028,6 hPa 0,0 l/m 2,9 km/h (1 Bft) S-SW 202 2 min 0,000 mm 0,0 UV-I 33 W/m 9,7 C 10,9 C 4,8 km/h (1 Bft) 98,00 %
16.05.2017 05:54 10,9 C 19,4 C 92 % 1028,6 hPa 0,0 l/m 3,1 km/h (1 Bft) S-SW 202 0 min 0,000 mm 0,0 UV-I 33 W/m 9,7 C 10,9 C 4,8 km/h (1 Bft) 100,00 %
16.05.2017 05:56 10,8 C 19,4 C 93 % 1028,6 hPa 0,0 l/m 2,8 km/h (1 Bft) S-SW 202 0 min 0,000 mm 0,0 UV-I 28 W/m 9,7 C 10,8 C 4,8 km/h (1 Bft) 100,00 %
16.05.2017 05:58 10,8 C 19,4 C 93 % 1028,7 hPa 0,0 l/m 3,1 km/h (1 Bft) S-SW 202 0 min 0,000 mm 0,0 UV-I 29 W/m 9,7 C 10,8 C 4,8 km/h (1 Bft) 98,00 %
16.05.2017 06:00 10,8 C 19,4 C 93 % 1028,7 hPa 0,0 l/m 2,5 km/h (1 Bft) S-SW 202 0 min 0,000 mm 0,0 UV-I 31 W/m 9,7 C 10,8 C 3,2 km/h (1 Bft) 100,00 %
16.05.2017 06:02 10,8 C 19,4 C 93 % 1028,6 hPa 0,0 l/m 2,6 km/h (1 Bft) S-SW 202 0 min 0,000 mm 0,0 UV-I 36 W/m 9,7 C 10,8 C 4,8 km/h (1 Bft) 98,00 %
16.05.2017 06:04 10,8 C 19,4 C 93 % 1028,6 hPa 0,0 l/m 2,5 km/h (1 Bft) S-SW 202 0 min 0,000 mm 0,0 UV-I 36 W/m 9,7 C 10,8 C 4,8 km/h (1 Bft) 100,00 %
16.05.2017 06:06 10,8 C 19,4 C 93 % 1028,7 hPa 0,0 l/m 2,9 km/h (1 Bft) S-SW 202 0 min 0,000 mm 0,0 UV-I 38 W/m 9,7 C 10,8 C 4,8 km/h (1 Bft) 97,87 %
16.05.2017 06:08 10,8 C 19,4 C 93 % 1028,7 hPa 0,0 l/m 3,2 km/h (1 Bft) S-SW 202 0 min 0,000 mm 0,0 UV-I 40 W/m 9,7 C 10,8 C 4,8 km/h (1 Bft) 97,44 %
16.05.2017 06:10 10,8 C 19,4 C 93 % 1028,7 hPa 0,0 l/m 3,4 km/h (1 Bft) S-SW 202 0 min 0,000 mm 0,0 UV-I 45 W/m 9,7 C 10,8 C 6,4 km/h (2 Bft) 100,00 %
16.05.2017 06:12 10,8 C 19,4 C 93 % 1028,7 hPa 0,0 l/m 2,5 km/h (1 Bft) S-SW 202 0 min 0,000 mm 0,0 UV-I 51 W/m 9,7 C 10,8 C 4,8 km/h (1 Bft) 100,00 %
16.05.2017 06:14 10,8 C 19,4 C 93 % 1028,8 hPa 0,0 l/m 2,5 km/h (1 Bft) S-SW 202 0 min 0,000 mm 0,0 UV-I 57 W/m 9,7 C 10,8 C 4,8 km/h (1 Bft) 100,00 %
16.05.2017 06:16 10,8 C 19,4 C 93 % 1028,7 hPa 0,0 l/m 1,4 km/h (1 Bft) S-SW 202 0 min 0,000 mm 0,0 UV-I 60 W/m 9,7 C 10,8 C 3,2 km/h (1 Bft) 100,00 %
16.05.2017 06:18 10,8 C 19,4 C 93 % 1028,7 hPa 0,0 l/m 1,9 km/h (1 Bft) S-SW 202 0 min 0,000 mm 0,0 UV-I 60 W/m 9,7 C 10,8 C 4,8 km/h (1 Bft) 96,23 %
16.05.2017 06:20 10,7 C 19,4 C 93 % 1028,7 hPa 0,0 l/m 2,2 km/h (1 Bft) S-SW 202 0 min 0,000 mm 0,0 UV-I 60 W/m 9,6 C 10,7 C 4,8 km/h (1 Bft) 98,00 %
16.05.2017 06:22 10,7 C 19,4 C 93 % 1028,8 hPa 0,0 l/m 3,4 km/h (1 Bft) S-SW 202 0 min 0,000 mm 0,0 UV-I 60 W/m 9,6 C 10,7 C 4,8 km/h (1 Bft) 94,74 %
16.05.2017 06:24 10,8 C 19,4 C 93 % 1028,8 hPa 0,0 l/m 3,3 km/h (1 Bft) S-SW 202 0 min 0,000 mm 0,0 UV-I 61 W/m 9,7 C 10,8 C 4,8 km/h (1 Bft) 97,87 %
16.05.2017 06:26 10,8 C 19,4 C 93 % 1028,8 hPa 0,0 l/m 3,6 km/h (1 Bft) S-SW 202 0 min 0,000 mm 0,0 UV-I 62 W/m 9,7 C 10,8 C 6,4 km/h (2 Bft) 100,00 %
16.05.2017 06:28 10,8 C 19,4 C 94 % 1028,8 hPa 0,0 l/m 4,5 km/h (1 Bft) S-SW 202 0 min 0,000 mm 0,0 UV-I 62 W/m 9,9 C 10,8 C 6,4 km/h (2 Bft) 100,00 %
16.05.2017 06:30 10,8 C 19,4 C 93 % 1028,7 hPa 0,0 l/m 3,7 km/h (1 Bft) S-SW 202 0 min 0,000 mm 0,0 UV-I 62 W/m 9,7 C 10,8 C 4,8 km/h (1 Bft) 97,22 %
16.05.2017 06:32 10,8 C 19,4 C 94 % 1028,8 hPa 0,0 l/m 4,1 km/h (1 Bft) S-SW 202 0 min 0,000 mm 0,0 UV-I 61 W/m 9,9 C 10,8 C 6,4 km/h (2 Bft) 100,00 %
16.05.2017 06:34 10,9 C 19,4 C 93 % 1028,8 hPa 0,0 l/m 3,5 km/h (1 Bft) S-SW 202 0 min 0,000 mm 0,0 UV-I 60 W/m 9,8 C 10,9 C 4,8 km/h (1 Bft) 98,11 %
16.05.2017 06:36 10,9 C 19,4 C 93 % 1028,8 hPa 0,0 l/m 3,2 km/h (1 Bft) S-SW 202 0 min 0,000 mm 0,0 UV-I 60 W/m 9,8 C 10,9 C 6,4 km/h (2 Bft) 97,87 %
16.05.2017 06:38 10,9 C 19,4 C 93 % 1028,8 hPa 0,0 l/m 3,1 km/h (1 Bft) S-SW 202 0 min 0,000 mm 0,0 UV-I 62 W/m 9,8 C 10,9 C 4,8 km/h (1 Bft) 97,56 %
16.05.2017 06:40 11,0 C 19,4 C 93 % 1028,8 hPa 0,0 l/m 3,3 km/h (1 Bft) S-SW 202 0 min 0,000 mm 0,0 UV-I 63 W/m 9,9 C 11,0 C 4,8 km/h (1 Bft) 96,00 %
16.05.2017 06:42 11,0 C 19,4 C 93 % 1028,9 hPa 0,0 l/m 2,3 km/h (1 Bft) S-SW 202 0 min 0,000 mm 0,0 UV-I 65 W/m 9,9 C 11,0 C 4,8 km/h (1 Bft) 95,74 %
16.05.2017 06:44 11,0 C 19,4 C 93 % 1028,9 hPa 0,0 l/m 3,3 km/h (1 Bft) S-SW 201 0 min 0,000 mm 0,0 UV-I 69 W/m 9,9 C 11,0 C 4,8 km/h (1 Bft) 96,00 %
16.05.2017 06:46 11,0 C 19,4 C 93 % 1028,9 hPa 0,0 l/m 2,6 km/h (1 Bft) S-SW 201 0 min 0,000 mm 0,0 UV-I 72 W/m 9,9 C 11,0 C 4,8 km/h (1 Bft) 95,12 %
16.05.2017 06:48 10,9 C 19,4 C 93 % 1028,9 hPa 0,0 l/m 2,8 km/h (1 Bft) S-SW 201 0 min 0,000 mm 0,0 UV-I 74 W/m 9,8 C 10,9 C 4,8 km/h (1 Bft) 95,74 %
16.05.2017 06:50 10,9 C 19,4 C 93 % 1028,9 hPa 0,0 l/m 2,3 km/h (1 Bft) S-SW 201 0 min 0,000 mm 0,0 UV-I 76 W/m 9,8 C 10,9 C 4,8 km/h (1 Bft) 95,83 %
16.05.2017 06:52 11,0 C 19,4 C 93 % 1028,9 hPa 0,0 l/m 2,2 km/h (1 Bft) S-SW 201 0 min 0,000 mm 0,0 UV-I 76 W/m 9,9 C 11,0 C 4,8 km/h (1 Bft) 98,00 %
16.05.2017 06:54 11,1 C 19,4 C 93 % 1028,9 hPa 0,0 l/m 0,4 km/h (0 Bft) S-SW 201 0 min 0,000 mm 0,0 UV-I 77 W/m 10,0 C 11,1 C 1,6 km/h (1 Bft) 95,74 %
16.05.2017 06:56 11,1 C 19,4 C 93 % 1028,9 hPa 0,0 l/m 0,4 km/h (0 Bft) S-SW 201 0 min 0,000 mm 0,0 UV-I 80 W/m 10,0 C 11,1 C 1,6 km/h (1 Bft) 91,49 %
16.05.2017 06:58 11,1 C 19,4 C 93 % 1028,9 hPa 0,0 l/m 0,0 km/h (0 Bft) S-SW 201 0 min 0,000 mm 0,0 UV-I 86 W/m 10,0 C 11,1 C 0,0 km/h (0 Bft) 92,00 %
16.05.2017 07:00 11,0 C 19,4 C 93 % 1029,0 hPa 0,0 l/m 0,0 km/h (0 Bft) S-SW 201 0 min 0,000 mm 0,0 UV-I 100 W/m 9,9 C 11,0 C 1,6 km/h (1 Bft) 94,44 %
16.05.2017 07:02 11,0 C 19,4 C 93 % 1028,9 hPa 0,0 l/m 0,3 km/h (0 Bft) S-SW 201 0 min 0,025 mm 0,0 UV-I 135 W/m 9,9 C 11,0 C 1,6 km/h (1 Bft) 94,34 %
16.05.2017 07:04 11,1 C 19,4 C 93 % 1028,9 hPa 0,0 l/m 0,0 km/h (0 Bft) S-SW 201 0 min 0,000 mm 0,0 UV-I 106 W/m 10,0 C 11,1 C 0,0 km/h (0 Bft) 89,47 %
16.05.2017 07:06 11,1 C 19,4 C 93 % 1028,9 hPa 0,0 l/m 0,0 km/h (0 Bft) S-SW 201 0 min 0,000 mm 0,0 UV-I 97 W/m 10,0 C 11,1 C 0,0 km/h (0 Bft) 89,47 %
16.05.2017 07:08 11,2 C 19,4 C 93 % 1029,0 hPa 0,0 l/m 0,0 km/h (0 Bft) S-SW 201 0 min 0,000 mm 0,0 UV-I 110 W/m 10,1 C 11,2 C 0,0 km/h (0 Bft) 92,31 %
16.05.2017 07:10 11,3 C 19,4 C 93 % 1029,0 hPa 0,0 l/m 0,0 km/h (0 Bft) S-SW 201 2 min 0,000 mm 0,0 UV-I 183 W/m 10,2 C 11,3 C 0,0 km/h (0 Bft) 91,49 %
16.05.2017 07:12 11,3 C 19,4 C 92 % 1029,0 hPa 0,0 l/m 0,0 km/h (0 Bft) S-SW 201 2 min 0,000 mm 0,0 UV-I 221 W/m 10,0 C 11,3 C 0,0 km/h (0 Bft) 100,00 %
16.05.2017 07:14 11,4 C 19,4 C 92 % 1029,0 hPa 0,0 l/m 0,0 km/h (0 Bft) S-SW 201 2 min 0,000 mm 0,0 UV-I 243 W/m 10,1 C 11,4 C 0,0 km/h (0 Bft) 93,62 %
16.05.2017 07:16 11,5 C 19,4 C 92 % 1029,1 hPa 0,0 l/m 0,0 km/h (0 Bft) S-SW 201 2 min 0,000 mm 0,0 UV-I 249 W/m 10,2 C 11,5 C 0,0 km/h (0 Bft) 90,00 %
16.05.2017 07:18 11,7 C 19,4 C 92 % 1029,0 hPa 0,0 l/m 0,3 km/h (0 Bft) S-SW 201 2 min 0,000 mm 0,0 UV-I 245 W/m 10,4 C 11,7 C 1,6 km/h (1 Bft) 98,00 %
16.05.2017 07:20 11,9 C 19,4 C 92 % 1029,0 hPa 0,0 l/m 0,2 km/h (0 Bft) S-SW 201 2 min 0,000 mm 0,0 UV-I 245 W/m 10,6 C 11,9 C 1,6 km/h (1 Bft) 97,37 %
16.05.2017 07:22 12,1 C 19,4 C 91 % 1029,1 hPa 0,0 l/m 1,7 km/h (1 Bft) S-SW 201 2 min 0,000 mm 0,0 UV-I 242 W/m 10,7 C 12,1 C 3,2 km/h (1 Bft) 96,30 %
16.05.2017 07:24 12,3 C 19,4 C 91 % 1029,1 hPa 0,0 l/m 1,0 km/h (0 Bft) S-SW 201 2 min 0,000 mm 0,0 UV-I 238 W/m 10,9 C 12,3 C 3,2 km/h (1 Bft) 93,62 %
16.05.2017 07:26 12,4 C 19,4 C 91 % 1029,1 hPa 0,0 l/m 2,7 km/h (1 Bft) S-SW 201 2 min 0,000 mm 0,2 UV-I 257 W/m 11,0 C 12,4 C 3,2 km/h (1 Bft) 94,87 %
16.05.2017 07:28 12,4 C 19,4 C 90 % 1029,1 hPa 0,0 l/m 3,2 km/h (1 Bft) S-SW 201 2 min 0,000 mm 0,5 UV-I 267 W/m 10,8 C 12,4 C 4,8 km/h (1 Bft) 96,00 %
16.05.2017 07:30 12,5 C 19,4 C 90 % 1029,0 hPa 0,0 l/m 3,4 km/h (1 Bft) S-SW 213 2 min 0,000 mm 0,5 UV-I 276 W/m 10,9 C 12,5 C 4,8 km/h (1 Bft) 93,62 %
16.05.2017 07:32 12,6 C 19,4 C 89 % 1029,0 hPa 0,0 l/m 4,3 km/h (1 Bft) S-SW 213 2 min 0,000 mm 0,5 UV-I 296 W/m 10,8 C 12,6 C 6,4 km/h (2 Bft) 96,00 %
16.05.2017 07:34 12,7 C 19,4 C 90 % 1029,0 hPa 0,0 l/m 3,7 km/h (1 Bft) SW 221 2 min 0,000 mm 0,5 UV-I 288 W/m 11,1 C 12,7 C 6,4 km/h (2 Bft) 97,37 %
16.05.2017 07:36 12,8 C 19,4 C 89 % 1029,0 hPa 0,0 l/m 4,5 km/h (1 Bft) SW 219 2 min 0,000 mm 0,6 UV-I 291 W/m 11,0 C 12,8 C 6,4 km/h (2 Bft) 96,77 %
16.05.2017 07:38 13,0 C 19,4 C 89 % 1029,1 hPa 0,0 l/m 3,7 km/h (1 Bft) S-SW 205 2 min 0,000 mm 0,6 UV-I 304 W/m 11,2 C 13,0 C 6,4 km/h (2 Bft) 97,37 %
16.05.2017 07:40 13,1 C 19,4 C 89 % 1029,1 hPa 0,0 l/m 6,2 km/h (2 Bft) S-SW 205 2 min 0,000 mm 0,6 UV-I 311 W/m 11,3 C 13,1 C 8,0 km/h (2 Bft) 97,73 %
16.05.2017 07:42 13,2 C 19,4 C 88 % 1029,0 hPa 0,0 l/m 3,6 km/h (1 Bft) S-SW 210 2 min 0,000 mm 0,6 UV-I 316 W/m 11,3 C 13,2 C 6,4 km/h (2 Bft) 94,00 %
16.05.2017 07:44 13,3 C 19,4 C 88 % 1029,1 hPa 0,0 l/m 5,5 km/h (1 Bft) S-SW 211 2 min 0,000 mm 0,6 UV-I 319 W/m 11,4 C 13,3 C 9,7 km/h (2 Bft) 98,11 %
16.05.2017 07:46 13,3 C 19,4 C 87 % 1029,1 hPa 0,0 l/m 5,4 km/h (1 Bft) SW 236 2 min 0,000 mm 0,7 UV-I 327 W/m 11,2 C 13,3 C 8,0 km/h (2 Bft) 97,56 %
16.05.2017 07:48 13,4 C 19,4 C 86 % 1029,1 hPa 0,0 l/m 4,8 km/h (1 Bft) SW 234 2 min 0,000 mm 0,7 UV-I 334 W/m 11,1 C 13,4 C 8,0 km/h (2 Bft) 98,00 %
16.05.2017 07:50 13,4 C 19,4 C 86 % 1029,1 hPa 0,0 l/m 4,4 km/h (1 Bft) SW 234 2 min 0,000 mm 0,7 UV-I 332 W/m 11,1 C 13,4 C 6,4 km/h (2 Bft) 96,00 %
16.05.2017 07:52 13,6 C 19,4 C 86 % 1029,1 hPa 0,0 l/m 2,5 km/h (1 Bft) SW 234 2 min 0,000 mm 0,7 UV-I 329 W/m 11,3 C 13,6 C 4,8 km/h (1 Bft) 97,37 %
16.05.2017 07:54 13,6 C 19,4 C 85 % 1029,1 hPa 0,0 l/m 4,3 km/h (1 Bft) SW 234 2 min 0,000 mm 0,7 UV-I 324 W/m 11,1 C 13,6 C 6,4 km/h (2 Bft) 96,23 %
16.05.2017 07:56 13,6 C 19,4 C 85 % 1029,1 hPa 0,0 l/m 2,8 km/h (1 Bft) SW 234 2 min 0,000 mm 0,8 UV-I 344 W/m 11,1 C 13,6 C 4,8 km/h (1 Bft) 94,00 %
16.05.2017 07:58 13,7 C 19,4 C 86 % 1029,1 hPa 0,0 l/m 4,4 km/h (1 Bft) SW 224 2 min 0,000 mm 0,8 UV-I 336 W/m 11,4 C 13,7 C 6,4 km/h (2 Bft) 100,00 %
16.05.2017 08:00 13,7 C 19,4 C 86 % 1029,1 hPa 0,0 l/m 4,9 km/h (1 Bft) SW 224 2 min 0,127 mm 0,8 UV-I 339 W/m 11,4 C 13,7 C 6,4 km/h (2 Bft) 97,87 %
16.05.2017 08:02 13,7 C 19,4 C 85 % 1029,2 hPa 0,0 l/m 4,1 km/h (1 Bft) SW 224 2 min 0,000 mm 0,8 UV-I 340 W/m 11,2 C 13,7 C 6,4 km/h (2 Bft) 100,00 %
16.05.2017 08:04 13,7 C 19,4 C 86 % 1029,2 hPa 0,0 l/m 2,3 km/h (1 Bft) SW 224 2 min 0,000 mm 0,8 UV-I 351 W/m 11,4 C 13,7 C 4,8 km/h (1 Bft) 98,00 %
16.05.2017 08:06 13,8 C 19,4 C 85 % 1029,2 hPa 0,0 l/m 3,7 km/h (1 Bft) SW 224 2 min 0,000 mm 0,9 UV-I 362 W/m 11,3 C 13,8 C 6,4 km/h (2 Bft) 97,87 %
16.05.2017 08:08 13,8 C 19,4 C 85 % 1029,2 hPa 0,0 l/m 3,4 km/h (1 Bft) SW 224 2 min 0,000 mm 0,9 UV-I 373 W/m 11,3 C 13,8 C 6,4 km/h (2 Bft) 100,00 %
16.05.2017 08:10 13,9 C 19,4 C 86 % 1029,2 hPa 0,0 l/m 3,7 km/h (1 Bft) SW 224 2 min 0,000 mm 0,9 UV-I 381 W/m 11,6 C 13,9 C 4,8 km/h (1 Bft) 97,92 %
16.05.2017 08:12 14,0 C 19,4 C 85 % 1029,2 hPa 0,0 l/m 3,2 km/h (1 Bft) SW 225 2 min 0,000 mm 1,0 UV-I 380 W/m 11,5 C 14,0 C 4,8 km/h (1 Bft) 97,87 %
16.05.2017 08:14 14,1 C 19,4 C 84 % 1029,2 hPa 0,0 l/m 1,1 km/h (1 Bft) SW 225 2 min 0,000 mm 1,0 UV-I 386 W/m 11,4 C 14,1 C 3,2 km/h (1 Bft) 100,00 %
16.05.2017 08:16 14,1 C 19,4 C 84 % 1029,2 hPa 0,0 l/m 3,2 km/h (1 Bft) SW 225 2 min 0,000 mm 1,0 UV-I 395 W/m 11,4 C 14,1 C 6,4 km/h (2 Bft) 97,87 %
16.05.2017 08:18 14,2 C 19,4 C 84 % 1029,3 hPa 0,0 l/m 1,9 km/h (1 Bft) SW 225 2 min 0,000 mm 1,1 UV-I 406 W/m 11,5 C 14,2 C 3,2 km/h (1 Bft) 98,11 %
16.05.2017 08:20 14,3 C 19,4 C 85 % 1029,3 hPa 0,0 l/m 3,0 km/h (1 Bft) SW 225 2 min 0,000 mm 1,1 UV-I 415 W/m 11,8 C 14,3 C 4,8 km/h (1 Bft) 97,37 %
16.05.2017 08:22 14,3 C 19,4 C 83 % 1029,3 hPa 0,0 l/m 4,6 km/h (1 Bft) W-SW 238 2 min 0,000 mm 1,1 UV-I 409 W/m 11,5 C 14,3 C 6,4 km/h (2 Bft) 95,74 %
16.05.2017 08:24 14,3 C 19,4 C 82 % 1029,2 hPa 0,0 l/m 4,8 km/h (1 Bft) W-SW 245 2 min 0,000 mm 1,2 UV-I 425 W/m 11,3 C 14,3 C 6,4 km/h (2 Bft) 100,00 %
16.05.2017 08:26 14,4 C 19,4 C 83 % 1029,2 hPa 0,0 l/m 3,7 km/h (1 Bft) W-SW 245 2 min 0,000 mm 1,2 UV-I 436 W/m 11,5 C 14,4 C 6,4 km/h (2 Bft) 96,23 %
16.05.2017 08:28 14,6 C 19,4 C 85 % 1029,2 hPa 0,0 l/m 3,4 km/h (1 Bft) W-SW 244 2 min 0,000 mm 1,2 UV-I 441 W/m 12,1 C 14,6 C 4,8 km/h (1 Bft) 100,00 %
16.05.2017 08:30 14,8 C 19,4 C 85 % 1029,2 hPa 0,0 l/m 2,7 km/h (1 Bft) W-SW 248 2 min 0,000 mm 1,3 UV-I 446 W/m 12,3 C 14,8 C 4,8 km/h (1 Bft) 95,74 %
16.05.2017 08:32 14,9 C 19,4 C 83 % 1029,2 hPa 0,0 l/m 0,8 km/h (0 Bft) W-SW 248 2 min 0,000 mm 1,3 UV-I 455 W/m 12,0 C 14,9 C 3,2 km/h (1 Bft) 97,87 %
16.05.2017 08:34 14,9 C 19,4 C 84 % 1029,3 hPa 0,0 l/m 1,8 km/h (1 Bft) W-SW 248 2 min 0,000 mm 1,3 UV-I 461 W/m 12,2 C 14,9 C 3,2 km/h (1 Bft) 98,11 %
16.05.2017 08:36 14,9 C 19,4 C 82 % 1029,2 hPa 0,0 l/m 3,5 km/h (1 Bft) W-SW 248 2 min 0,000 mm 1,4 UV-I 467 W/m 11,9 C 14,9 C 6,4 km/h (2 Bft) 97,56 %
16.05.2017 08:38 14,9 C 19,4 C 80 % 1029,2 hPa 0,0 l/m 3,6 km/h (1 Bft) W 266 2 min 0,000 mm 1,4 UV-I 473 W/m 11,5 C 14,9 C 6,4 km/h (2 Bft) 98,00 %
16.05.2017 08:40 14,9 C 19,4 C 80 % 1029,2 hPa 0,0 l/m 2,3 km/h (1 Bft) W 266 2 min 0,000 mm 1,5 UV-I 475 W/m 11,5 C 14,9 C 4,8 km/h (1 Bft) 97,37 %
16.05.2017 08:42 14,9 C 19,4 C 80 % 1029,2 hPa 0,0 l/m 2,8 km/h (1 Bft) W 267 2 min 0,000 mm 1,5 UV-I 479 W/m 11,5 C 14,9 C 4,8 km/h (1 Bft) 92,45 %
16.05.2017 08:44 14,9 C 20,0 C 80 % 1029,2 hPa 0,0 l/m 0,5 km/h (0 Bft) W 267 2 min 0,000 mm 1,5 UV-I 484 W/m 11,5 C 14,9 C 1,6 km/h (1 Bft) 97,44 %
16.05.2017 08:46 15,2 C 20,0 C 81 % 1029,2 hPa 0,0 l/m 0,3 km/h (0 Bft) W 267 2 min 0,000 mm 1,6 UV-I 491 W/m 12,0 C 15,2 C 1,6 km/h (1 Bft) 94,00 %
16.05.2017 08:48 15,4 C 20,0 C 82 % 1029,2 hPa 0,0 l/m 0,9 km/h (0 Bft) W 267 2 min 0,000 mm 1,6 UV-I 497 W/m 12,3 C 15,4 C 3,2 km/h (1 Bft) 98,00 %
16.05.2017 08:50 15,5 C 20,0 C 80 % 1029,2 hPa 0,0 l/m 0,8 km/h (0 Bft) W 267 2 min 0,000 mm 1,6 UV-I 486 W/m 12,1 C 15,5 C 1,6 km/h (1 Bft) 97,37 %
16.05.2017 08:52 15,3 C 20,0 C 80 % 1029,2 hPa 0,0 l/m 0,0 km/h (0 Bft) W 267 2 min 0,000 mm 1,7 UV-I 472 W/m 11,9 C 15,3 C 0,0 km/h (0 Bft) 96,30 %
16.05.2017 08:54 15,3 C 20,0 C 80 % 1029,2 hPa 0,0 l/m 0,3 km/h (0 Bft) W 267 2 min 0,000 mm 1,7 UV-I 480 W/m 11,9 C 15,3 C 1,6 km/h (1 Bft) 95,74 %
16.05.2017 08:56 15,4 C 20,0 C 81 % 1029,3 hPa 0,0 l/m 1,4 km/h (1 Bft) W 267 2 min 0,000 mm 1,7 UV-I 489 W/m 12,2 C 15,4 C 4,8 km/h (1 Bft) 96,00 %
16.05.2017 08:58 15,4 C 20,0 C 82 % 1029,3 hPa 0,0 l/m 1,2 km/h (1 Bft) W 267 2 min 0,000 mm 1,8 UV-I 516 W/m 12,3 C 15,4 C 3,2 km/h (1 Bft) 96,23 %
16.05.2017 09:00 15,7 C 20,0 C 83 % 1029,3 hPa 0,0 l/m 0,7 km/h (0 Bft) W 277 2 min 0,229 mm 1,8 UV-I 517 W/m 12,8 C 15,7 C 3,2 km/h (1 Bft) 95,45 %
16.05.2017 09:02 15,7 C 20,0 C 79 % 1029,3 hPa 0,0 l/m 0,1 km/h (0 Bft) W 277 2 min 0,000 mm 1,9 UV-I 535 W/m 12,1 C 15,7 C 1,6 km/h (1 Bft) 96,00 %
16.05.2017 09:04 15,8 C 20,0 C 80 % 1029,4 hPa 0,0 l/m 1,0 km/h (0 Bft) W 277 2 min 0,000 mm 1,9 UV-I 533 W/m 12,4 C 15,8 C 3,2 km/h (1 Bft) 100,00 %
16.05.2017 09:06 15,9 C 20,0 C 80 % 1029,3 hPa 0,0 l/m 1,0 km/h (0 Bft) W-NW 296 2 min 0,000 mm 1,9 UV-I 534 W/m 12,5 C 15,9 C 3,2 km/h (1 Bft) 100,00 %
16.05.2017 09:08 15,9 C 20,0 C 78 % 1029,3 hPa 0,0 l/m 1,5 km/h (1 Bft) W-NW 298 2 min 0,000 mm 1,9 UV-I 536 W/m 12,1 C 15,9 C 3,2 km/h (1 Bft) 100,00 %
16.05.2017 09:10 15,9 C 20,0 C 78 % 1029,3 hPa 0,0 l/m 2,3 km/h (1 Bft) W-NW 296 2 min 0,000 mm 2,0 UV-I 533 W/m 12,1 C 15,9 C 4,8 km/h (1 Bft) 97,87 %
16.05.2017 09:12 15,8 C 20,0 C 76 % 1029,3 hPa 0,0 l/m 3,4 km/h (1 Bft) W-NW 296 2 min 0,000 mm 2,0 UV-I 542 W/m 11,6 C 15,8 C 4,8 km/h (1 Bft) 100,00 %
16.05.2017 09:14 15,8 C 20,0 C 77 % 1029,3 hPa 0,0 l/m 3,0 km/h (1 Bft) W-NW 294 2 min 0,000 mm 2,1 UV-I 526 W/m 11,8 C 15,8 C 6,4 km/h (2 Bft) 96,23 %
16.05.2017 09:16 15,8 C 20,0 C 78 % 1029,2 hPa 0,0 l/m 2,4 km/h (1 Bft) W-NW 290 2 min 0,000 mm 2,1 UV-I 535 W/m 12,0 C 15,8 C 6,4 km/h (2 Bft) 100,00 %
16.05.2017 09:18 15,8 C 20,0 C 78 % 1029,3 hPa 0,0 l/m 0,6 km/h (0 Bft) W-NW 290 2 min 0,000 mm 2,0 UV-I 451 W/m 12,0 C 15,8 C 3,2 km/h (1 Bft) 98,51 %
16.05.2017 09:20 15,9 C 20,0 C 80 % 1029,2 hPa 0,0 l/m 1,4 km/h (1 Bft) W-NW 290 2 min 0,000 mm 2,1 UV-I 482 W/m 12,5 C 15,9 C 3,2 km/h (1 Bft) 100,00 %
16.05.2017 09:22 15,9 C 20,0 C 78 % 1029,2 hPa 0,0 l/m 2,1 km/h (1 Bft) W-NW 290 2 min 0,000 mm 2,1 UV-I 505 W/m 12,1 C 15,9 C 4,8 km/h (1 Bft) 96,00 %
16.05.2017 09:24 15,9 C 20,0 C 76 % 1029,2 hPa 0,0 l/m 1,2 km/h (1 Bft) W-NW 290 2 min 0,000 mm 2,2 UV-I 523 W/m 11,7 C 15,9 C 3,2 km/h (1 Bft) 100,00 %
16.05.2017 09:26 16,0 C 20,0 C 77 % 1029,1 hPa 0,0 l/m 0,6 km/h (0 Bft) W-NW 290 2 min 0,000 mm 2,4 UV-I 586 W/m 12,0 C 16,0 C 3,2 km/h (1 Bft) 100,00 %
16.05.2017 09:28 16,1 C 20,0 C 78 % 1029,2 hPa 0,0 l/m 1,1 km/h (1 Bft) W-NW 290 2 min 0,000 mm 2,4 UV-I 599 W/m 12,3 C 16,1 C 3,2 km/h (1 Bft) 100,00 %
16.05.2017 09:30 16,2 C 20,0 C 78 % 1029,1 hPa 0,0 l/m 1,5 km/h (1 Bft) W-NW 290 2 min 0,000 mm 2,4 UV-I 604 W/m 12,4 C 16,2 C 3,2 km/h (1 Bft) 100,00 %
16.05.2017 09:32 16,3 C 20,0 C 78 % 1029,2 hPa 0,0 l/m 1,7 km/h (1 Bft) W-NW 290 2 min 0,000 mm 2,5 UV-I 626 W/m 12,5 C 16,3 C 3,2 km/h (1 Bft) 100,00 %
16.05.2017 09:34 16,4 C 20,0 C 77 % 1029,2 hPa 0,0 l/m 1,7 km/h (1 Bft) N-NO 22 2 min 0,000 mm 2,5 UV-I 623 W/m 12,4 C 16,4 C 6,4 km/h (2 Bft) 100,00 %
16.05.2017 09:36 16,5 C 20,0 C 79 % 1029,1 hPa 0,0 l/m 3,2 km/h (1 Bft) N-NO 22 2 min 0,000 mm 2,6 UV-I 623 W/m 12,8 C 16,5 C 4,8 km/h (1 Bft) 100,00 %
16.05.2017 09:38 16,7 C 20,0 C 80 % 1029,1 hPa 0,0 l/m 1,6 km/h (1 Bft) N-NO 21 2 min 0,000 mm 2,6 UV-I 629 W/m 13,2 C 16,7 C 3,2 km/h (1 Bft) 100,00 %
16.05.2017 09:40 16,8 C 20,0 C 80 % 1029,1 hPa 0,0 l/m 2,2 km/h (1 Bft) N-NO 20 2 min 0,000 mm 2,7 UV-I 640 W/m 13,3 C 16,8 C 6,4 km/h (2 Bft) 100,00 %
16.05.2017 09:42 17,0 C 20,0 C 78 % 1029,1 hPa 0,0 l/m 3,4 km/h (1 Bft) N-NW 327 2 min 0,000 mm 2,7 UV-I 643 W/m 13,1 C 17,0 C 8,0 km/h (2 Bft) 100,00 %
16.05.2017 09:44 17,1 C 20,0 C 76 % 1029,1 hPa 0,0 l/m 3,7 km/h (1 Bft) W 269 2 min 0,000 mm 2,8 UV-I 649 W/m 12,8 C 17,1 C 4,8 km/h (1 Bft) 100,00 %
16.05.2017 09:46 17,0 C 20,0 C 77 % 1029,1 hPa 0,0 l/m 3,4 km/h (1 Bft) W 269 2 min 0,000 mm 2,8 UV-I 641 W/m 12,9 C 17,0 C 4,8 km/h (1 Bft) 96,15 %
16.05.2017 09:48 17,1 C 20,0 C 79 % 1029,1 hPa 0,0 l/m 0,9 km/h (0 Bft) NW 319 2 min 0,000 mm 2,8 UV-I 629 W/m 13,4 C 17,1 C 3,2 km/h (1 Bft) 98,46 %
16.05.2017 09:50 16,9 C 20,0 C 75 % 1029,1 hPa 0,0 l/m 2,5 km/h (1 Bft) NW 323 2 min 0,000 mm 2,8 UV-I 639 W/m 12,4 C 16,9 C 4,8 km/h (1 Bft) 100,00 %
16.05.2017 09:52 16,7 C 20,0 C 76 % 1029,1 hPa 0,0 l/m 2,0 km/h (1 Bft) N-NW 340 2 min 0,000 mm 2,9 UV-I 649 W/m 12,4 C 16,7 C 3,2 km/h (1 Bft) 100,00 %
16.05.2017 09:54 16,8 C 20,0 C 76 % 1029,1 hPa 0,0 l/m 2,3 km/h (1 Bft) N-NW 342 2 min 0,000 mm 3,0 UV-I 669 W/m 12,5 C 16,8 C 4,8 km/h (1 Bft) 100,00 %
16.05.2017 09:56 16,8 C 20,0 C 78 % 1029,1 hPa 0,0 l/m 0,8 km/h (0 Bft) N-NW 342 2 min 0,000 mm 3,0 UV-I 649 W/m 12,9 C 16,8 C 3,2 km/h (1 Bft) 100,00 %
16.05.2017 09:58 16,9 C 20,0 C 77 % 1029,1 hPa 0,0 l/m 0,4 km/h (0 Bft) N-NW 341 2 min 0,000 mm 3,1 UV-I 680 W/m 12,8 C 16,9 C 1,6 km/h (1 Bft) 100,00 %
16.05.2017 10:00 16,9 C 20,0 C 76 % 1029,1 hPa 0,0 l/m 1,1 km/h (1 Bft) W 265 2 min 0,330 mm 3,1 UV-I 683 W/m 12,6 C 16,9 C 4,8 km/h (1 Bft) 98,00 %
16.05.2017 10:02 17,1 C 20,0 C 78 % 1029,1 hPa 0,0 l/m 2,7 km/h (1 Bft) S 181 2 min 0,000 mm 3,2 UV-I 689 W/m 13,2 C 17,1 C 4,8 km/h (1 Bft) 100,00 %
16.05.2017 10:04 17,2 C 20,0 C 77 % 1029,1 hPa 0,0 l/m 0,8 km/h (0 Bft) S 180 2 min 0,000 mm 3,2 UV-I 683 W/m 13,1 C 17,2 C 3,2 km/h (1 Bft) 100,00 %
16.05.2017 10:06 17,3 C 20,0 C 74 % 1029,1 hPa 0,0 l/m 3,0 km/h (1 Bft) W 277 2 min 0,000 mm 3,3 UV-I 701 W/m 12,6 C 17,3 C 6,4 km/h (2 Bft) 100,00 %
16.05.2017 10:08 17,3 C 20,0 C 76 % 1029,1 hPa 0,0 l/m 2,9 km/h (1 Bft) W 277 2 min 0,000 mm 3,3 UV-I 702 W/m 13,0 C 17,3 C 6,4 km/h (2 Bft) 100,00 %
16.05.2017 10:10 17,3 C 20,0 C 71 % 1029,1 hPa 0,0 l/m 0,7 km/h (0 Bft) W 277 2 min 0,000 mm 3,3 UV-I 692 W/m 12,0 C 17,3 C 3,2 km/h (1 Bft) 97,87 %
16.05.2017 10:12 17,4 C 20,0 C 76 % 1029,0 hPa 0,0 l/m 1,1 km/h (1 Bft) W 277 2 min 0,000 mm 3,4 UV-I 696 W/m 13,1 C 17,4 C 3,2 km/h (1 Bft) 100,00 %
16.05.2017 10:14 17,5 C 20,0 C 75 % 1029,0 hPa 0,0 l/m 2,2 km/h (1 Bft) S 188 2 min 0,000 mm 3,4 UV-I 698 W/m 13,0 C 17,5 C 4,8 km/h (1 Bft) 100,00 %
16.05.2017 10:16 17,6 C 20,0 C 74 % 1029,0 hPa 0,0 l/m 2,3 km/h (1 Bft) S-SO 165 2 min 0,000 mm 3,5 UV-I 713 W/m 12,9 C 17,6 C 6,4 km/h (2 Bft) 98,00 %
16.05.2017 10:18 17,7 C 20,0 C 77 % 1029,1 hPa 0,0 l/m 1,0 km/h (0 Bft) S-SO 165 2 min 0,000 mm 3,5 UV-I 714 W/m 13,6 C 17,7 C 3,2 km/h (1 Bft) 98,00 %
16.05.2017 10:20 17,7 C 20,0 C 71 % 1029,0 hPa 0,0 l/m 3,6 km/h (1 Bft) W-SW 251 2 min 0,000 mm 3,6 UV-I 722 W/m 12,4 C 17,7 C 6,4 km/h (2 Bft) 100,00 %
16.05.2017 10:22 17,6 C 20,0 C 71 % 1029,0 hPa 0,0 l/m 3,5 km/h (1 Bft) SW 214 2 min 0,000 mm 3,6 UV-I 722 W/m 12,3 C 17,6 C 6,4 km/h (2 Bft) 98,00 %
16.05.2017 10:24 17,8 C 20,0 C 75 % 1029,0 hPa 0,0 l/m 4,7 km/h (1 Bft) S-SW 204 2 min 0,000 mm 3,6 UV-I 735 W/m 13,3 C 17,8 C 6,4 km/h (2 Bft) 97,56 %
16.05.2017 10:26 17,7 C 20,0 C 71 % 1029,0 hPa 0,0 l/m 3,8 km/h (1 Bft) S-SW 202 2 min 0,000 mm 3,7 UV-I 747 W/m 12,4 C 17,7 C 8,0 km/h (2 Bft) 96,00 %
16.05.2017 10:28 17,7 C 20,0 C 71 % 1029,0 hPa 0,0 l/m 3,3 km/h (1 Bft) W 262 2 min 0,000 mm 3,8 UV-I 752 W/m 12,4 C 17,7 C 4,8 km/h (1 Bft) 100,00 %
16.05.2017 10:30 17,6 C 20,0 C 70 % 1029,0 hPa 0,0 l/m 1,2 km/h (1 Bft) W 262 2 min 0,000 mm 3,8 UV-I 758 W/m 12,1 C 17,6 C 3,2 km/h (1 Bft) 96,00 %
16.05.2017 10:32 17,4 C 20,0 C 71 % 1029,0 hPa 0,0 l/m 0,4 km/h (0 Bft) W 262 2 min 0,000 mm 3,8 UV-I 749 W/m 12,1 C 17,4 C 1,6 km/h (1 Bft) 93,62 %
16.05.2017 10:34 17,7 C 20,0 C 75 % 1029,0 hPa 0,0 l/m 2,0 km/h (1 Bft) W 272 2 min 0,000 mm 3,8 UV-I 745 W/m 13,2 C 17,7 C 6,4 km/h (2 Bft) 96,00 %
16.05.2017 10:36 17,7 C 20,0 C 70 % 1029,0 hPa 0,0 l/m 2,6 km/h (1 Bft) W 273 2 min 0,000 mm 3,9 UV-I 753 W/m 12,2 C 17,7 C 6,4 km/h (2 Bft) 95,45 %
16.05.2017 10:38 17,7 C 20,0 C 72 % 1029,0 hPa 0,0 l/m 1,0 km/h (0 Bft) W 273 2 min 0,000 mm 3,9 UV-I 755 W/m 12,6 C 17,7 C 3,2 km/h (1 Bft) 83,33 %
16.05.2017 10:40 17,8 C 20,0 C 71 % 1029,0 hPa 0,0 l/m 2,0 km/h (1 Bft) W-NW 284 2 min 0,000 mm 4,0 UV-I 792 W/m 12,5 C 17,8 C 3,2 km/h (1 Bft) 94,34 %
16.05.2017 10:42 17,8 C 20,0 C 70 % 1028,9 hPa 0,0 l/m 2,9 km/h (1 Bft) W-SW 252 2 min 0,000 mm 4,1 UV-I 807 W/m 12,3 C 17,8 C 6,4 km/h (2 Bft) 96,77 %
16.05.2017 10:44 17,8 C 20,0 C 66 % 1029,0 hPa 0,0 l/m 2,7 km/h (1 Bft) W-SW 252 2 min 0,000 mm 4,1 UV-I 789 W/m 11,4 C 17,8 C 6,4 km/h (2 Bft) 93,62 %
16.05.2017 10:46 17,8 C 20,0 C 69 % 1029,0 hPa 0,0 l/m 1,4 km/h (1 Bft) W-SW 252 2 min 0,000 mm 4,2 UV-I 792 W/m 12,0 C 17,8 C 3,2 km/h (1 Bft) 95,74 %
16.05.2017 10:48 17,9 C 20,0 C 66 % 1029,0 hPa 0,0 l/m 1,5 km/h (1 Bft) W-SW 252 2 min 0,000 mm 4,2 UV-I 790 W/m 11,5 C 17,9 C 4,8 km/h (1 Bft) 95,12 %
16.05.2017 10:50 18,0 C 20,0 C 68 % 1028,9 hPa 0,0 l/m 3,3 km/h (1 Bft) SW 230 2 min 0,000 mm 4,2 UV-I 795 W/m 12,0 C 18,0 C 6,4 km/h (2 Bft) 96,00 %
16.05.2017 10:52 17,9 C 20,0 C 68 % 1028,9 hPa 0,0 l/m 1,7 km/h (1 Bft) W 274 2 min 0,000 mm 3,9 UV-I 809 W/m 11,9 C 17,9 C 4,8 km/h (1 Bft) 96,23 %
16.05.2017 10:54 17,9 C 20,0 C 69 % 1028,9 hPa 0,0 l/m 4,8 km/h (1 Bft) W 267 0 min 0,000 mm 2,8 UV-I 337 W/m 12,1 C 17,9 C 9,7 km/h (2 Bft) 95,12 %
16.05.2017 10:56 17,8 C 20,0 C 68 % 1028,9 hPa 0,0 l/m 5,7 km/h (1 Bft) W 279 0 min 0,000 mm 4,0 UV-I 277 W/m 11,8 C 17,8 C 9,7 km/h (2 Bft) 96,23 %
16.05.2017 10:58 17,9 C 20,0 C 70 % 1028,9 hPa 0,0 l/m 5,6 km/h (1 Bft) W-SW 250 2 min 0,000 mm 4,3 UV-I 773 W/m 12,3 C 17,9 C 6,4 km/h (2 Bft) 95,45 %
16.05.2017 11:00 17,9 C 20,0 C 68 % 1028,9 hPa 0,0 l/m 4,6 km/h (1 Bft) W-SW 252 2 min 0,407 mm 4,3 UV-I 778 W/m 11,9 C 17,9 C 6,4 km/h (2 Bft) 92,68 %
16.05.2017 11:02 17,9 C 20,0 C 70 % 1028,9 hPa 0,0 l/m 1,7 km/h (1 Bft) W-SW 252 2 min 0,000 mm 4,3 UV-I 768 W/m 12,3 C 17,9 C 3,2 km/h (1 Bft) 94,00 %
16.05.2017 11:04 17,8 C 20,0 C 68 % 1028,9 hPa 0,0 l/m 0,4 km/h (0 Bft) W-SW 252 2 min 0,000 mm 4,5 UV-I 809 W/m 11,8 C 17,8 C 3,2 km/h (1 Bft) 96,23 %
16.05.2017 11:06 18,1 C 20,0 C 70 % 1028,9 hPa 0,0 l/m 0,7 km/h (0 Bft) W-SW 255 2 min 0,000 mm 4,5 UV-I 811 W/m 12,5 C 18,1 C 3,2 km/h (1 Bft) 97,87 %
16.05.2017 11:08 18,3 C 20,0 C 73 % 1028,9 hPa 0,0 l/m 2,4 km/h (1 Bft) W-NW 293 2 min 0,000 mm 4,6 UV-I 808 W/m 13,4 C 18,3 C 4,8 km/h (1 Bft) 92,68 %
16.05.2017 11:10 18,5 C 20,0 C 67 % 1028,9 hPa 0,0 l/m 1,7 km/h (1 Bft) N-NW 329 2 min 0,000 mm 4,6 UV-I 797 W/m 12,3 C 18,5 C 3,2 km/h (1 Bft) 96,00 %
16.05.2017 11:12 18,6 C 20,0 C 72 % 1028,9 hPa 0,0 l/m 1,0 km/h (0 Bft) NW 311 2 min 0,000 mm 4,6 UV-I 792 W/m 13,4 C 18,6 C 3,2 km/h (1 Bft) 94,74 %
16.05.2017 11:14 18,6 C 20,0 C 70 % 1028,9 hPa 0,0 l/m 6,6 km/h (2 Bft) SW 233 2 min 0,000 mm 4,4 UV-I 733 W/m 13,0 C 18,5 C 12,9 km/h (3 Bft) 90,48 %
16.05.2017 11:16 18,7 C 20,0 C 69 % 1028,9 hPa 0,0 l/m 5,4 km/h (1 Bft) SW 221 2 min 0,000 mm 4,5 UV-I 757 W/m 12,9 C 18,7 C 8,0 km/h (2 Bft) 96,72 %
16.05.2017 11:18 18,9 C 20,0 C 68 % 1028,8 hPa 0,0 l/m 3,6 km/h (1 Bft) W 262 2 min 0,000 mm 4,7 UV-I 802 W/m 12,9 C 18,9 C 4,8 km/h (1 Bft) 91,49 %
16.05.2017 11:20 18,8 C 20,0 C 67 % 1028,8 hPa 0,0 l/m 3,8 km/h (1 Bft) S-SO 166 2 min 0,000 mm 4,6 UV-I 768 W/m 12,5 C 18,8 C 8,0 km/h (2 Bft) 95,24 %
16.05.2017 11:22 18,6 C 20,0 C 66 % 1028,8 hPa 0,0 l/m 3,2 km/h (1 Bft) S-SO 161 2 min 0,000 mm 4,7 UV-I 785 W/m 12,1 C 18,6 C 6,4 km/h (2 Bft) 96,00 %
16.05.2017 11:24 18,6 C 20,0 C 66 % 1028,8 hPa 0,0 l/m 3,5 km/h (1 Bft) S-SW 206 2 min 0,000 mm 4,9 UV-I 828 W/m 12,1 C 18,6 C 8,0 km/h (2 Bft) 97,73 %
16.05.2017 11:26 18,5 C 20,0 C 64 % 1028,8 hPa 0,0 l/m 1,6 km/h (1 Bft) S-SW 205 2 min 0,000 mm 4,9 UV-I 845 W/m 11,6 C 18,5 C 6,4 km/h (2 Bft) 97,87 %
16.05.2017 11:28 18,6 C 20,0 C 65 % 1028,8 hPa 0,0 l/m 3,8 km/h (1 Bft) S-SW 203 2 min 0,000 mm 5,0 UV-I 849 W/m 11,9 C 18,6 C 8,0 km/h (2 Bft) 96,23 %
16.05.2017 11:30 18,4 C 20,0 C 62 % 1028,8 hPa 0,0 l/m 1,5 km/h (1 Bft) S-SW 202 2 min 0,000 mm 5,0 UV-I 849 W/m 11,0 C 18,4 C 4,8 km/h (1 Bft) 100,00 %
16.05.2017 11:32 18,6 C 20,0 C 64 % 1028,7 hPa 0,0 l/m 0,7 km/h (0 Bft) S-SW 202 2 min 0,000 mm 5,1 UV-I 847 W/m 11,7 C 18,6 C 1,6 km/h (1 Bft) 97,87 %
16.05.2017 11:34 18,9 C 20,0 C 63 % 1028,8 hPa 0,0 l/m 1,2 km/h (1 Bft) S-SW 202 2 min 0,000 mm 5,1 UV-I 843 W/m 11,7 C 18,9 C 3,2 km/h (1 Bft) 97,87 %
16.05.2017 11:36 19,0 C 20,0 C 63 % 1028,8 hPa 0,0 l/m 5,0 km/h (1 Bft) W-SW 253 2 min 0,000 mm 5,1 UV-I 846 W/m 11,8 C 19,0 C 6,4 km/h (2 Bft) 92,68 %
16.05.2017 11:38 18,9 C 20,0 C 62 % 1028,7 hPa 0,0 l/m 2,9 km/h (1 Bft) W 280 2 min 0,000 mm 5,2 UV-I 857 W/m 11,5 C 18,9 C 4,8 km/h (1 Bft) 97,73 %
16.05.2017 11:40 19,1 C 20,0 C 62 % 1028,7 hPa 0,0 l/m 2,5 km/h (1 Bft) SW 227 2 min 0,000 mm 5,2 UV-I 871 W/m 11,6 C 19,1 C 8,0 km/h (2 Bft) 100,00 %
16.05.2017 11:42 19,2 C 20,0 C 60 % 1028,7 hPa 0,0 l/m 4,2 km/h (1 Bft) SW 227 2 min 0,000 mm 5,2 UV-I 872 W/m 11,2 C 19,2 C 8,0 km/h (2 Bft) 98,11 %
16.05.2017 11:44 19,1 C 20,0 C 62 % 1028,7 hPa 0,0 l/m 3,8 km/h (1 Bft) SW 223 2 min 0,000 mm 5,2 UV-I 862 W/m 11,6 C 19,1 C 8,0 km/h (2 Bft) 97,37 %
16.05.2017 11:46 19,4 C 20,0 C 67 % 1028,6 hPa 0,0 l/m 5,6 km/h (1 Bft) SW 215 2 min 0,000 mm 5,3 UV-I 864 W/m 13,1 C 19,4 C 8,0 km/h (2 Bft) 100,00 %
16.05.2017 11:48 19,7 C 20,0 C 65 % 1028,7 hPa 0,0 l/m 6,8 km/h (2 Bft) W-SW 242 2 min 0,000 mm 5,3 UV-I 872 W/m 12,9 C 19,5 C 11,3 km/h (2 Bft) 96,00 %
16.05.2017 11:50 19,6 C 20,0 C 66 % 1028,7 hPa 0,0 l/m 3,0 km/h (1 Bft) W-SW 242 2 min 0,000 mm 5,3 UV-I 867 W/m 13,1 C 19,6 C 6,4 km/h (2 Bft) 98,00 %
16.05.2017 11:52 19,3 C 20,6 C 61 % 1028,6 hPa 0,0 l/m 0,4 km/h (0 Bft) W-SW 242 2 min 0,000 mm 5,3 UV-I 861 W/m 11,6 C 19,3 C 1,6 km/h (1 Bft) 100,00 %
16.05.2017 11:54 19,2 C 20,6 C 63 % 1028,6 hPa 0,0 l/m 2,4 km/h (1 Bft) W-SW 245 2 min 0,000 mm 5,4 UV-I 865 W/m 12,0 C 19,2 C 6,4 km/h (2 Bft) 97,56 %
16.05.2017 11:56 19,2 C 20,6 C 67 % 1028,6 hPa 0,0 l/m 2,3 km/h (1 Bft) W-SW 256 2 min 0,000 mm 5,4 UV-I 868 W/m 12,9 C 19,2 C 4,8 km/h (1 Bft) 100,00 %
16.05.2017 11:58 19,2 C 20,6 C 62 % 1028,6 hPa 0,0 l/m 1,0 km/h (0 Bft) S-SW 213 2 min 0,000 mm 5,4 UV-I 853 W/m 11,7 C 19,2 C 4,8 km/h (1 Bft) 98,00 %
16.05.2017 12:00 19,2 C 20,6 C 64 % 1028,6 hPa 0,0 l/m 3,1 km/h (1 Bft) SW 236 2 min 0,482 mm 5,4 UV-I 849 W/m 12,2 C 19,2 C 6,4 km/h (2 Bft) 96,23 %
16.05.2017 12:02 19,2 C 20,6 C 63 % 1028,5 hPa 0,0 l/m 2,0 km/h (1 Bft) W 264 2 min 0,000 mm 5,5 UV-I 865 W/m 12,0 C 19,2 C 4,8 km/h (1 Bft) 92,86 %
16.05.2017 12:04 19,4 C 20,6 C 66 % 1028,5 hPa 0,0 l/m 1,2 km/h (1 Bft) W 265 2 min 0,000 mm 5,5 UV-I 873 W/m 12,9 C 19,4 C 3,2 km/h (1 Bft) 97,56 %
16.05.2017 12:06 19,7 C 20,6 C 65 % 1028,5 hPa 0,0 l/m 1,5 km/h (1 Bft) S 180 2 min 0,000 mm 5,4 UV-I 855 W/m 12,9 C 19,7 C 3,2 km/h (1 Bft) 96,00 %
16.05.2017 12:08 19,9 C 20,6 C 66 % 1028,5 hPa 0,0 l/m 1,9 km/h (1 Bft) W 269 2 min 0,000 mm 5,6 UV-I 897 W/m 13,4 C 19,9 C 4,8 km/h (1 Bft) 100,00 %
16.05.2017 12:10 19,8 C 20,6 C 61 % 1028,5 hPa 0,0 l/m 1,4 km/h (1 Bft) W 277 2 min 0,000 mm 5,5 UV-I 922 W/m 12,1 C 19,8 C 3,2 km/h (1 Bft) 100,00 %
16.05.2017 12:12 19,9 C 20,6 C 67 % 1028,4 hPa 0,0 l/m 2,3 km/h (1 Bft) N-NW 342 2 min 0,000 mm 5,5 UV-I 864 W/m 13,6 C 19,9 C 4,8 km/h (1 Bft) 96,00 %
16.05.2017 12:14 19,9 C 20,6 C 67 % 1028,5 hPa 0,0 l/m 2,4 km/h (1 Bft) W-NW 301 2 min 0,000 mm 5,2 UV-I 867 W/m 13,6 C 19,9 C 6,4 km/h (2 Bft) 97,73 %
16.05.2017 12:16 19,8 C 20,6 C 62 % 1028,4 hPa 0,0 l/m 1,7 km/h (1 Bft) W 273 2 min 0,000 mm 5,4 UV-I 867 W/m 12,3 C 19,8 C 4,8 km/h (1 Bft) 94,00 %
16.05.2017 12:19 19,9 C 20,6 C 64 % 1028,4 hPa 0,0 l/m 3,2 km/h (1 Bft) W-NW 294 3 min 0,000 mm 5,5 UV-I 827 W/m 12,9 C 19,9 C 6,4 km/h (2 Bft) 98,46 %
16.05.2017 12:20 19,8 C 20,6 C 61 % 1028,4 hPa 0,0 l/m 4,1 km/h (1 Bft) SW 217 1 min 0,000 mm 5,7 UV-I 926 W/m 12,1 C 19,8 C 6,4 km/h (2 Bft) 100,00 %
16.05.2017 12:22 19,9 C 20,6 C 62 % 1028,4 hPa 0,0 l/m 5,4 km/h (1 Bft) S-SW 212 2 min 0,000 mm 5,6 UV-I 927 W/m 12,4 C 19,9 C 9,7 km/h (2 Bft) 94,00 %
16.05.2017 12:24 19,9 C 20,6 C 64 % 1028,4 hPa 0,0 l/m 2,9 km/h (1 Bft) W-SW 242 2 min 0,000 mm 4,6 UV-I 921 W/m 12,9 C 19,9 C 6,4 km/h (2 Bft) 89,36 %
16.05.2017 12:26 19,7 C 20,6 C 62 % 1028,4 hPa 0,0 l/m 2,8 km/h (1 Bft) S-SW 205 2 min 0,000 mm 3,3 UV-I 696 W/m 12,2 C 19,7 C 4,8 km/h (1 Bft) 97,56 %
16.05.2017 12:28 19,4 C 20,6 C 61 % 1028,4 hPa 0,0 l/m 1,7 km/h (1 Bft) S-SW 205 0 min 0,000 mm 3,0 UV-I 153 W/m 11,7 C 19,4 C 6,4 km/h (2 Bft) 94,34 %
16.05.2017 12:30 19,2 C 20,6 C 64 % 1028,4 hPa 0,0 l/m 1,0 km/h (0 Bft) S-SW 209 0 min 0,000 mm 3,0 UV-I 155 W/m 12,2 C 19,2 C 3,2 km/h (1 Bft) 97,87 %
16.05.2017 12:32 19,1 C 20,6 C 62 % 1028,4 hPa 0,0 l/m 0,8 km/h (0 Bft) O-NO 74 0 min 0,000 mm 3,1 UV-I 159 W/m 11,6 C 19,1 C 6,4 km/h (2 Bft) 97,87 %
16.05.2017 12:34 19,0 C 20,6 C 65 % 1028,4 hPa 0,0 l/m 4,5 km/h (1 Bft) W-SW 243 0 min 0,000 mm 3,5 UV-I 180 W/m 12,3 C 19,0 C 6,4 km/h (2 Bft) 93,18 %
16.05.2017 12:36 19,1 C 20,6 C 64 % 1028,4 hPa 0,0 l/m 3,0 km/h (1 Bft) W-SW 241 2 min 0,000 mm 5,4 UV-I 521 W/m 12,1 C 19,1 C 4,8 km/h (1 Bft) 96,00 %
16.05.2017 12:38 19,3 C 20,6 C 64 % 1028,3 hPa 0,0 l/m 1,8 km/h (1 Bft) S-SO 166 2 min 0,000 mm 5,8 UV-I 900 W/m 12,3 C 19,3 C 6,4 km/h (2 Bft) 95,24 %
16.05.2017 12:40 19,3 C 20,6 C 62 % 1028,3 hPa 0,0 l/m 1,4 km/h (1 Bft) S-SO 166 2 min 0,000 mm 5,8 UV-I 909 W/m 11,8 C 19,3 C 4,8 km/h (1 Bft) 92,31 %
16.05.2017 12:42 19,4 C 20,6 C 62 % 1028,2 hPa 0,0 l/m 0,2 km/h (0 Bft) S-SO 166 2 min 0,000 mm 5,8 UV-I 909 W/m 11,9 C 19,4 C 1,6 km/h (1 Bft) 97,92 %
16.05.2017 12:44 19,7 C 20,6 C 62 % 1028,2 hPa 0,0 l/m 2,1 km/h (1 Bft) SO 133 2 min 0,000 mm 5,8 UV-I 930 W/m 12,2 C 19,7 C 4,8 km/h (1 Bft) 95,74 %
16.05.2017 12:46 19,9 C 20,6 C 61 % 1028,2 hPa 0,0 l/m 2,6 km/h (1 Bft) O-NO 66 2 min 0,000 mm 4,1 UV-I 915 W/m 12,2 C 19,9 C 4,8 km/h (1 Bft) 95,12 %
16.05.2017 12:48 19,8 C 20,6 C 64 % 1028,2 hPa 0,0 l/m 2,7 km/h (1 Bft) O-NO 58 0 min 0,000 mm 3,6 UV-I 245 W/m 12,8 C 19,8 C 4,8 km/h (1 Bft) 93,18 %
16.05.2017 12:50 19,7 C 20,6 C 64 % 1028,2 hPa 0,0 l/m 1,7 km/h (1 Bft) N 5 0 min 0,000 mm 3,3 UV-I 217 W/m 12,7 C 19,7 C 4,8 km/h (1 Bft) 94,34 %
16.05.2017 12:52 19,3 C 20,6 C 66 % 1028,1 hPa 0,0 l/m 0,2 km/h (0 Bft) N 355 0 min 0,000 mm 3,3 UV-I 203 W/m 12,8 C 19,3 C 1,6 km/h (1 Bft) 94,74 %
16.05.2017 12:54 19,2 C 20,6 C 66 % 1028,1 hPa 0,0 l/m 0,4 km/h (0 Bft) N 350 0 min 0,000 mm 3,2 UV-I 193 W/m 12,7 C 19,2 C 1,6 km/h (1 Bft) 98,31 %
16.05.2017 12:56 19,1 C 20,6 C 59 % 1028,1 hPa 0,0 l/m 2,9 km/h (1 Bft) NW 312 0 min 0,000 mm 3,2 UV-I 192 W/m 10,9 C 19,1 C 4,8 km/h (1 Bft) 97,56 %
16.05.2017 12:58 19,1 C 20,6 C 58 % 1028,1 hPa 0,0 l/m 2,9 km/h (1 Bft) W-SW 247 0 min 0,000 mm 3,2 UV-I 189 W/m 10,6 C 19,1 C 6,4 km/h (2 Bft) 95,45 %
16.05.2017 13:00 19,1 C 20,6 C 57 % 1028,1 hPa 0,0 l/m 1,8 km/h (1 Bft) S-SW 205 0 min 0,330 mm 3,2 UV-I 196 W/m 10,4 C 19,1 C 4,8 km/h (1 Bft) 97,87 %
16.05.2017 13:03 19,2 C 20,6 C 58 % 1028,0 hPa 0,0 l/m 2,7 km/h (1 Bft) S 191 0 min 0,000 mm 3,3 UV-I 215 W/m 10,7 C 19,2 C 6,4 km/h (2 Bft) 97,40 %
16.05.2017 13:04 19,2 C 20,6 C 61 % 1028,0 hPa 0,0 l/m 0,1 km/h (0 Bft) S 191 0 min 0,000 mm 3,4 UV-I 218 W/m 11,5 C 19,2 C 1,6 km/h (1 Bft) 100,00 %
16.05.2017 13:06 19,2 C 20,6 C 66 % 1028,0 hPa 0,0 l/m 0,7 km/h (0 Bft) S 191 0 min 0,000 mm 3,5 UV-I 230 W/m 12,7 C 19,2 C 3,2 km/h (1 Bft) 96,00 %
16.05.2017 13:08 19,3 C 20,6 C 64 % 1028,0 hPa 0,0 l/m 1,8 km/h (1 Bft) S 191 2 min 0,000 mm 5,0 UV-I 486 W/m 12,3 C 19,3 C 4,8 km/h (1 Bft) 97,37 %
16.05.2017 13:10 19,7 C 20,6 C 61 % 1028,0 hPa 0,0 l/m 1,0 km/h (0 Bft) S 191 2 min 0,000 mm 5,8 UV-I 927 W/m 12,0 C 19,7 C 3,2 km/h (1 Bft) 98,00 %
16.05.2017 13:12 19,9 C 20,6 C 58 % 1027,9 hPa 0,0 l/m 1,9 km/h (1 Bft) S 191 2 min 0,000 mm 5,8 UV-I 922 W/m 11,4 C 19,9 C 4,8 km/h (1 Bft) 96,00 %
16.05.2017 13:14 20,3 C 20,6 C 58 % 1027,9 hPa 0,0 l/m 2,0 km/h (1 Bft) S-SW 193 2 min 0,000 mm 5,9 UV-I 924 W/m 11,8 C 20,3 C 4,8 km/h (1 Bft) 94,74 %
16.05.2017 13:16 20,6 C 20,6 C 61 % 1027,9 hPa 0,0 l/m 1,9 km/h (1 Bft) S-SW 196 2 min 0,000 mm 5,9 UV-I 944 W/m 12,8 C 20,6 C 4,8 km/h (1 Bft) 100,00 %
16.05.2017 13:18 20,6 C 20,6 C 58 % 1027,8 hPa 0,0 l/m 3,2 km/h (1 Bft) NO 44 2 min 0,000 mm 5,7 UV-I 886 W/m 12,0 C 20,6 C 4,8 km/h (1 Bft) 96,00 %
16.05.2017 13:20 20,9 C 20,6 C 61 % 1027,8 hPa 0,0 l/m 2,8 km/h (1 Bft) NO 44 2 min 0,000 mm 5,9 UV-I 929 W/m 13,1 C 20,9 C 4,8 km/h (1 Bft) 100,00 %
16.05.2017 13:22 20,9 C 20,6 C 60 % 1027,8 hPa 0,0 l/m 2,4 km/h (1 Bft) NO 47 2 min 0,000 mm 5,9 UV-I 934 W/m 12,8 C 20,9 C 6,4 km/h (2 Bft) 97,87 %
16.05.2017 13:24 21,0 C 20,6 C 59 % 1027,8 hPa 0,0 l/m 3,6 km/h (1 Bft) W-NW 288 2 min 0,000 mm 5,9 UV-I 913 W/m 12,7 C 21,0 C 6,4 km/h (2 Bft) 100,00 %
16.05.2017 13:26 20,9 C 20,6 C 52 % 1027,8 hPa 0,0 l/m 2,7 km/h (1 Bft) W 277 2 min 0,000 mm 5,9 UV-I 944 W/m 10,7 C 20,9 C 6,4 km/h (2 Bft) 98,46 %
16.05.2017 13:28 20,8 C 20,6 C 54 % 1027,8 hPa 0,0 l/m 3,6 km/h (1 Bft) W 279 2 min 0,000 mm 5,8 UV-I 906 W/m 11,1 C 20,8 C 9,7 km/h (2 Bft) 98,00 %
16.05.2017 13:30 20,7 C 20,6 C 53 % 1027,8 hPa 0,0 l/m 4,1 km/h (1 Bft) N-NW 327 2 min 0,000 mm 5,9 UV-I 933 W/m 10,8 C 20,7 C 8,0 km/h (2 Bft) 100,00 %
16.05.2017 13:32 20,7 C 20,6 C 56 % 1027,8 hPa 0,0 l/m 3,3 km/h (1 Bft) N-NW 342 2 min 0,000 mm 5,8 UV-I 935 W/m 11,6 C 20,7 C 6,4 km/h (2 Bft) 100,00 %
16.05.2017 13:34 20,6 C 20,6 C 53 % 1027,7 hPa 0,0 l/m 1,5 km/h (1 Bft) N 351 2 min 0,000 mm 5,8 UV-I 923 W/m 10,7 C 20,6 C 4,8 km/h (1 Bft) 100,00 %
16.05.2017 13:36 20,7 C 20,6 C 55 % 1027,7 hPa 0,0 l/m 4,9 km/h (1 Bft) W 271 2 min 0,000 mm 5,7 UV-I 922 W/m 11,3 C 20,7 C 9,7 km/h (2 Bft) 95,12 %
16.05.2017 13:38 20,7 C 20,6 C 54 % 1027,7 hPa 0,0 l/m 3,8 km/h (1 Bft) W-NW 288 2 min 0,000 mm 5,7 UV-I 887 W/m 11,1 C 20,7 C 6,4 km/h (2 Bft) 97,87 %
16.05.2017 13:40 20,8 C 21,1 C 54 % 1027,7 hPa 0,0 l/m 2,2 km/h (1 Bft) N 11 2 min 0,000 mm 5,7 UV-I 891 W/m 11,1 C 20,8 C 6,4 km/h (2 Bft) 98,11 %
16.05.2017 13:42 20,9 C 21,1 C 55 % 1027,6 hPa 0,0 l/m 3,7 km/h (1 Bft) NW 311 2 min 0,000 mm 5,7 UV-I 898 W/m 11,5 C 20,9 C 8,0 km/h (2 Bft) 97,14 %
16.05.2017 13:44 20,8 C 21,1 C 55 % 1027,7 hPa 0,0 l/m 2,1 km/h (1 Bft) NW 326 2 min 0,000 mm 5,6 UV-I 910 W/m 11,4 C 20,8 C 8,0 km/h (2 Bft) 98,00 %
16.05.2017 13:46 20,8 C 21,1 C 58 % 1027,7 hPa 0,0 l/m 2,4 km/h (1 Bft) N 350 2 min 0,000 mm 5,7 UV-I 913 W/m 12,2 C 20,8 C 6,4 km/h (2 Bft) 97,87 %
16.05.2017 13:49 20,7 C 21,1 C 57 % 1027,6 hPa 0,0 l/m 3,2 km/h (1 Bft) N-NO 32 3 min 0,000 mm 5,7 UV-I 911 W/m 11,9 C 20,7 C 6,4 km/h (2 Bft) 97,50 %
16.05.2017 13:50 20,7 C 21,1 C 54 % 1027,6 hPa 0,0 l/m 4,2 km/h (1 Bft) NO 40 1 min 0,000 mm 5,6 UV-I 898 W/m 11,1 C 20,7 C 4,8 km/h (1 Bft) 100,00 %
16.05.2017 13:52 20,8 C 21,1 C 54 % 1027,6 hPa 0,0 l/m 5,3 km/h (1 Bft) O-NO 62 2 min 0,000 mm 5,5 UV-I 906 W/m 11,1 C 20,8 C 6,4 km/h (2 Bft) 97,44 %
16.05.2017 13:55 21,0 C 21,1 C 58 % 1027,5 hPa 0,0 l/m 4,2 km/h (1 Bft) O 94 3 min 0,000 mm 5,6 UV-I 909 W/m 12,4 C 21,0 C 6,4 km/h (2 Bft) 100,00 %
16.05.2017 13:56 21,0 C 21,1 C 53 % 1027,5 hPa 0,0 l/m 5,6 km/h (1 Bft) O-SO 119 1 min 0,000 mm 5,6 UV-I 924 W/m 11,0 C 21,0 C 6,4 km/h (2 Bft) 100,00 %
16.05.2017 14:00 20,8 C 21,1 C 58 % 1027,5 hPa 0,0 l/m 2,7 km/h (1 Bft) O-SO 115 4 min 0,508 mm 5,5 UV-I 927 W/m 12,2 C 20,8 C 6,4 km/h (2 Bft) 96,84 %
16.05.2017 14:02 20,9 C 21,1 C 56 % 1027,5 hPa 0,0 l/m 1,9 km/h (1 Bft) O 92 2 min 0,000 mm 5,0 UV-I 900 W/m 11,8 C 20,9 C 4,8 km/h (1 Bft) 96,00 %
16.05.2017 14:04 21,1 C 21,1 C 59 % 1027,4 hPa 0,0 l/m 2,6 km/h (1 Bft) O 84 2 min 0,000 mm 5,1 UV-I 599 W/m 12,8 C 21,1 C 4,8 km/h (1 Bft) 95,74 %
16.05.2017 14:06 21,2 C 21,1 C 55 % 1027,4 hPa 0,0 l/m 1,8 km/h (1 Bft) NW 322 2 min 0,000 mm 4,7 UV-I 599 W/m 11,8 C 21,2 C 4,8 km/h (1 Bft) 95,12 %
16.05.2017 14:08 21,2 C 21,1 C 56 % 1027,4 hPa 0,0 l/m 0,9 km/h (0 Bft) N-NW 348 0 min 0,000 mm 3,8 UV-I 430 W/m 12,1 C 21,2 C 3,2 km/h (1 Bft) 100,00 %
16.05.2017 14:10 20,9 C 21,1 C 53 % 1027,4 hPa 0,0 l/m 1,8 km/h (1 Bft) N-NO 19 2 min 0,000 mm 4,1 UV-I 519 W/m 11,0 C 20,9 C 4,8 km/h (1 Bft) 97,37 %
16.05.2017 14:12 20,8 C 21,1 C 56 % 1027,4 hPa 0,0 l/m 2,0 km/h (1 Bft) N-NW 341 2 min 0,000 mm 4,3 UV-I 547 W/m 11,7 C 20,8 C 3,2 km/h (1 Bft) 94,00 %
16.05.2017 14:14 20,8 C 21,1 C 55 % 1027,4 hPa 0,0 l/m 2,1 km/h (1 Bft) N-NW 335 2 min 0,000 mm 4,4 UV-I 606 W/m 11,4 C 20,8 C 4,8 km/h (1 Bft) 97,87 %
16.05.2017 14:16 20,8 C 21,1 C 56 % 1027,3 hPa 0,0 l/m 2,0 km/h (1 Bft) N-NW 338 2 min 0,000 mm 4,9 UV-I 706 W/m 11,7 C 20,8 C 3,2 km/h (1 Bft) 91,49 %
16.05.2017 14:18 20,8 C 21,1 C 58 % 1027,3 hPa 0,0 l/m 3,1 km/h (1 Bft) N-NO 24 2 min 0,000 mm 4,8 UV-I 749 W/m 12,2 C 20,8 C 6,4 km/h (2 Bft) 96,00 %
16.05.2017 14:20 21,1 C 21,1 C 61 % 1027,3 hPa 0,0 l/m 2,6 km/h (1 Bft) NW 315 2 min 0,000 mm 5,3 UV-I 845 W/m 13,3 C 21,1 C 4,8 km/h (1 Bft) 95,12 %
16.05.2017 14:22 21,1 C 21,1 C 56 % 1027,3 hPa 0,0 l/m 1,1 km/h (1 Bft) NW 318 2 min 0,000 mm 4,2 UV-I 623 W/m 12,0 C 21,1 C 3,2 km/h (1 Bft) 96,23 %
16.05.2017 14:24 21,0 C 21,1 C 54 % 1027,3 hPa 0,0 l/m 1,7 km/h (1 Bft) NW 318 2 min 0,000 mm 4,5 UV-I 586 W/m 11,3 C 21,0 C 3,2 km/h (1 Bft) 98,00 %
16.05.2017 14:26 20,9 C 21,1 C 57 % 1027,3 hPa 0,0 l/m 1,8 km/h (1 Bft) O-NO 57 2 min 0,000 mm 4,5 UV-I 667 W/m 12,1 C 20,9 C 3,2 km/h (1 Bft) 94,74 %
16.05.2017 14:28 21,0 C 21,1 C 54 % 1027,2 hPa 0,0 l/m 2,9 km/h (1 Bft) W 275 2 min 0,000 mm 4,8 UV-I 781 W/m 11,3 C 21,0 C 6,4 km/h (2 Bft) 98,00 %
16.05.2017 14:30 21,1 C 21,1 C 51 % 1027,2 hPa 0,0 l/m 5,1 km/h (1 Bft) W-NW 294 2 min 0,000 mm 5,0 UV-I 919 W/m 10,6 C 21,1 C 9,7 km/h (2 Bft) 94,00 %
16.05.2017 14:32 21,2 C 21,1 C 53 % 1027,2 hPa 0,0 l/m 4,8 km/h (1 Bft) W-SW 252 2 min 0,000 mm 4,2 UV-I 696 W/m 11,2 C 21,2 C 8,0 km/h (2 Bft) 97,44 %
16.05.2017 14:34 21,2 C 21,1 C 53 % 1027,2 hPa 0,0 l/m 4,3 km/h (1 Bft) W 267 0 min 0,000 mm 4,5 UV-I 418 W/m 11,2 C 21,2 C 6,4 km/h (2 Bft) 93,62 %
16.05.2017 14:36 21,4 C 21,1 C 53 % 1027,1 hPa 0,0 l/m 3,4 km/h (1 Bft) W 277 2 min 0,000 mm 5,2 UV-I 599 W/m 11,4 C 21,4 C 6,4 km/h (2 Bft) 96,00 %
16.05.2017 14:38 21,6 C 21,1 C 51 % 1027,1 hPa 0,0 l/m 2,3 km/h (1 Bft) W-NW 294 2 min 0,000 mm 5,2 UV-I 974 W/m 11,0 C 21,6 C 4,8 km/h (1 Bft) 98,00 %
16.05.2017 14:40 21,6 C 21,1 C 53 % 1027,1 hPa 0,0 l/m 2,1 km/h (1 Bft) W-NW 297 2 min 0,000 mm 5,3 UV-I 986 W/m 11,6 C 21,6 C 3,2 km/h (1 Bft) 97,87 %
16.05.2017 14:42 21,8 C 21,1 C 56 % 1027,1 hPa 0,0 l/m 2,9 km/h (1 Bft) NO 45 2 min 0,000 mm 5,1 UV-I 990 W/m 12,6 C 21,8 C 11,3 km/h (2 Bft) 93,62 %
16.05.2017 14:44 22,1 C 21,1 C 61 % 1027,1 hPa 0,0 l/m 6,8 km/h (2 Bft) N-NO 21 2 min 0,000 mm 5,0 UV-I 988 W/m 14,2 C 22,0 C 14,5 km/h (3 Bft) 90,00 %
16.05.2017 14:46 22,3 C 21,1 C 59 % 1027,1 hPa 0,0 l/m 3,1 km/h (1 Bft) W-NW 300 2 min 0,000 mm 5,1 UV-I 963 W/m 13,9 C 22,3 C 4,8 km/h (1 Bft) 97,56 %
16.05.2017 14:48 22,2 C 21,1 C 53 % 1027,1 hPa 0,0 l/m 3,6 km/h (1 Bft) N-NW 346 2 min 0,000 mm 5,0 UV-I 919 W/m 12,2 C 22,2 C 6,4 km/h (2 Bft) 97,56 %
16.05.2017 14:50 22,1 C 21,1 C 58 % 1027,0 hPa 0,0 l/m 3,3 km/h (1 Bft) N-NW 329 2 min 0,000 mm 5,0 UV-I 920 W/m 13,4 C 22,1 C 4,8 km/h (1 Bft) 94,34 %
16.05.2017 14:52 21,9 C 21,1 C 58 % 1027,0 hPa 0,0 l/m 3,7 km/h (1 Bft) N 11 2 min 0,000 mm 4,9 UV-I 920 W/m 13,3 C 21,9 C 8,0 km/h (2 Bft) 90,24 %
16.05.2017 14:54 21,9 C 21,1 C 62 % 1027,0 hPa 0,0 l/m 4,2 km/h (1 Bft) N 11 2 min 0,000 mm 4,9 UV-I 897 W/m 14,3 C 21,9 C 8,0 km/h (2 Bft) 98,00 %
16.05.2017 14:56 22,0 C 21,1 C 56 % 1026,9 hPa 0,0 l/m 4,4 km/h (1 Bft) N-NW 327 2 min 0,000 mm 4,8 UV-I 868 W/m 12,8 C 22,0 C 8,0 km/h (2 Bft) 93,62 %
16.05.2017 14:58 21,8 C 21,1 C 56 % 1026,9 hPa 0,0 l/m 4,9 km/h (1 Bft) W-NW 296 2 min 0,000 mm 4,7 UV-I 847 W/m 12,6 C 21,8 C 9,7 km/h (2 Bft) 98,11 %
16.05.2017 15:00 21,7 C 21,1 C 51 % 1026,9 hPa 0,0 l/m 4,7 km/h (1 Bft) NW 306 2 min 0,483 mm 4,7 UV-I 847 W/m 11,1 C 21,7 C 11,3 km/h (2 Bft) 97,73 %
16.05.2017 15:02 21,6 C 21,1 C 58 % 1026,9 hPa 0,0 l/m 2,1 km/h (1 Bft) N 9 2 min 0,000 mm 4,6 UV-I 817 W/m 13,0 C 21,6 C 4,8 km/h (1 Bft) 95,45 %
16.05.2017 15:04 21,7 C 21,1 C 57 % 1026,9 hPa 0,0 l/m 2,1 km/h (1 Bft) NW 306 2 min 0,000 mm 4,4 UV-I 793 W/m 12,8 C 21,7 C 3,2 km/h (1 Bft) 92,00 %
16.05.2017 15:06 21,7 C 21,1 C 54 % 1026,9 hPa 0,0 l/m 2,1 km/h (1 Bft) N-NW 347 2 min 0,000 mm 4,3 UV-I 788 W/m 12,0 C 21,7 C 4,8 km/h (1 Bft) 95,12 %
16.05.2017 15:08 21,6 C 21,1 C 59 % 1026,9 hPa 0,0 l/m 4,7 km/h (1 Bft) NW 313 2 min 0,000 mm 4,3 UV-I 780 W/m 13,2 C 21,6 C 8,0 km/h (2 Bft) 95,74 %
16.05.2017 15:10 21,7 C 21,1 C 54 % 1026,9 hPa 0,0 l/m 4,8 km/h (1 Bft) N-NW 332 2 min 0,000 mm 4,3 UV-I 781 W/m 12,0 C 21,7 C 11,3 km/h (2 Bft) 96,00 %
16.05.2017 15:12 21,6 C 21,1 C 49 % 1026,9 hPa 0,0 l/m 3,7 km/h (1 Bft) O-NO 63 2 min 0,000 mm 4,3 UV-I 777 W/m 10,4 C 21,6 C 4,8 km/h (1 Bft) 96,23 %
16.05.2017 15:14 21,6 C 21,1 C 55 % 1026,8 hPa 0,0 l/m 2,0 km/h (1 Bft) N-NW 348 2 min 0,000 mm 4,2 UV-I 781 W/m 12,2 C 21,6 C 4,8 km/h (1 Bft) 97,73 %
16.05.2017 15:16 21,8 C 21,1 C 60 % 1026,7 hPa 0,0 l/m 4,2 km/h (1 Bft) N-NW 344 2 min 0,000 mm 4,1 UV-I 772 W/m 13,7 C 21,8 C 11,3 km/h (2 Bft) 96,00 %
16.05.2017 15:18 21,8 C 21,1 C 54 % 1026,7 hPa 0,0 l/m 4,3 km/h (1 Bft) N-NO 26 2 min 0,000 mm 4,0 UV-I 755 W/m 12,1 C 21,8 C 9,7 km/h (2 Bft) 97,62 %
16.05.2017 15:20 21,7 C 21,7 C 56 % 1026,7 hPa 0,0 l/m 3,9 km/h (1 Bft) NW 318 2 min 0,000 mm 4,0 UV-I 735 W/m 12,5 C 21,7 C 11,3 km/h (2 Bft) 97,37 %
16.05.2017 15:22 21,7 C 21,7 C 59 % 1026,7 hPa 0,0 l/m 5,9 km/h (2 Bft) N-NW 333 2 min 0,000 mm 4,0 UV-I 737 W/m 13,3 C 21,7 C 9,7 km/h (2 Bft) 97,73 %
16.05.2017 15:24 21,8 C 21,7 C 54 % 1026,7 hPa 0,0 l/m 3,3 km/h (1 Bft) N 355 2 min 0,000 mm 4,0 UV-I 735 W/m 12,1 C 21,8 C 9,7 km/h (2 Bft) 98,11 %
16.05.2017 15:26 21,7 C 21,7 C 55 % 1026,7 hPa 0,0 l/m 3,8 km/h (1 Bft) N 9 2 min 0,000 mm 4,0 UV-I 739 W/m 12,3 C 21,7 C 6,4 km/h (2 Bft) 97,87 %
16.05.2017 15:28 21,7 C 21,7 C 59 % 1026,6 hPa 0,0 l/m 3,5 km/h (1 Bft) N-NW 338 2 min 0,000 mm 4,0 UV-I 737 W/m 13,3 C 21,7 C 6,4 km/h (2 Bft) 94,00 %
16.05.2017 15:30 21,7 C 21,7 C 58 % 1026,7 hPa 0,0 l/m 4,1 km/h (1 Bft) N-NO 24 2 min 0,000 mm 3,9 UV-I 730 W/m 13,1 C 21,7 C 8,0 km/h (2 Bft) 94,34 %
16.05.2017 15:32 21,7 C 21,7 C 58 % 1026,6 hPa 0,0 l/m 5,0 km/h (1 Bft) NW 306 2 min 0,000 mm 3,9 UV-I 725 W/m 13,1 C 21,7 C 11,3 km/h (2 Bft) 97,14 %
16.05.2017 15:34 21,8 C 21,7 C 54 % 1026,6 hPa 0,0 l/m 1,3 km/h (1 Bft) N 355 2 min 0,000 mm 3,8 UV-I 726 W/m 12,1 C 21,8 C 3,2 km/h (1 Bft) 94,34 %
16.05.2017 15:36 21,8 C 21,7 C 53 % 1026,6 hPa 0,0 l/m 3,0 km/h (1 Bft) NO 40 2 min 0,000 mm 3,8 UV-I 724 W/m 11,8 C 21,8 C 4,8 km/h (1 Bft) 98,11 %
16.05.2017 15:38 21,9 C 21,7 C 58 % 1026,6 hPa 0,0 l/m 1,6 km/h (1 Bft) NO 40 2 min 0,000 mm 3,8 UV-I 719 W/m 13,3 C 21,9 C 4,8 km/h (1 Bft) 94,74 %
16.05.2017 15:40 22,1 C 21,7 C 56 % 1026,6 hPa 0,0 l/m 2,3 km/h (1 Bft) N 355 2 min 0,000 mm 3,7 UV-I 710 W/m 12,9 C 22,1 C 6,4 km/h (2 Bft) 98,00 %
16.05.2017 15:42 22,0 C 21,7 C 54 % 1026,6 hPa 0,0 l/m 3,7 km/h (1 Bft) NW 313 2 min 0,000 mm 3,6 UV-I 699 W/m 12,3 C 22,0 C 8,0 km/h (2 Bft) 96,00 %
16.05.2017 15:44 21,9 C 21,7 C 53 % 1026,5 hPa 0,0 l/m 2,2 km/h (1 Bft) N-NW 336 2 min 0,000 mm 3,5 UV-I 686 W/m 11,9 C 21,9 C 6,4 km/h (2 Bft) 92,00 %
16.05.2017 15:46 21,8 C 21,7 C 55 % 1026,5 hPa 0,0 l/m 1,3 km/h (1 Bft) N 355 2 min 0,000 mm 3,4 UV-I 685 W/m 12,4 C 21,8 C 4,8 km/h (1 Bft) 90,91 %
16.05.2017 15:48 21,8 C 21,7 C 53 % 1026,5 hPa 0,0 l/m 2,4 km/h (1 Bft) NW 306 2 min 0,000 mm 3,4 UV-I 685 W/m 11,8 C 21,8 C 4,8 km/h (1 Bft) 95,74 %
16.05.2017 15:50 21,9 C 21,7 C 51 % 1026,5 hPa 0,0 l/m 1,9 km/h (1 Bft) NW 314 2 min 0,000 mm 3,4 UV-I 682 W/m 11,3 C 21,9 C 4,8 km/h (1 Bft) 97,56 %
16.05.2017 15:52 21,9 C 21,7 C 49 % 1026,5 hPa 0,0 l/m 5,7 km/h (1 Bft) W-NW 294 2 min 0,000 mm 3,4 UV-I 684 W/m 10,7 C 21,9 C 11,3 km/h (2 Bft) 96,23 %
16.05.2017 15:54 22,1 C 21,7 C 48 % 1026,5 hPa 0,0 l/m 4,4 km/h (1 Bft) W-NW 300 2 min 0,000 mm 3,4 UV-I 682 W/m 10,6 C 22,1 C 9,7 km/h (2 Bft) 94,87 %
16.05.2017 15:56 22,1 C 21,7 C 52 % 1026,4 hPa 0,0 l/m 2,9 km/h (1 Bft) NO 48 2 min 0,000 mm 3,4 UV-I 678 W/m 11,8 C 22,1 C 4,8 km/h (1 Bft) 95,74 %
16.05.2017 15:58 22,2 C 21,7 C 51 % 1026,4 hPa 0,0 l/m 5,1 km/h (1 Bft) N 355 2 min 0,000 mm 3,3 UV-I 679 W/m 11,6 C 22,2 C 9,7 km/h (2 Bft) 97,37 %
16.05.2017 16:00 22,1 C 21,7 C 51 % 1026,4 hPa 0,0 l/m 2,8 km/h (1 Bft) W-NW 285 2 min 0,457 mm 3,3 UV-I 672 W/m 11,5 C 22,1 C 6,4 km/h (2 Bft) 96,92 %
16.05.2017 16:02 22,2 C 21,7 C 48 % 1026,4 hPa 0,0 l/m 3,3 km/h (1 Bft) NW 321 2 min 0,000 mm 3,0 UV-I 643 W/m 10,7 C 22,2 C 8,0 km/h (2 Bft) 95,45 %
16.05.2017 16:04 22,1 C 21,7 C 50 % 1026,4 hPa 0,0 l/m 2,8 km/h (1 Bft) N 355 2 min 0,000 mm 3,1 UV-I 650 W/m 11,2 C 22,1 C 6,4 km/h (2 Bft) 97,73 %
16.05.2017 16:06 22,0 C 21,7 C 47 % 1026,4 hPa 0,0 l/m 1,9 km/h (1 Bft) NW 319 2 min 0,000 mm 3,0 UV-I 644 W/m 10,2 C 22,0 C 4,8 km/h (1 Bft) 98,00 %
16.05.2017 16:08 21,9 C 21,7 C 51 % 1026,4 hPa 0,0 l/m 2,3 km/h (1 Bft) N-NW 329 2 min 0,000 mm 3,0 UV-I 646 W/m 11,3 C 21,9 C 6,4 km/h (2 Bft) 96,00 %
16.05.2017 16:10 21,9 C 21,7 C 55 % 1026,3 hPa 0,0 l/m 2,5 km/h (1 Bft) N-NO 21 2 min 0,000 mm 3,0 UV-I 617 W/m 12,4 C 21,9 C 6,4 km/h (2 Bft) 97,87 %
16.05.2017 16:12 22,1 C 21,7 C 48 % 1026,3 hPa 0,0 l/m 1,4 km/h (1 Bft) N-NO 22 2 min 0,000 mm 3,0 UV-I 640 W/m 10,6 C 22,1 C 3,2 km/h (1 Bft) 100,00 %
16.05.2017 16:14 22,1 C 21,7 C 47 % 1026,3 hPa 0,0 l/m 0,9 km/h (0 Bft) N-NO 22 2 min 0,000 mm 3,0 UV-I 642 W/m 10,3 C 22,1 C 3,2 km/h (1 Bft) 94,29 %
16.05.2017 16:16 22,1 C 21,7 C 48 % 1026,3 hPa 0,0 l/m 1,1 km/h (1 Bft) N-NO 22 2 min 0,000 mm 2,9 UV-I 626 W/m 10,6 C 22,1 C 3,2 km/h (1 Bft) 96,00 %
16.05.2017 16:18 22,2 C 21,7 C 52 % 1026,2 hPa 0,0 l/m 1,9 km/h (1 Bft) N 9 2 min 0,000 mm 2,9 UV-I 623 W/m 11,9 C 22,2 C 11,3 km/h (2 Bft) 96,00 %
16.05.2017 16:20 22,3 C 21,7 C 54 % 1026,2 hPa 0,0 l/m 3,1 km/h (1 Bft) N-NO 30 2 min 0,000 mm 2,8 UV-I 592 W/m 12,5 C 22,3 C 6,4 km/h (2 Bft) 94,00 %
16.05.2017 16:22 22,2 C 21,7 C 48 % 1026,2 hPa 0,0 l/m 3,0 km/h (1 Bft) NO 41 2 min 0,000 mm 2,8 UV-I 613 W/m 10,7 C 22,2 C 6,4 km/h (2 Bft) 92,68 %
16.05.2017 16:24 22,2 C 21,7 C 46 % 1026,2 hPa 0,0 l/m 2,3 km/h (1 Bft) N 360 2 min 0,000 mm 2,7 UV-I 613 W/m 10,0 C 22,2 C 4,8 km/h (1 Bft) 92,00 %
16.05.2017 16:26 22,2 C 21,7 C 48 % 1026,2 hPa 0,0 l/m 1,8 km/h (1 Bft) W-NW 299 2 min 0,000 mm 2,6 UV-I 590 W/m 10,7 C 22,2 C 6,4 km/h (2 Bft) 100,00 %
16.05.2017 16:28 22,1 C 21,7 C 47 % 1026,2 hPa 0,0 l/m 2,0 km/h (1 Bft) NW 306 2 min 0,000 mm 2,5 UV-I 573 W/m 10,3 C 22,1 C 6,4 km/h (2 Bft) 94,64 %
16.05.2017 16:30 22,1 C 21,7 C 50 % 1026,2 hPa 0,0 l/m 4,0 km/h (1 Bft) N-NO 16 2 min 0,000 mm 2,5 UV-I 577 W/m 11,2 C 22,1 C 6,4 km/h (2 Bft) 100,00 %
16.05.2017 16:32 22,1 C 21,7 C 49 % 1026,1 hPa 0,0 l/m 4,4 km/h (1 Bft) NO 42 2 min 0,000 mm 2,5 UV-I 570 W/m 10,9 C 22,1 C 6,4 km/h (2 Bft) 90,57 %
16.05.2017 16:34 22,1 C 21,7 C 53 % 1026,1 hPa 0,0 l/m 2,3 km/h (1 Bft) N-NW 347 2 min 0,000 mm 2,4 UV-I 562 W/m 12,1 C 22,1 C 3,2 km/h (1 Bft) 94,87 %
16.05.2017 16:36 22,1 C 21,7 C 50 % 1026,1 hPa 0,0 l/m 2,6 km/h (1 Bft) N 10 2 min 0,000 mm 2,4 UV-I 558 W/m 11,2 C 22,1 C 6,4 km/h (2 Bft) 97,73 %
16.05.2017 16:38 21,9 C 21,7 C 51 % 1026,1 hPa 0,0 l/m 2,6 km/h (1 Bft) NO 34 2 min 0,000 mm 2,4 UV-I 556 W/m 11,3 C 21,9 C 6,4 km/h (2 Bft) 96,23 %
16.05.2017 16:40 21,9 C 21,7 C 47 % 1026,0 hPa 0,0 l/m 1,9 km/h (1 Bft) NO 34 2 min 0,000 mm 2,3 UV-I 554 W/m 10,1 C 21,9 C 4,8 km/h (1 Bft) 98,00 %
16.05.2017 16:42 22,0 C 21,7 C 52 % 1026,0 hPa 0,0 l/m 2,4 km/h (1 Bft) NO 34 2 min 0,000 mm 2,3 UV-I 552 W/m 11,7 C 22,0 C 4,8 km/h (1 Bft) 96,00 %
16.05.2017 16:44 22,0 C 21,7 C 49 % 1026,0 hPa 0,0 l/m 2,4 km/h (1 Bft) N 360 2 min 0,000 mm 2,3 UV-I 556 W/m 10,8 C 22,0 C 6,4 km/h (2 Bft) 97,14 %
16.05.2017 16:46 22,0 C 21,7 C 49 % 1026,0 hPa 0,0 l/m 3,0 km/h (1 Bft) N 10 2 min 0,000 mm 2,2 UV-I 540 W/m 10,8 C 22,0 C 4,8 km/h (1 Bft) 98,00 %
16.05.2017 16:48 22,1 C 21,7 C 49 % 1026,0 hPa 0,0 l/m 1,9 km/h (1 Bft) N-NO 16 2 min 0,000 mm 2,2 UV-I 532 W/m 10,9 C 22,1 C 3,2 km/h (1 Bft) 97,87 %
16.05.2017 16:50 22,1 C 21,7 C 54 % 1026,0 hPa 0,0 l/m 2,2 km/h (1 Bft) N-NO 16 2 min 0,000 mm 2,1 UV-I 527 W/m 12,3 C 22,1 C 4,8 km/h (1 Bft) 98,18 %
16.05.2017 16:52 22,0 C 21,7 C 50 % 1026,0 hPa 0,0 l/m 2,4 km/h (1 Bft) NO 34 2 min 0,000 mm 2,1 UV-I 521 W/m 11,1 C 22,0 C 4,8 km/h (1 Bft) 97,87 %
16.05.2017 16:54 22,1 C 21,7 C 54 % 1025,9 hPa 0,0 l/m 4,5 km/h (1 Bft) N-NO 28 2 min 0,000 mm 2,1 UV-I 517 W/m 12,3 C 22,1 C 8,0 km/h (2 Bft) 100,00 %
16.05.2017 16:56 22,1 C 21,7 C 50 % 1025,9 hPa 0,0 l/m 6,8 km/h (2 Bft) NO 42 2 min 0,000 mm 2,0 UV-I 497 W/m 11,2 C 22,0 C 9,7 km/h (2 Bft) 97,87 %
16.05.2017 16:58 22,1 C 21,7 C 50 % 1025,9 hPa 0,0 l/m 1,7 km/h (1 Bft) NO 39 2 min 0,000 mm 2,0 UV-I 497 W/m 11,2 C 22,1 C 4,8 km/h (1 Bft) 97,87 %
16.05.2017 17:00 22,1 C 21,7 C 46 % 1025,9 hPa 0,0 l/m 0,5 km/h (0 Bft) NO 39 2 min 0,356 mm 2,0 UV-I 500 W/m 9,9 C 22,1 C 3,2 km/h (1 Bft) 97,87 %
16.05.2017 17:02 22,2 C 21,7 C 53 % 1025,8 hPa 0,0 l/m 1,9 km/h (1 Bft) NO 39 2 min 0,000 mm 1,9 UV-I 501 W/m 12,2 C 22,2 C 4,8 km/h (1 Bft) 98,00 %
16.05.2017 17:04 22,3 C 21,7 C 50 % 1025,8 hPa 0,0 l/m 2,3 km/h (1 Bft) N 355 2 min 0,000 mm 1,9 UV-I 499 W/m 11,4 C 22,3 C 4,8 km/h (1 Bft) 96,23 %
16.05.2017 17:06 22,3 C 21,7 C 52 % 1025,8 hPa 0,0 l/m 2,1 km/h (1 Bft) O-NO 71 2 min 0,000 mm 1,9 UV-I 493 W/m 12,0 C 22,3 C 4,8 km/h (1 Bft) 100,00 %
16.05.2017 17:08 22,3 C 21,7 C 52 % 1025,7 hPa 0,0 l/m 3,2 km/h (1 Bft) N-NO 24 2 min 0,000 mm 1,8 UV-I 488 W/m 12,0 C 22,3 C 8,0 km/h (2 Bft) 97,87 %
16.05.2017 17:10 22,3 C 21,7 C 51 % 1025,8 hPa 0,0 l/m 2,5 km/h (1 Bft) NO 45 2 min 0,000 mm 1,8 UV-I 485 W/m 11,7 C 22,3 C 8,0 km/h (2 Bft) 98,11 %
16.05.2017 17:12 22,2 C 21,7 C 53 % 1025,7 hPa 0,0 l/m 2,3 km/h (1 Bft) N-NO 17 2 min 0,000 mm 1,8 UV-I 483 W/m 12,2 C 22,2 C 6,4 km/h (2 Bft) 97,62 %
16.05.2017 17:14 22,1 C 21,7 C 55 % 1025,8 hPa 0,0 l/m 2,8 km/h (1 Bft) N-NO 17 2 min 0,000 mm 1,7 UV-I 474 W/m 12,6 C 22,1 C 4,8 km/h (1 Bft) 98,00 %
16.05.2017 17:16 22,1 C 21,7 C 55 % 1025,7 hPa 0,0 l/m 3,0 km/h (1 Bft) N-NO 17 2 min 0,000 mm 1,7 UV-I 460 W/m 12,6 C 22,1 C 6,4 km/h (2 Bft) 98,00 %
16.05.2017 17:18 22,2 C 21,7 C 56 % 1025,7 hPa 0,0 l/m 5,3 km/h (1 Bft) N 9 2 min 0,000 mm 1,6 UV-I 454 W/m 13,0 C 22,2 C 9,7 km/h (2 Bft) 97,56 %
16.05.2017 17:20 22,1 C 21,7 C 51 % 1025,7 hPa 0,0 l/m 3,7 km/h (1 Bft) N 350 2 min 0,000 mm 1,6 UV-I 448 W/m 11,5 C 22,1 C 6,4 km/h (2 Bft) 100,00 %
16.05.2017 17:22 22,0 C 21,7 C 51 % 1025,7 hPa 0,0 l/m 4,2 km/h (1 Bft) NW 311 2 min 0,000 mm 1,5 UV-I 447 W/m 11,4 C 22,0 C 6,4 km/h (2 Bft) 98,11 %
16.05.2017 17:24 22,1 C 21,7 C 47 % 1025,7 hPa 0,0 l/m 2,3 km/h (1 Bft) NW 317 2 min 0,000 mm 1,5 UV-I 432 W/m 10,3 C 22,1 C 4,8 km/h (1 Bft) 100,00 %
16.05.2017 17:26 22,0 C 21,7 C 51 % 1025,6 hPa 0,0 l/m 2,2 km/h (1 Bft) NW 315 2 min 0,000 mm 1,5 UV-I 415 W/m 11,4 C 22,0 C 6,4 km/h (2 Bft) 98,33 %
16.05.2017 17:28 21,9 C 21,7 C 48 % 1025,6 hPa 0,0 l/m 4,1 km/h (1 Bft) W-NW 299 2 min 0,000 mm 1,4 UV-I 416 W/m 10,4 C 21,9 C 6,4 km/h (2 Bft) 100,00 %
16.05.2017 17:30 22,0 C 21,7 C 46 % 1025,6 hPa 0,0 l/m 2,7 km/h (1 Bft) W-NW 301 2 min 0,000 mm 1,4 UV-I 427 W/m 9,8 C 22,0 C 4,8 km/h (1 Bft) 100,00 %
16.05.2017 17:32 22,0 C 21,7 C 47 % 1025,6 hPa 0,0 l/m 1,9 km/h (1 Bft) W-NW 286 2 min 0,000 mm 1,4 UV-I 426 W/m 10,2 C 22,0 C 4,8 km/h (1 Bft) 97,56 %
16.05.2017 17:34 22,1 C 21,7 C 48 % 1025,6 hPa 0,0 l/m 1,5 km/h (1 Bft) NW 311 2 min 0,000 mm 1,4 UV-I 421 W/m 10,6 C 22,1 C 4,8 km/h (1 Bft) 98,00 %
16.05.2017 17:36 22,0 C 21,7 C 50 % 1025,6 hPa 0,0 l/m 1,6 km/h (1 Bft) N-NW 347 2 min 0,000 mm 1,3 UV-I 415 W/m 11,1 C 22,0 C 3,2 km/h (1 Bft) 100,00 %
16.05.2017 17:38 21,9 C 21,7 C 48 % 1025,6 hPa 0,0 l/m 1,9 km/h (1 Bft) NW 316 2 min 0,000 mm 1,3 UV-I 407 W/m 10,4 C 21,9 C 4,8 km/h (1 Bft) 98,08 %
16.05.2017 17:40 21,9 C 22,2 C 48 % 1025,5 hPa 0,0 l/m 1,9 km/h (1 Bft) NW 306 2 min 0,000 mm 1,3 UV-I 399 W/m 10,4 C 21,9 C 4,8 km/h (1 Bft) 97,87 %
16.05.2017 17:42 22,0 C 22,2 C 48 % 1025,6 hPa 0,0 l/m 2,5 km/h (1 Bft) NW 320 2 min 0,000 mm 1,2 UV-I 390 W/m 10,5 C 22,0 C 4,8 km/h (1 Bft) 98,11 %
16.05.2017 17:44 22,0 C 22,2 C 46 % 1025,5 hPa 0,0 l/m 3,3 km/h (1 Bft) NW 315 2 min 0,000 mm 1,2 UV-I 378 W/m 9,8 C 22,0 C 6,4 km/h (2 Bft) 97,56 %
16.05.2017 17:46 22,1 C 22,2 C 50 % 1025,5 hPa 0,0 l/m 2,6 km/h (1 Bft) W-NW 286 2 min 0,000 mm 1,2 UV-I 358 W/m 11,2 C 22,1 C 6,4 km/h (2 Bft) 100,00 %
16.05.2017 17:48 22,2 C 22,2 C 50 % 1025,5 hPa 0,0 l/m 2,8 km/h (1 Bft) N-NO 31 2 min 0,000 mm 1,1 UV-I 349 W/m 11,3 C 22,2 C 8,0 km/h (2 Bft) 95,83 %
16.05.2017 17:50 22,1 C 22,2 C 51 % 1025,5 hPa 0,0 l/m 3,7 km/h (1 Bft) N-NO 31 2 min 0,000 mm 1,1 UV-I 354 W/m 11,5 C 22,1 C 6,4 km/h (2 Bft) 97,01 %
16.05.2017 17:52 22,0 C 22,2 C 53 % 1025,5 hPa 0,0 l/m 1,1 km/h (1 Bft) NW 312 2 min 0,000 mm 1,1 UV-I 352 W/m 12,0 C 22,0 C 3,2 km/h (1 Bft) 100,00 %
16.05.2017 17:54 22,0 C 22,2 C 45 % 1025,5 hPa 0,0 l/m 2,4 km/h (1 Bft) NW 311 2 min 0,000 mm 1,0 UV-I 353 W/m 9,5 C 22,0 C 3,2 km/h (1 Bft) 97,92 %
16.05.2017 17:56 22,0 C 22,2 C 47 % 1025,4 hPa 0,0 l/m 2,0 km/h (1 Bft) NO 37 2 min 0,000 mm 1,0 UV-I 352 W/m 10,2 C 22,0 C 6,4 km/h (2 Bft) 100,00 %
16.05.2017 17:59 21,9 C 22,2 C 50 % 1025,4 hPa 0,0 l/m 3,8 km/h (1 Bft) N 10 3 min 0,000 mm 1,0 UV-I 335 W/m 11,0 C 21,9 C 6,4 km/h (2 Bft) 97,37 %
16.05.2017 18:00 21,9 C 22,2 C 51 % 1025,4 hPa 0,0 l/m 1,8 km/h (1 Bft) N 5 1 min 0,000 mm 0,9 UV-I 324 W/m 11,3 C 21,9 C 3,2 km/h (1 Bft) 95,83 %
16.05.2017 18:04 21,8 C 22,2 C 48 % 1025,4 hPa 0,0 l/m 1,1 km/h (1 Bft) N-NW 337 4 min 0,279 mm 0,9 UV-I 311 W/m 10,3 C 21,8 C 3,2 km/h (1 Bft) 95,00 %
16.05.2017 18:06 21,8 C 22,2 C 49 % 1025,4 hPa 0,0 l/m 0,7 km/h (0 Bft) N-NW 337 2 min 0,000 mm 0,9 UV-I 300 W/m 10,6 C 21,8 C 1,6 km/h (1 Bft) 97,37 %
16.05.2017 18:08 21,8 C 22,2 C 50 % 1025,4 hPa 0,0 l/m 3,5 km/h (1 Bft) NO 50 2 min 0,000 mm 0,8 UV-I 294 W/m 10,9 C 21,8 C 6,4 km/h (2 Bft) 98,00 %
16.05.2017 18:10 21,8 C 22,2 C 51 % 1025,4 hPa 0,0 l/m 6,6 km/h (2 Bft) N-NO 15 2 min 0,000 mm 0,8 UV-I 279 W/m 11,2 C 21,7 C 11,3 km/h (2 Bft) 95,45 %
16.05.2017 18:12 21,8 C 22,2 C 51 % 1025,4 hPa 0,0 l/m 0,7 km/h (0 Bft) N 9 2 min 0,000 mm 0,8 UV-I 289 W/m 11,2 C 21,8 C 1,6 km/h (1 Bft) 96,23 %
16.05.2017 18:14 21,7 C 22,2 C 49 % 1025,4 hPa 0,0 l/m 1,0 km/h (0 Bft) N 355 2 min 0,000 mm 0,8 UV-I 293 W/m 10,5 C 21,7 C 3,2 km/h (1 Bft) 92,68 %
16.05.2017 18:16 21,6 C 22,2 C 49 % 1025,3 hPa 0,0 l/m 0,2 km/h (0 Bft) N 355 2 min 0,000 mm 0,7 UV-I 289 W/m 10,4 C 21,6 C 1,6 km/h (1 Bft) 96,23 %
16.05.2017 18:18 21,7 C 22,2 C 50 % 1025,3 hPa 0,0 l/m 0,2 km/h (0 Bft) N 355 2 min 0,000 mm 0,7 UV-I 284 W/m 10,8 C 21,7 C 1,6 km/h (1 Bft) 97,37 %
16.05.2017 18:20 21,7 C 22,2 C 52 % 1025,3 hPa 0,0 l/m 0,8 km/h (0 Bft) N 355 2 min 0,000 mm 0,7 UV-I 276 W/m 11,4 C 21,7 C 3,2 km/h (1 Bft) 93,62 %
16.05.2017 18:22 21,7 C 22,2 C 52 % 1025,3 hPa 0,0 l/m 0,7 km/h (0 Bft) N 355 2 min 0,000 mm 0,7 UV-I 269 W/m 11,4 C 21,7 C 3,2 km/h (1 Bft) 96,23 %
16.05.2017 18:24 21,7 C 22,2 C 51 % 1025,3 hPa 0,0 l/m 2,3 km/h (1 Bft) N 355 2 min 0,000 mm 0,7 UV-I 265 W/m 11,1 C 21,7 C 3,2 km/h (1 Bft) 94,00 %
16.05.2017 18:26 21,7 C 22,2 C 51 % 1025,3 hPa 0,0 l/m 1,8 km/h (1 Bft) N 5 2 min 0,000 mm 0,6 UV-I 264 W/m 11,1 C 21,7 C 4,8 km/h (1 Bft) 94,74 %
16.05.2017 18:28 21,7 C 22,2 C 53 % 1025,3 hPa 0,0 l/m 1,7 km/h (1 Bft) N 355 2 min 0,000 mm 0,6 UV-I 250 W/m 11,7 C 21,7 C 6,4 km/h (2 Bft) 98,00 %
16.05.2017 18:30 21,7 C 22,2 C 53 % 1025,3 hPa 0,0 l/m 0,5 km/h (0 Bft) N 355 2 min 0,000 mm 0,6 UV-I 249 W/m 11,7 C 21,7 C 3,2 km/h (1 Bft) 98,00 %
16.05.2017 18:32 21,6 C 22,2 C 50 % 1025,3 hPa 0,0 l/m 1,0 km/h (0 Bft) N 355 2 min 0,000 mm 0,6 UV-I 233 W/m 10,7 C 21,6 C 3,2 km/h (1 Bft) 98,00 %
16.05.2017 18:34 21,6 C 22,2 C 49 % 1025,3 hPa 0,0 l/m 1,4 km/h (1 Bft) N-NW 334 2 min 0,000 mm 0,5 UV-I 242 W/m 10,4 C 21,6 C 3,2 km/h (1 Bft) 100,00 %
16.05.2017 18:36 21,5 C 22,2 C 52 % 1025,3 hPa 0,0 l/m 2,5 km/h (1 Bft) N-NO 23 2 min 0,000 mm 0,5 UV-I 240 W/m 11,2 C 21,5 C 6,4 km/h (2 Bft) 97,14 %
16.05.2017 18:38 21,4 C 22,2 C 50 % 1025,3 hPa 0,0 l/m 3,8 km/h (1 Bft) NO 45 2 min 0,000 mm 0,5 UV-I 212 W/m 10,5 C 21,4 C 6,4 km/h (2 Bft) 98,53 %
16.05.2017 18:40 21,4 C 22,2 C 49 % 1025,3 hPa 0,0 l/m 4,9 km/h (1 Bft) NO 49 2 min 0,000 mm 0,5 UV-I 220 W/m 10,2 C 21,4 C 6,4 km/h (2 Bft) 100,00 %
16.05.2017 18:42 21,6 C 22,2 C 52 % 1025,3 hPa 0,0 l/m 5,1 km/h (1 Bft) N-NO 31 2 min 0,000 mm 0,5 UV-I 220 W/m 11,3 C 21,6 C 8,0 km/h (2 Bft) 98,53 %
16.05.2017 18:44 21,5 C 22,2 C 52 % 1025,3 hPa 0,0 l/m 4,7 km/h (1 Bft) NO 49 2 min 0,000 mm 0,3 UV-I 215 W/m 11,2 C 21,5 C 8,0 km/h (2 Bft) 100,00 %
16.05.2017 18:46 21,6 C 22,2 C 47 % 1025,3 hPa 0,0 l/m 5,2 km/h (1 Bft) NO 42 2 min 0,000 mm 0,0 UV-I 212 W/m 9,8 C 21,6 C 8,0 km/h (2 Bft) 100,00 %
16.05.2017 18:49 21,3 C 22,2 C 52 % 1025,3 hPa 0,0 l/m 3,1 km/h (1 Bft) NO 40 3 min 0,000 mm 0,0 UV-I 202 W/m 11,0 C 21,3 C 8,0 km/h (2 Bft) 98,59 %
16.05.2017 18:50 21,3 C 22,2 C 49 % 1025,3 hPa 0,0 l/m 6,6 km/h (2 Bft) NO 51 1 min 0,000 mm 0,0 UV-I 190 W/m 10,1 C 21,2 C 8,0 km/h (2 Bft) 96,15 %
16.05.2017 18:52 21,3 C 22,2 C 50 % 1025,3 hPa 0,0 l/m 4,5 km/h (1 Bft) NO 51 2 min 0,000 mm 0,0 UV-I 189 W/m 10,4 C 21,3 C 6,4 km/h (2 Bft) 100,00 %
16.05.2017 18:54 21,3 C 22,2 C 50 % 1025,3 hPa 0,0 l/m 6,6 km/h (2 Bft) N-NO 30 2 min 0,000 mm 0,0 UV-I 182 W/m 10,4 C 21,2 C 9,7 km/h (2 Bft) 100,00 %
16.05.2017 18:56 21,2 C 22,2 C 52 % 1025,4 hPa 0,0 l/m 7,2 km/h (2 Bft) NO 36 2 min 0,000 mm 0,0 UV-I 178 W/m 10,9 C 20,9 C 9,7 km/h (2 Bft) 100,00 %
16.05.2017 18:58 21,1 C 22,2 C 52 % 1025,4 hPa 0,0 l/m 5,5 km/h (1 Bft) NO 51 2 min 0,000 mm 0,0 UV-I 167 W/m 10,9 C 21,1 C 6,4 km/h (2 Bft) 100,00 %
16.05.2017 19:00 21,2 C 22,2 C 49 % 1025,3 hPa 0,0 l/m 5,3 km/h (1 Bft) NO 52 2 min 0,000 mm 0,0 UV-I 164 W/m 10,1 C 21,2 C 8,0 km/h (2 Bft) 100,00 %
16.05.2017 19:03 21,2 C 22,2 C 51 % 1025,3 hPa 0,0 l/m 3,4 km/h (1 Bft) NO 50 3 min 0,178 mm 0,0 UV-I 158 W/m 10,7 C 21,2 C 6,4 km/h (2 Bft) 98,46 %
16.05.2017 19:04 21,2 C 22,2 C 50 % 1025,3 hPa 0,0 l/m 2,8 km/h (1 Bft) NO 50 1 min 0,000 mm 0,0 UV-I 152 W/m 10,4 C 21,2 C 4,8 km/h (1 Bft) 100,00 %
16.05.2017 19:06 21,2 C 22,2 C 50 % 1025,3 hPa 0,0 l/m 4,2 km/h (1 Bft) NO 44 2 min 0,000 mm 0,0 UV-I 153 W/m 10,4 C 21,2 C 6,4 km/h (2 Bft) 100,00 %
16.05.2017 19:08 21,2 C 22,2 C 49 % 1025,3 hPa 0,0 l/m 2,4 km/h (1 Bft) NO 44 2 min 0,000 mm 0,0 UV-I 141 W/m 10,1 C 21,2 C 3,2 km/h (1 Bft) 100,00 %
16.05.2017 19:10 21,2 C 22,2 C 50 % 1025,3 hPa 0,0 l/m 1,1 km/h (1 Bft) NO 44 2 min 0,000 mm 0,0 UV-I 142 W/m 10,4 C 21,2 C 3,2 km/h (1 Bft) 100,00 %
16.05.2017 19:12 21,2 C 22,2 C 53 % 1025,3 hPa 0,0 l/m 0,7 km/h (0 Bft) NO 37 2 min 0,000 mm 0,0 UV-I 137 W/m 11,2 C 21,2 C 1,6 km/h (1 Bft) 100,00 %
16.05.2017 19:14 21,1 C 22,2 C 53 % 1025,3 hPa 0,0 l/m 0,4 km/h (0 Bft) NO 37 2 min 0,000 mm 0,0 UV-I 131 W/m 11,1 C 21,1 C 1,6 km/h (1 Bft) 95,12 %
16.05.2017 19:16 21,2 C 22,2 C 52 % 1025,2 hPa 0,0 l/m 0,2 km/h (0 Bft) NO 37 2 min 0,000 mm 0,0 UV-I 127 W/m 10,9 C 21,2 C 1,6 km/h (1 Bft) 100,00 %
16.05.2017 19:18 21,2 C 22,2 C 53 % 1025,2 hPa 0,0 l/m 0,5 km/h (0 Bft) NO 37 2 min 0,000 mm 0,0 UV-I 125 W/m 11,2 C 21,2 C 1,6 km/h (1 Bft) 100,00 %
16.05.2017 19:20 21,2 C 22,2 C 49 % 1025,3 hPa 0,0 l/m 0,4 km/h (0 Bft) NO 37 2 min 0,000 mm 0,0 UV-I 123 W/m 10,1 C 21,2 C 1,6 km/h (1 Bft) 98,00 %
16.05.2017 19:22 21,2 C 22,2 C 51 % 1025,3 hPa 0,0 l/m 0,7 km/h (0 Bft) NO 37 2 min 0,000 mm 0,0 UV-I 109 W/m 10,7 C 21,2 C 3,2 km/h (1 Bft) 96,00 %
16.05.2017 19:24 21,2 C 22,2 C 52 % 1025,2 hPa 0,0 l/m 0,1 km/h (0 Bft) NO 37 2 min 0,000 mm 0,0 UV-I 101 W/m 10,9 C 21,2 C 1,6 km/h (1 Bft) 100,00 %
16.05.2017 19:26 21,1 C 21,7 C 51 % 1025,3 hPa 0,0 l/m 0,4 km/h (0 Bft) NO 37 2 min 0,000 mm 0,0 UV-I 99 W/m 10,6 C 21,1 C 1,6 km/h (1 Bft) 97,87 %
16.05.2017 19:28 21,0 C 21,7 C 53 % 1025,2 hPa 0,0 l/m 0,3 km/h (0 Bft) NO 37 2 min 0,000 mm 0,0 UV-I 94 W/m 11,0 C 21,0 C 1,6 km/h (1 Bft) 100,00 %
16.05.2017 19:30 20,9 C 21,7 C 55 % 1025,2 hPa 0,0 l/m 0,1 km/h (0 Bft) NO 37 2 min 0,000 mm 0,0 UV-I 94 W/m 11,5 C 20,9 C 1,6 km/h (1 Bft) 100,00 %
16.05.2017 19:32 20,9 C 21,7 C 51 % 1025,2 hPa 0,0 l/m 0,1 km/h (0 Bft) NO 37 0 min 0,000 mm 0,0 UV-I 81 W/m 10,4 C 20,9 C 1,6 km/h (1 Bft) 97,37 %
16.05.2017 19:34 20,8 C 21,7 C 51 % 1025,2 hPa 0,0 l/m 0,7 km/h (0 Bft) NO 37 0 min 0,000 mm 0,0 UV-I 64 W/m 10,3 C 20,8 C 4,8 km/h (1 Bft) 97,87 %
16.05.2017 19:36 20,7 C 21,7 C 52 % 1025,2 hPa 0,0 l/m 1,6 km/h (1 Bft) NO 37 0 min 0,000 mm 0,0 UV-I 61 W/m 10,5 C 20,7 C 4,8 km/h (1 Bft) 98,11 %
16.05.2017 19:38 20,6 C 21,7 C 53 % 1025,3 hPa 0,0 l/m 0,1 km/h (0 Bft) NO 37 0 min 0,000 mm 0,0 UV-I 54 W/m 10,7 C 20,6 C 1,6 km/h (1 Bft) 100,00 %
16.05.2017 19:40 20,6 C 21,7 C 52 % 1025,3 hPa 0,0 l/m 0,0 km/h (0 Bft) NO 37 0 min 0,000 mm 0,0 UV-I 48 W/m 10,4 C 20,6 C 1,6 km/h (1 Bft) 100,00 %
16.05.2017 19:42 20,6 C 21,7 C 51 % 1025,3 hPa 0,0 l/m 0,0 km/h (0 Bft) NO 37 0 min 0,000 mm 0,0 UV-I 42 W/m 10,1 C 20,6 C 0,0 km/h (0 Bft) 98,11 %
16.05.2017 19:44 20,6 C 21,7 C 51 % 1025,3 hPa 0,0 l/m 0,2 km/h (0 Bft) NO 37 0 min 0,000 mm 0,0 UV-I 39 W/m 10,1 C 20,6 C 1,6 km/h (1 Bft) 96,00 %
16.05.2017 19:46 20,5 C 21,7 C 52 % 1025,3 hPa 0,0 l/m 0,0 km/h (0 Bft) NO 37 0 min 0,000 mm 0,0 UV-I 40 W/m 10,3 C 20,5 C 1,6 km/h (1 Bft) 97,44 %
16.05.2017 19:48 20,6 C 21,7 C 52 % 1025,3 hPa 0,0 l/m 0,1 km/h (0 Bft) NO 37 0 min 0,000 mm 0,0 UV-I 47 W/m 10,4 C 20,6 C 1,6 km/h (1 Bft) 98,00 %
16.05.2017 19:50 20,6 C 21,7 C 50 % 1025,3 hPa 0,0 l/m 0,0 km/h (0 Bft) NO 37 0 min 0,000 mm 0,0 UV-I 47 W/m 9,8 C 20,6 C 1,6 km/h (1 Bft) 98,00 %
16.05.2017 19:52 20,3 C 21,7 C 58 % 1025,4 hPa 0,0 l/m 0,3 km/h (0 Bft) NO 37 0 min 0,000 mm 0,0 UV-I 53 W/m 11,8 C 20,3 C 1,6 km/h (1 Bft) 97,56 %
16.05.2017 19:54 19,9 C 21,7 C 59 % 1025,4 hPa 0,0 l/m 0,0 km/h (0 Bft) NO 37 2 min 0,000 mm 0,0 UV-I 57 W/m 11,6 C 19,9 C 1,6 km/h (1 Bft) 98,11 %
16.05.2017 19:56 19,7 C 21,7 C 59 % 1025,4 hPa 0,0 l/m 0,2 km/h (0 Bft) NO 37 2 min 0,000 mm 0,0 UV-I 55 W/m 11,5 C 19,7 C 1,6 km/h (1 Bft) 98,00 %
16.05.2017 19:58 19,4 C 21,7 C 63 % 1025,4 hPa 0,0 l/m 0,5 km/h (0 Bft) NO 37 2 min 0,000 mm 0,0 UV-I 52 W/m 12,2 C 19,4 C 1,6 km/h (1 Bft) 94,74 %
16.05.2017 20:00 19,2 C 21,7 C 61 % 1025,5 hPa 0,0 l/m 0,0 km/h (0 Bft) NO 37 2 min 0,000 mm 0,0 UV-I 47 W/m 11,5 C 19,2 C 0,0 km/h (0 Bft) 93,62 %
16.05.2017 20:02 19,0 C 21,7 C 63 % 1025,5 hPa 0,0 l/m 0,0 km/h (0 Bft) NO 37 2 min 0,076 mm 0,0 UV-I 46 W/m 11,8 C 19,0 C 0,0 km/h (0 Bft) 96,00 %
16.05.2017 20:04 18,8 C 21,7 C 63 % 1025,4 hPa 0,0 l/m 0,4 km/h (0 Bft) NO 37 2 min 0,000 mm 0,0 UV-I 42 W/m 11,6 C 18,8 C 1,6 km/h (1 Bft) 92,45 %
16.05.2017 20:06 18,7 C 21,7 C 65 % 1025,5 hPa 0,0 l/m 1,1 km/h (1 Bft) NO 37 2 min 0,000 mm 0,0 UV-I 38 W/m 12,0 C 18,7 C 3,2 km/h (1 Bft) 95,12 %
16.05.2017 20:08 18,6 C 21,7 C 63 % 1025,4 hPa 0,0 l/m 0,9 km/h (0 Bft) NO 37 2 min 0,000 mm 0,0 UV-I 34 W/m 11,4 C 18,6 C 1,6 km/h (1 Bft) 95,74 %
16.05.2017 20:10 18,5 C 21,7 C 64 % 1025,4 hPa 0,0 l/m 0,8 km/h (0 Bft) NO 37 2 min 0,000 mm 0,0 UV-I 31 W/m 11,6 C 18,5 C 1,6 km/h (1 Bft) 96,15 %
16.05.2017 20:12 18,4 C 21,7 C 64 % 1025,4 hPa 0,0 l/m 0,2 km/h (0 Bft) NO 37 2 min 0,000 mm 0,0 UV-I 28 W/m 11,5 C 18,4 C 1,6 km/h (1 Bft) 96,15 %
16.05.2017 20:14 18,3 C 21,7 C 64 % 1025,4 hPa 0,0 l/m 0,0 km/h (0 Bft) NO 37 2 min 0,000 mm 0,0 UV-I 28 W/m 11,4 C 18,3 C 0,0 km/h (0 Bft) 93,55 %
16.05.2017 20:16 18,2 C 21,7 C 66 % 1025,4 hPa 0,0 l/m 0,0 km/h (0 Bft) NO 37 2 min 0,000 mm 0,0 UV-I 26 W/m 11,7 C 18,2 C 0,0 km/h (0 Bft) 92,45 %
16.05.2017 20:18 18,1 C 21,7 C 67 % 1025,4 hPa 0,0 l/m 0,0 km/h (0 Bft) NO 37 2 min 0,000 mm 0,0 UV-I 25 W/m 11,9 C 18,1 C 0,0 km/h (0 Bft) 95,74 %
16.05.2017 20:20 17,9 C 21,7 C 69 % 1025,4 hPa 0,0 l/m 0,0 km/h (0 Bft) NO 37 2 min 0,000 mm 0,0 UV-I 22 W/m 12,1 C 17,9 C 0,0 km/h (0 Bft) 94,74 %
16.05.2017 20:22 17,8 C 21,7 C 68 % 1025,4 hPa 0,0 l/m 0,0 km/h (0 Bft) NO 37 2 min 0,000 mm 0,0 UV-I 19 W/m 11,8 C 17,8 C 0,0 km/h (0 Bft) 93,62 %
16.05.2017 20:24 17,8 C 21,7 C 69 % 1025,4 hPa 0,0 l/m 0,0 km/h (0 Bft) NO 37 2 min 0,000 mm 0,0 UV-I 18 W/m 12,0 C 17,8 C 0,0 km/h (0 Bft) 95,74 %
16.05.2017 20:26 17,7 C 21,7 C 69 % 1025,4 hPa 0,0 l/m 0,0 km/h (0 Bft) NO 37 2 min 0,000 mm 0,0 UV-I 17 W/m 11,9 C 17,7 C 0,0 km/h (0 Bft) 95,83 %
16.05.2017 20:28 17,7 C 21,7 C 72 % 1025,5 hPa 0,0 l/m 0,0 km/h (0 Bft) NO 37 0 min 0,000 mm 0,0 UV-I 15 W/m 12,6 C 17,7 C 0,0 km/h (0 Bft) 95,74 %
16.05.2017 20:30 17,5 C 21,7 C 72 % 1025,5 hPa 0,0 l/m 0,6 km/h (0 Bft) NO 37 0 min 0,000 mm 0,0 UV-I 14 W/m 12,4 C 17,5 C 1,6 km/h (1 Bft) 94,23 %
16.05.2017 20:32 17,4 C 21,7 C 72 % 1025,5 hPa 0,0 l/m 0,2 km/h (0 Bft) NO 37 0 min 0,000 mm 0,0 UV-I 12 W/m 12,3 C 17,4 C 1,6 km/h (1 Bft) 93,62 %
16.05.2017 20:34 17,3 C 21,7 C 73 % 1025,5 hPa 0,0 l/m 1,3 km/h (1 Bft) NO 37 0 min 0,000 mm 0,0 UV-I 11 W/m 12,4 C 17,3 C 3,2 km/h (1 Bft) 96,00 %
16.05.2017 20:36 17,2 C 21,7 C 73 % 1025,5 hPa 0,0 l/m 0,5 km/h (0 Bft) NO 37 0 min 0,000 mm 0,0 UV-I 10 W/m 12,3 C 17,2 C 1,6 km/h (1 Bft) 92,68 %
16.05.2017 20:38 17,1 C 21,7 C 75 % 1025,5 hPa 0,0 l/m 0,9 km/h (0 Bft) NO 37 0 min 0,000 mm 0,0 UV-I 9 W/m 12,6 C 17,1 C 1,6 km/h (1 Bft) 97,37 %
16.05.2017 20:40 17,1 C 21,7 C 71 % 1025,5 hPa 0,0 l/m 0,8 km/h (0 Bft) NO 37 0 min 0,000 mm 0,0 UV-I 8 W/m 11,8 C 17,1 C 1,6 km/h (1 Bft) 96,23 %
16.05.2017 20:42 17,1 C 21,7 C 70 % 1025,6 hPa 0,0 l/m 0,1 km/h (0 Bft) NO 37 0 min 0,000 mm 0,0 UV-I 7 W/m 11,6 C 17,1 C 1,6 km/h (1 Bft) 96,23 %
16.05.2017 20:44 17,1 C 21,7 C 70 % 1025,5 hPa 0,0 l/m 0,1 km/h (0 Bft) NO 37 0 min 0,000 mm 0,0 UV-I 7 W/m 11,6 C 17,1 C 1,6 km/h (1 Bft) 97,37 %
16.05.2017 20:46 17,0 C 21,7 C 68 % 1025,6 hPa 0,0 l/m 0,0 km/h (0 Bft) NO 37 0 min 0,000 mm 0,0 UV-I 5 W/m 11,0 C 17,0 C 1,6 km/h (1 Bft) 95,74 %
16.05.2017 20:48 16,9 C 21,7 C 67 % 1025,6 hPa 0,0 l/m 0,0 km/h (0 Bft) NO 37 0 min 0,000 mm 0,0 UV-I 5 W/m 10,7 C 16,9 C 1,6 km/h (1 Bft) 94,34 %
16.05.2017 20:50 16,9 C 21,7 C 67 % 1025,6 hPa 0,0 l/m 0,0 km/h (0 Bft) NO 37 0 min 0,000 mm 0,0 UV-I 5 W/m 10,7 C 16,9 C 0,0 km/h (0 Bft) 91,49 %
16.05.2017 20:52 16,8 C 21,7 C 68 % 1025,6 hPa 0,0 l/m 0,0 km/h (0 Bft) NO 37 0 min 0,000 mm 0,0 UV-I 5 W/m 10,9 C 16,8 C 0,0 km/h (0 Bft) 96,00 %
16.05.2017 20:54 16,6 C 21,7 C 68 % 1025,6 hPa 0,0 l/m 0,0 km/h (0 Bft) NO 37 0 min 0,000 mm 0,0 UV-I 5 W/m 10,7 C 16,6 C 0,0 km/h (0 Bft) 97,56 %
16.05.2017 20:56 16,4 C 21,7 C 69 % 1025,6 hPa 0,0 l/m 0,0 km/h (0 Bft) NO 37 0 min 0,000 mm 0,0 UV-I 5 W/m 10,7 C 16,4 C 0,0 km/h (0 Bft) 95,74 %
16.05.2017 20:58 16,3 C 21,7 C 68 % 1025,6 hPa 0,0 l/m 0,0 km/h (0 Bft) NO 37 0 min 0,000 mm 0,0 UV-I 3 W/m 10,4 C 16,3 C 0,0 km/h (0 Bft) 98,00 %
16.05.2017 21:00 16,4 C 21,7 C 69 % 1025,6 hPa 0,0 l/m 0,0 km/h (0 Bft) NO 37 0 min 0,000 mm 0,0 UV-I 0 W/m 10,7 C 16,4 C 0,0 km/h (0 Bft) 95,12 %
16.05.2017 21:03 16,4 C 21,7 C 73 % 1025,7 hPa 0,0 l/m 0,0 km/h (0 Bft) NO 37 0 min 0,026 mm 0,0 UV-I 0 W/m 11,5 C 16,4 C 1,6 km/h (1 Bft) 95,95 %
16.05.2017 21:04 16,4 C 21,7 C 74 % 1025,7 hPa 0,0 l/m 0,0 km/h (0 Bft) NO 37 0 min 0,000 mm 0,0 UV-I 0 W/m 11,8 C 16,4 C 0,0 km/h (0 Bft) 100,00 %
16.05.2017 21:06 16,3 C 21,7 C 72 % 1025,7 hPa 0,0 l/m 0,0 km/h (0 Bft) NO 37 0 min 0,000 mm 0,0 UV-I 0 W/m 11,2 C 16,3 C 0,0 km/h (0 Bft) 97,44 %
16.05.2017 21:08 16,3 C 21,7 C 74 % 1025,7 hPa 0,0 l/m 0,4 km/h (0 Bft) NO 37 0 min 0,000 mm 0,0 UV-I 0 W/m 11,7 C 16,3 C 1,6 km/h (1 Bft) 98,00 %
16.05.2017 21:10 16,2 C 21,7 C 73 % 1025,7 hPa 0,0 l/m 1,8 km/h (1 Bft) NO 37 0 min 0,000 mm 0,0 UV-I 0 W/m 11,4 C 16,2 C 3,2 km/h (1 Bft) 97,87 %
16.05.2017 21:12 16,1 C 21,7 C 74 % 1025,7 hPa 0,0 l/m 1,3 km/h (1 Bft) NO 37 0 min 0,000 mm 0,0 UV-I 0 W/m 11,5 C 16,1 C 1,6 km/h (1 Bft) 92,68 %
16.05.2017 21:14 15,9 C 21,7 C 74 % 1025,7 hPa 0,0 l/m 1,0 km/h (0 Bft) NO 37 0 min 0,000 mm 0,0 UV-I 0 W/m 11,3 C 15,9 C 1,6 km/h (1 Bft) 100,00 %
16.05.2017 21:16 15,8 C 21,7 C 74 % 1025,7 hPa 0,0 l/m 1,5 km/h (1 Bft) NO 37 0 min 0,000 mm 0,0 UV-I 0 W/m 11,2 C 15,8 C 3,2 km/h (1 Bft) 100,00 %
16.05.2017 21:18 15,8 C 21,7 C 75 % 1025,7 hPa 0,0 l/m 0,2 km/h (0 Bft) NO 37 0 min 0,000 mm 0,0 UV-I 0 W/m 11,4 C 15,8 C 1,6 km/h (1 Bft) 97,87 %
16.05.2017 21:20 15,6 C 21,7 C 72 % 1025,7 hPa 0,0 l/m 0,5 km/h (0 Bft) NO 37 0 min 0,000 mm 0,0 UV-I 0 W/m 10,6 C 15,6 C 1,6 km/h (1 Bft) 100,00 %
16.05.2017 21:22 15,5 C 21,7 C 74 % 1025,7 hPa 0,0 l/m 1,5 km/h (1 Bft) NO 37 0 min 0,000 mm 0,0 UV-I 0 W/m 10,9 C 15,5 C 3,2 km/h (1 Bft) 96,00 %
16.05.2017 21:24 15,5 C 21,7 C 76 % 1025,7 hPa 0,0 l/m 2,3 km/h (1 Bft) NO 37 0 min 0,000 mm 0,0 UV-I 0 W/m 11,3 C 15,5 C 3,2 km/h (1 Bft) 97,73 %
16.05.2017 21:26 15,4 C 21,7 C 78 % 1025,7 hPa 0,0 l/m 2,6 km/h (1 Bft) NO 37 0 min 0,000 mm 0,0 UV-I 0 W/m 11,6 C 15,4 C 3,2 km/h (1 Bft) 94,34 %
16.05.2017 21:28 15,3 C 21,7 C 78 % 1025,7 hPa 0,0 l/m 0,8 km/h (0 Bft) NO 37 0 min 0,000 mm 0,0 UV-I 0 W/m 11,5 C 15,3 C 3,2 km/h (1 Bft) 97,37 %
16.05.2017 21:30 15,3 C 21,7 C 76 % 1025,7 hPa 0,0 l/m 0,2 km/h (0 Bft) NO 37 0 min 0,000 mm 0,0 UV-I 0 W/m 11,1 C 15,3 C 1,6 km/h (1 Bft) 100,00 %
16.05.2017 21:32 15,3 C 21,7 C 74 % 1025,7 hPa 0,0 l/m 1,6 km/h (1 Bft) NO 37 0 min 0,000 mm 0,0 UV-I 0 W/m 10,7 C 15,3 C 3,2 km/h (1 Bft) 95,74 %
16.05.2017 21:34 15,4 C 21,7 C 74 % 1025,7 hPa 0,0 l/m 1,5 km/h (1 Bft) NO 37 0 min 0,000 mm 0,0 UV-I 0 W/m 10,8 C 15,4 C 3,2 km/h (1 Bft) 97,73 %
16.05.2017 21:36 15,5 C 21,7 C 74 % 1025,8 hPa 0,0 l/m 1,6 km/h (1 Bft) NO 37 0 min 0,000 mm 0,0 UV-I 0 W/m 10,9 C 15,5 C 3,2 km/h (1 Bft) 100,00 %
16.05.2017 21:38 15,4 C 21,7 C 75 % 1025,8 hPa 0,0 l/m 1,3 km/h (1 Bft) NO 37 0 min 0,000 mm 0,0 UV-I 0 W/m 11,0 C 15,4 C 3,2 km/h (1 Bft) 100,00 %
16.05.2017 21:40 15,4 C 21,7 C 76 % 1025,8 hPa 0,0 l/m 0,6 km/h (0 Bft) NO 37 0 min 0,000 mm 0,0 UV-I 0 W/m 11,2 C 15,4 C 1,6 km/h (1 Bft) 100,00 %
16.05.2017 21:42 15,4 C 21,7 C 76 % 1025,8 hPa 0,0 l/m 0,3 km/h (0 Bft) NO 37 0 min 0,000 mm 0,0 UV-I 0 W/m 11,2 C 15,4 C 1,6 km/h (1 Bft) 100,00 %
16.05.2017 21:44 15,3 C 21,7 C 77 % 1025,8 hPa 0,0 l/m 0,0 km/h (0 Bft) NO 37 0 min 0,000 mm 0,0 UV-I 0 W/m 11,3 C 15,3 C 0,0 km/h (0 Bft) 95,74 %
16.05.2017 21:46 15,3 C 21,7 C 76 % 1025,8 hPa 0,0 l/m 0,0 km/h (0 Bft) NO 37 0 min 0,000 mm 0,0 UV-I 0 W/m 11,1 C 15,3 C 0,0 km/h (0 Bft) 94,87 %
16.05.2017 21:48 15,4 C 21,7 C 76 % 1025,8 hPa 0,0 l/m 0,1 km/h (0 Bft) NO 37 0 min 0,000 mm 0,0 UV-I 0 W/m 11,2 C 15,4 C 1,6 km/h (1 Bft) 92,00 %
16.05.2017 21:50 15,4 C 21,7 C 76 % 1025,8 hPa 0,0 l/m 0,6 km/h (0 Bft) NO 37 0 min 0,000 mm 0,0 UV-I 0 W/m 11,2 C 15,4 C 1,6 km/h (1 Bft) 97,87 %
16.05.2017 21:52 15,3 C 21,7 C 76 % 1025,8 hPa 0,0 l/m 2,0 km/h (1 Bft) NO 37 0 min 0,000 mm 0,0 UV-I 0 W/m 11,1 C 15,3 C 3,2 km/h (1 Bft) 94,34 %
16.05.2017 21:54 15,3 C 21,7 C 75 % 1025,8 hPa 0,0 l/m 1,7 km/h (1 Bft) NO 37 0 min 0,000 mm 0,0 UV-I 0 W/m 10,9 C 15,3 C 3,2 km/h (1 Bft) 97,37 %
16.05.2017 21:56 15,3 C 21,7 C 75 % 1025,8 hPa 0,0 l/m 0,3 km/h (0 Bft) NO 37 0 min 0,000 mm 0,0 UV-I 0 W/m 10,9 C 15,3 C 1,6 km/h (1 Bft) 94,00 %
16.05.2017 21:58 15,3 C 21,7 C 77 % 1025,8 hPa 0,0 l/m 0,0 km/h (0 Bft) NO 37 0 min 0,000 mm 0,0 UV-I 0 W/m 11,3 C 15,3 C 0,0 km/h (0 Bft) 100,00 %
16.05.2017 22:00 15,1 C 21,7 C 77 % 1025,8 hPa 0,0 l/m 0,0 km/h (0 Bft) NO 37 0 min 0,000 mm 0,0 UV-I 0 W/m 11,1 C 15,1 C 0,0 km/h (0 Bft) 94,34 %
16.05.2017 22:02 14,9 C 21,7 C 78 % 1025,8 hPa 0,0 l/m 0,0 km/h (0 Bft) NO 37 0 min 0,000 mm 0,0 UV-I 0 W/m 11,1 C 14,9 C 1,6 km/h (1 Bft) 94,74 %
16.05.2017 22:04 14,8 C 21,7 C 79 % 1025,8 hPa 0,0 l/m 0,1 km/h (0 Bft) NO 37 0 min 0,000 mm 0,0 UV-I 0 W/m 11,2 C 14,8 C 1,6 km/h (1 Bft) 97,87 %
16.05.2017 22:06 14,8 C 21,7 C 80 % 1025,8 hPa 0,0 l/m 0,0 km/h (0 Bft) NO 37 0 min 0,000 mm 0,0 UV-I 0 W/m 11,4 C 14,8 C 0,0 km/h (0 Bft) 94,34 %
16.05.2017 22:08 14,8 C 21,7 C 80 % 1025,8 hPa 0,0 l/m 0,0 km/h (0 Bft) NO 37 0 min 0,000 mm 0,0 UV-I 0 W/m 11,4 C 14,8 C 0,0 km/h (0 Bft) 94,00 %
16.05.2017 22:10 14,8 C 21,7 C 79 % 1025,8 hPa 0,0 l/m 0,0 km/h (0 Bft) NO 37 0 min 0,000 mm 0,0 UV-I 0 W/m 11,2 C 14,8 C 0,0 km/h (0 Bft) 97,87 %
16.05.2017 22:12 14,9 C 21,7 C 78 % 1025,9 hPa 0,0 l/m 0,0 km/h (0 Bft) NO 37 0 min 0,000 mm 0,0 UV-I 0 W/m 11,1 C 14,9 C 0,0 km/h (0 Bft) 95,74 %
16.05.2017 22:14 14,9 C 21,7 C 77 % 1025,8 hPa 0,0 l/m 0,0 km/h (0 Bft) NO 37 0 min 0,000 mm 0,0 UV-I 0 W/m 10,9 C 14,9 C 0,0 km/h (0 Bft) 89,47 %
16.05.2017 22:16 14,9 C 21,7 C 78 % 1025,8 hPa 0,0 l/m 0,0 km/h (0 Bft) NO 37 0 min 0,000 mm 0,0 UV-I 0 W/m 11,1 C 14,9 C 0,0 km/h (0 Bft) 97,87 %
16.05.2017 22:18 14,9 C 21,7 C 78 % 1025,9 hPa 0,0 l/m 0,0 km/h (0 Bft) NO 37 0 min 0,000 mm 0,0 UV-I 0 W/m 11,1 C 14,9 C 0,0 km/h (0 Bft) 94,00 %
16.05.2017 22:20 14,8 C 21,7 C 78 % 1025,8 hPa 0,0 l/m 0,0 km/h (0 Bft) NO 37 0 min 0,000 mm 0,0 UV-I 0 W/m 11,0 C 14,8 C 0,0 km/h (0 Bft) 98,00 %
16.05.2017 22:22 14,8 C 21,7 C 78 % 1025,8 hPa 0,0 l/m 0,0 km/h (0 Bft) NO 37 0 min 0,000 mm 0,0 UV-I 0 W/m 11,0 C 14,8 C 0,0 km/h (0 Bft) 95,00 %
16.05.2017 22:24 14,7 C 21,7 C 79 % 1025,8 hPa 0,0 l/m 0,0 km/h (0 Bft) NO 37 0 min 0,000 mm 0,0 UV-I 0 W/m 11,1 C 14,7 C 0,0 km/h (0 Bft) 94,00 %
16.05.2017 22:26 14,7 C 21,7 C 79 % 1025,9 hPa 0,0 l/m 1,0 km/h (0 Bft) NO 37 0 min 0,000 mm 0,0 UV-I 0 W/m 11,1 C 14,7 C 1,6 km/h (1 Bft) 94,00 %
16.05.2017 22:28 14,7 C 21,7 C 79 % 1025,9 hPa 0,0 l/m 1,3 km/h (1 Bft) NO 37 0 min 0,000 mm 0,0 UV-I 0 W/m 11,1 C 14,7 C 1,6 km/h (1 Bft) 95,74 %
16.05.2017 22:30 14,7 C 21,7 C 78 % 1025,9 hPa 0,0 l/m 4,2 km/h (1 Bft) NO 34 0 min 0,000 mm 0,0 UV-I 0 W/m 10,9 C 14,7 C 17,7 km/h (3 Bft) 92,00 %
16.05.2017 22:32 14,3 C 21,7 C 80 % 1026,1 hPa 0,0 l/m 6,0 km/h (2 Bft) N-NO 27 0 min 0,000 mm 0,0 UV-I 0 W/m 10,9 C 14,3 C 9,7 km/h (2 Bft) 89,58 %
16.05.2017 22:34 13,9 C 21,7 C 81 % 1026,1 hPa 0,0 l/m 5,3 km/h (1 Bft) N-NO 32 0 min 0,000 mm 0,0 UV-I 0 W/m 10,7 C 13,9 C 8,0 km/h (2 Bft) 92,11 %
16.05.2017 22:36 13,9 C 21,7 C 82 % 1026,1 hPa 0,0 l/m 1,8 km/h (1 Bft) N-NO 32 0 min 0,000 mm 0,0 UV-I 0 W/m 10,9 C 13,9 C 4,8 km/h (1 Bft) 88,00 %
16.05.2017 22:38 13,9 C 21,7 C 82 % 1026,1 hPa 0,0 l/m 2,4 km/h (1 Bft) O-NO 58 0 min 0,000 mm 0,0 UV-I 0 W/m 10,9 C 13,9 C 6,4 km/h (2 Bft) 94,74 %
16.05.2017 22:40 14,1 C 21,7 C 82 % 1026,1 hPa 0,0 l/m 3,0 km/h (1 Bft) O-NO 58 0 min 0,000 mm 0,0 UV-I 0 W/m 11,1 C 14,1 C 4,8 km/h (1 Bft) 96,23 %
16.05.2017 22:42 14,2 C 21,7 C 81 % 1026,1 hPa 0,0 l/m 0,4 km/h (0 Bft) O-NO 58 0 min 0,000 mm 0,0 UV-I 0 W/m 11,0 C 14,2 C 1,6 km/h (1 Bft) 98,00 %
16.05.2017 22:44 14,3 C 21,7 C 81 % 1026,1 hPa 0,0 l/m 0,0 km/h (0 Bft) O-NO 58 0 min 0,000 mm 0,0 UV-I 0 W/m 11,1 C 14,3 C 0,0 km/h (0 Bft) 97,87 %
16.05.2017 22:46 14,4 C 21,7 C 81 % 1026,1 hPa 0,0 l/m 0,0 km/h (0 Bft) O-NO 58 0 min 0,000 mm 0,0 UV-I 0 W/m 11,2 C 14,4 C 1,6 km/h (1 Bft) 100,00 %
16.05.2017 22:48 14,4 C 21,7 C 80 % 1026,1 hPa 0,0 l/m 0,0 km/h (0 Bft) O-NO 58 0 min 0,000 mm 0,0 UV-I 0 W/m 11,0 C 14,4 C 0,0 km/h (0 Bft) 100,00 %
16.05.2017 22:50 14,4 C 21,7 C 80 % 1026,1 hPa 0,0 l/m 0,6 km/h (0 Bft) O-NO 58 0 min 0,000 mm 0,0 UV-I 0 W/m 11,0 C 14,4 C 3,2 km/h (1 Bft) 100,00 %
16.05.2017 22:52 14,4 C 21,7 C 80 % 1026,0 hPa 0,0 l/m 0,3 km/h (0 Bft) O-NO 58 0 min 0,000 mm 0,0 UV-I 0 W/m 11,0 C 14,4 C 1,6 km/h (1 Bft) 98,57 %
16.05.2017 22:54 14,4 C 21,7 C 80 % 1026,1 hPa 0,0 l/m 0,0 km/h (0 Bft) O-NO 58 0 min 0,000 mm 0,0 UV-I 0 W/m 11,0 C 14,4 C 0,0 km/h (0 Bft) 97,37 %
16.05.2017 22:56 14,3 C 21,7 C 81 % 1026,1 hPa 0,0 l/m 0,0 km/h (0 Bft) O-NO 58 0 min 0,000 mm 0,0 UV-I 0 W/m 11,1 C 14,3 C 1,6 km/h (1 Bft) 100,00 %
16.05.2017 22:58 14,2 C 21,7 C 81 % 1026,0 hPa 0,0 l/m 0,0 km/h (0 Bft) O-NO 58 0 min 0,000 mm 0,0 UV-I 0 W/m 11,0 C 14,2 C 0,0 km/h (0 Bft) 98,00 %
16.05.2017 23:00 14,1 C 21,7 C 82 % 1026,0 hPa 0,0 l/m 0,1 km/h (0 Bft) O-NO 58 0 min 0,000 mm 0,0 UV-I 0 W/m 11,1 C 14,1 C 1,6 km/h (1 Bft) 100,00 %
16.05.2017 23:02 13,9 C 21,7 C 83 % 1026,0 hPa 0,0 l/m 0,3 km/h (0 Bft) O-NO 58 0 min 0,000 mm 0,0 UV-I 0 W/m 11,1 C 13,9 C 1,6 km/h (1 Bft) 100,00 %
16.05.2017 23:04 13,8 C 21,7 C 83 % 1026,0 hPa 0,0 l/m 1,0 km/h (0 Bft) O-NO 58 0 min 0,000 mm 0,0 UV-I 0 W/m 11,0 C 13,8 C 3,2 km/h (1 Bft) 98,00 %
16.05.2017 23:06 13,7 C 21,7 C 83 % 1026,1 hPa 0,0 l/m 1,3 km/h (1 Bft) O-NO 58 0 min 0,000 mm 0,0 UV-I 0 W/m 10,9 C 13,7 C 3,2 km/h (1 Bft) 100,00 %
16.05.2017 23:08 13,8 C 21,7 C 84 % 1026,1 hPa 0,0 l/m 3,1 km/h (1 Bft) O 88 0 min 0,000 mm 0,0 UV-I 0 W/m 11,1 C 13,8 C 4,8 km/h (1 Bft) 100,00 %
16.05.2017 23:10 13,8 C 21,7 C 84 % 1026,0 hPa 0,0 l/m 1,5 km/h (1 Bft) O 88 0 min 0,000 mm 0,0 UV-I 0 W/m 11,1 C 13,8 C 3,2 km/h (1 Bft) 100,00 %
16.05.2017 23:12 13,8 C 21,7 C 84 % 1026,0 hPa 0,0 l/m 0,6 km/h (0 Bft) O 88 0 min 0,000 mm 0,0 UV-I 0 W/m 11,1 C 13,8 C 1,6 km/h (1 Bft) 98,11 %
16.05.2017 23:14 13,8 C 21,7 C 83 % 1026,0 hPa 0,0 l/m 0,3 km/h (0 Bft) O 88 0 min 0,000 mm 0,0 UV-I 0 W/m 11,0 C 13,8 C 1,6 km/h (1 Bft) 100,00 %
16.05.2017 23:16 13,8 C 21,7 C 82 % 1026,1 hPa 0,0 l/m 1,2 km/h (1 Bft) O 88 0 min 0,000 mm 0,0 UV-I 0 W/m 10,8 C 13,8 C 3,2 km/h (1 Bft) 96,23 %
16.05.2017 23:18 13,9 C 21,7 C 82 % 1026,0 hPa 0,0 l/m 1,8 km/h (1 Bft) O 88 0 min 0,000 mm 0,0 UV-I 0 W/m 10,9 C 13,9 C 3,2 km/h (1 Bft) 100,00 %
16.05.2017 23:20 13,9 C 21,7 C 82 % 1026,0 hPa 0,0 l/m 2,5 km/h (1 Bft) O 88 0 min 0,000 mm 0,0 UV-I 0 W/m 10,9 C 13,9 C 3,2 km/h (1 Bft) 98,11 %
16.05.2017 23:22 14,0 C 21,7 C 81 % 1026,0 hPa 0,0 l/m 3,7 km/h (1 Bft) O-SO 107 0 min 0,000 mm 0,0 UV-I 0 W/m 10,8 C 14,0 C 4,8 km/h (1 Bft) 98,00 %
16.05.2017 23:24 13,9 C 21,7 C 81 % 1026,0 hPa 0,0 l/m 1,6 km/h (1 Bft) O-SO 107 0 min 0,000 mm 0,0 UV-I 0 W/m 10,7 C 13,9 C 3,2 km/h (1 Bft) 93,62 %
16.05.2017 23:26 13,9 C 21,7 C 81 % 1026,1 hPa 0,0 l/m 3,5 km/h (1 Bft) O-SO 107 0 min 0,000 mm 0,0 UV-I 0 W/m 10,7 C 13,9 C 4,8 km/h (1 Bft) 100,00 %
16.05.2017 23:28 13,8 C 21,7 C 81 % 1026,1 hPa 0,0 l/m 3,4 km/h (1 Bft) O-SO 107 0 min 0,000 mm 0,0 UV-I 0 W/m 10,6 C 13,8 C 6,4 km/h (2 Bft) 97,73 %
16.05.2017 23:30 13,9 C 21,7 C 81 % 1026,1 hPa 0,0 l/m 4,3 km/h (1 Bft) O-SO 115 0 min 0,000 mm 0,0 UV-I 0 W/m 10,7 C 13,9 C 6,4 km/h (2 Bft) 100,00 %
16.05.2017 23:32 13,9 C 21,7 C 81 % 1026,2 hPa 0,0 l/m 1,4 km/h (1 Bft) O-SO 115 0 min 0,000 mm 0,0 UV-I 0 W/m 10,7 C 13,9 C 3,2 km/h (1 Bft) 98,11 %
16.05.2017 23:34 13,8 C 21,7 C 81 % 1026,1 hPa 0,0 l/m 1,0 km/h (0 Bft) O-SO 115 0 min 0,000 mm 0,0 UV-I 0 W/m 10,6 C 13,8 C 3,2 km/h (1 Bft) 100,00 %
16.05.2017 23:36 13,7 C 21,1 C 81 % 1026,2 hPa 0,0 l/m 2,6 km/h (1 Bft) O-SO 115 0 min 0,000 mm 0,0 UV-I 0 W/m 10,5 C 13,7 C 4,8 km/h (1 Bft) 97,87 %
16.05.2017 23:38 13,7 C 21,1 C 80 % 1026,2 hPa 0,0 l/m 3,8 km/h (1 Bft) O-SO 115 0 min 0,000 mm 0,0 UV-I 0 W/m 10,3 C 13,7 C 4,8 km/h (1 Bft) 98,21 %
16.05.2017 23:40 13,6 C 21,1 C 81 % 1026,2 hPa 0,0 l/m 3,4 km/h (1 Bft) O-SO 115 0 min 0,000 mm 0,0 UV-I 0 W/m 10,4 C 13,6 C 4,8 km/h (1 Bft) 100,00 %
16.05.2017 23:42 13,6 C 21,1 C 81 % 1026,2 hPa 0,0 l/m 1,3 km/h (1 Bft) O-SO 115 0 min 0,000 mm 0,0 UV-I 0 W/m 10,4 C 13,6 C 3,2 km/h (1 Bft) 92,31 %
16.05.2017 23:44 13,7 C 21,1 C 81 % 1026,2 hPa 0,0 l/m 0,2 km/h (0 Bft) O-SO 115 0 min 0,000 mm 0,0 UV-I 0 W/m 10,5 C 13,7 C 1,6 km/h (1 Bft) 97,92 %
16.05.2017 23:46 13,7 C 21,1 C 80 % 1026,2 hPa 0,0 l/m 1,8 km/h (1 Bft) O-SO 115 0 min 0,000 mm 0,0 UV-I 0 W/m 10,3 C 13,7 C 3,2 km/h (1 Bft) 97,14 %
16.05.2017 23:48 13,7 C 21,1 C 80 % 1026,2 hPa 0,0 l/m 1,5 km/h (1 Bft) O-SO 115 0 min 0,000 mm 0,0 UV-I 0 W/m 10,3 C 13,7 C 3,2 km/h (1 Bft) 96,23 %
16.05.2017 23:50 13,7 C 21,1 C 80 % 1026,2 hPa 0,0 l/m 2,2 km/h (1 Bft) O-SO 115 0 min 0,000 mm 0,0 UV-I 0 W/m 10,3 C 13,7 C 3,2 km/h (1 Bft) 96,23 %
16.05.2017 23:52 13,7 C 21,1 C 81 % 1026,2 hPa 0,0 l/m 3,3 km/h (1 Bft) O-SO 115 0 min 0,000 mm 0,0 UV-I 0 W/m 10,5 C 13,7 C 4,8 km/h (1 Bft) 97,87 %
16.05.2017 23:54 13,6 C 21,1 C 81 % 1026,2 hPa 0,0 l/m 2,5 km/h (1 Bft) O-SO 115 0 min 0,000 mm 0,0 UV-I 0 W/m 10,4 C 13,6 C 4,8 km/h (1 Bft) 96,00 %
16.05.2017 23:56 13,4 C 21,1 C 82 % 1026,2 hPa 0,0 l/m 3,0 km/h (1 Bft) O-SO 115 0 min 0,000 mm 0,0 UV-I 0 W/m 10,4 C 13,4 C 4,8 km/h (1 Bft) 97,14 %
16.05.2017 23:58 13,3 C 21,1 C 83 % 1026,2 hPa 0,0 l/m 2,3 km/h (1 Bft) O-SO 115 0 min 0,000 mm 0,0 UV-I 0 W/m 10,5 C 13,3 C 4,8 km/h (1 Bft) 96,00 %
_ Min-Zeit 06:20 04:30 17:54 19:16 - 06:58 - - - - - - 17:54 03:16 06:58 10:38
Minimum _ 10,7 C 19,4 C 45 % 1025,2 hPa - 0,0 km/h (0 Bft) - - - - - - 9,5 C 10,2 C 0,0 km/h (0 Bft) 83,33 %
_ Max-Zeit 14:46 17:40 06:28 09:04 00:00 03:16 - - 14:00 14:00 13:14 14:42 14:54 14:46 22:30 00:02
Maximum _ 22,3 C 22,2 C 94 % 1029,4 hPa 0,0 l/m 8,6 km/h
S-SW (2 Bft)
- - 4 min 0,508 mm 5,9 UV-I 990 W/m 14,3 C 22,3 C 17,7 km/h
NO (3 Bft)
100,00 %
Durchschnitt _ 16,3 C 20,7 C 74 % 1027,6 hPa #0,0 l/m 2,6 km/h (1 Bft) S-SW - #12:32 h #4,293 mm 3,2 UV-I 456 W/m 11,2 C 16,3 C 4,9 km/h (1 Bft) 96,99 %